     2.11           OBSERVATION DATA    G (GPS)             RINEX VERSION / TYPE
teqc 2010Oct21 OPUS Account 20111030 16:18:27UTC            PGM / RUN BY / DATE
Q 1522                                                      MARKER NAME
1170                                                        MARKER NUMBER
DBPROUTY NGS                                                OBSERVER / AGENCY
0220316069 TRIMBLE 5700 1.30                                REC # / TYPE / VERS
12469273 TRM41249.00 NONE                                   ANT # / TYPE
  -738054.1103 -5496297.7754  3140266.9950                  APPROX POSITION XYZ
        2.0000        0.0000        0.0000                  ANTENNA: DELTA H/E/N
     1     1                                                WAVELENGTH FACT L1/2
     5    L1    L2    C1    P1    P2                        # / TYPES OF OBSERV
    15                                                      LEAP SECONDS
  2011     9    26     0     0   30.0000000     GPS         TIME OF FIRST OBS
                                                            END OF HEADER
 11  9 26  0  0 30.0000000  0  9G02G29G12G30G25G15G10G05G26
 -84882893.85257 -66118145.18555  21849191.4144                   21849189.3404
 -31347500.93457 -24404774.00056  22095619.5164                   22095620.2974
 -65997918.01657 -51402909.57756  21977213.0314                   21977213.1134
 -24953450.26657 -19421240.71454  22713678.3134                   22713679.0664
 -49248135.03558 -38350429.24156  21651932.8204                   21651935.0824
  -5567389.09856  -4315324.37853  24138052.3054                   24138055.9024
 -64436627.44956 -50187485.44053  24245782.2274                   24245784.0664
 -65706649.78158 -51175296.04856  20518196.9614                   20518195.9884
 -18203673.21557 -14161436.73254  23213968.3834                   23213970.7194
 11  9 26  0  1  0.0000000  0  9G02G29G12G30G25G15G10G05G26
 -84946310.99647 -66167561.11545  21837123.3524                   21837120.8834
 -31531944.18747 -24548495.93246  22060521.1954                   22060521.3954
 -66026985.96948 -51425559.96445  21971681.6094                   21971681.8524
 -25079089.22347 -19519141.14645  22689770.4774                   22689771.9774
 -49329948.93048 -38414180.32846  21636364.6884                   21636366.8364
  -5770430.35246  -4473538.06043  24099414.0704                   24099417.3404
 -64434358.86346 -50185717.78143  24246213.1334                   24246216.4344
 -65775670.34448 -51229078.28346  20505063.2114                   20505061.8984
 -18402311.61747 -14316219.75844  23176169.1254                   23176170.8444
 11  9 26  0  1 30.0000000  0  9G02G29G12G30G25G15G10G05G26
 -85009580.23447 -66216861.82245  21825083.5394                   21825081.7114
 -31716184.64547 -24692059.80946  22025461.4304                   22025462.0784
 -66055668.23848 -51447909.83646  21966223.2974                   21966223.9924
 -25204091.98447 -19616545.85545  22665983.3984                   22665984.7624
 -49411167.69548 -38477467.66746  21620908.9844                   21620911.3484
  -5973468.95746  -4631749.67344  24060777.1254                   24060780.9264
 -64431957.21146 -50183846.30943  24246670.6094                   24246672.8484
 -65844165.14548 -51282450.83246  20492028.9064                   20492027.5474
 -18600724.11747 -14470826.79544  23138412.4224                   23138413.7504
 11  9 26  0  2  0.0000000  0  9G02G29G12G30G25G15G10G05G26
 -85072704.34447 -66266049.43845  21813071.5394                   21813069.0554
 -31900223.55547 -24835466.64946  21990440.2274                   21990439.4844
 -66083971.98448 -51469964.75546  21960837.5164                   21960837.8984
 -25328461.50847 -19713457.11445  22642316.0554                   22642318.0664
 -49491795.89148 -38540294.83246  21605565.9384                   21605568.5514
  -6176505.60547  -4789959.71143  24022140.3204                   24022144.0904
 -64429428.14546 -50181875.63843  24247152.2664                   24247153.5864
 -65912139.17648 -51335417.59447  20479093.4844                   20479092.7154
 -18798910.29747 -14625257.40444  23100698.7814                   23100700.7704
 11  9 26  0  2 30.0000000  0  9G02G29G12G30G25G15G10G05G26
 -85135683.88747 -66315124.41245  21801086.9454                   21801084.6994
 -32084059.08247 -24978715.01046  21955457.1804                   21955456.5514
 -66111900.25848 -51491727.06246  21955522.5864                   21955522.8244
 -25452198.22347 -19809875.28244  22618769.7664                   22618772.2034
 -49571835.52048 -38602663.36446  21590335.2274                   21590337.2704
  -6379537.89546  -4948166.41444  23983503.3754                   23983507.9024
 -64426774.58246 -50179807.87143  24247656.8984                   24247658.7664
 -65979594.66448 -51387980.29946  20466257.4224                   20466256.4534
 -18996866.99247 -14779509.24344  23063029.0944                   23063030.9344
 11  9 26  0  3  0.0000000  0  9G02G29G12G30G25G15G10G05G26
 -85198514.08647 -66364082.99545  21789130.7344                   21789128.5434
 -32267684.09447 -25121799.35046  21920514.1954                   21920514.2274
 -66139450.98848 -51513195.20046  21950280.1804                   21950280.4804
 -25575297.17247 -19905796.49145  22595344.6564                   22595347.2274
 -49651283.19548 -38664570.63146  21575216.8444                   21575218.8674
  -6582558.17246  -5106363.74943  23944869.4844                   23944874.4454
 -64423994.00046 -50177641.17943  24248185.7894                   24248187.6804
 -66046528.70748 -51440136.69046  20453520.3834                   20453519.7894
 -19194585.52747 -14933575.50244  23025404.1724                   23025405.7584
 11  9 26  0  3 30.0000000  0  9G02G29G12G30G25G15G10G05G26
 -85261196.97347 -66412926.81045  21777202.7114                   21777200.9734
 -32451098.85247 -25264719.81245  21885611.0784                   21885611.1214
 -66166629.14548 -51534373.02445  21945108.4844                   21945108.2974
 -25697760.52047 -20001222.40845  22572040.8444                   22572043.0084
 -49730142.66448 -38726019.56446  21560210.0554                   21560212.8634
  -6785565.87546  -5264551.26143  23906239.2034                   23906242.8874
 -64421091.13346 -50175379.17043  24248738.8204                   24248740.7774
 -66112945.57048 -51491890.09446  20440881.2274                   20440880.7974
 -19392064.52746 -15087455.11444  22987823.8984                   22987826.5864
 11  9 26  0  4  0.0000000  0  9G02G29G12G30G25G15G10G05G26
 -85323735.91847 -66461658.45345  21765301.7344                   21765299.8324
 -32634304.82847 -25407477.58646  21850747.8134                   21850748.3634
 -66193440.93748 -51555265.36746  21940006.3754                   21940006.7234
 -25819591.49247 -20096155.55445  22548857.0704                   22548858.9104
 -49808418.85948 -38787014.00846  21545314.6414                   21545317.0554
  -6988561.51646  -5422729.40343  23867610.2034                   23867612.8714
 -64418071.70346 -50173026.35343  24249313.1334                   24249314.9304
 -66178850.60248 -51543244.65646  20428340.0704                   20428339.2194
 -19589303.50446 -15241147.67044  22950291.4064                   22950293.7274
 11  9 26  0  4 30.0000000  0  9G02G29G12G30G25G15G10G05G26
 -83810705.03947 -65282673.34045  22053221.9844                   22053220.3834
 -31241869.66447 -24322463.01846  22115720.2344                   22115720.1294
 -64644464.67648 -50348270.90945  22234766.7814                   22234767.1764
 -24365362.46947 -18962990.00945  22825588.0864                   22825589.8674
 -48310687.07048 -37619950.27746  21830323.4454                   21830325.9774
  -5616111.93746  -4353287.87544  24128777.8204                   24128781.0164
 -62839514.61346 -48942981.82543  24549702.7274                   24549705.1294
 -64668819.97348 -50366597.41546  20715689.4924                   20715688.8324
 -18210868.96947 -14167042.70644  23212598.8984                   23212600.4804
 11  9 26  0  5  0.0000000  0  9G02G29G12G30G25G15G10G05G26
 -83872950.74247 -65331176.49245  22041377.0394                   22041375.4534
 -31424645.99248 -24464885.99546  22080938.8754                   22080939.0234
 -64670547.59848 -50368595.30446  22229802.9774                   22229803.8324
 -24485924.01247 -19056934.02445  22802645.7194                   22802647.3204
 -48387796.57048 -37680035.59446  21815650.1724                   21815653.0164
  -5819070.10947  -4511436.86244  24090156.6564                   24090159.7304
 -62836264.42646 -48940449.21443  24550320.7974                   24550322.8244
 -64733702.49248 -50417155.23146  20703342.9694                   20703341.9224
 -18407612.40647 -14320349.11844  23175159.7344                   23175161.3164
 11  9 26  0  5 30.0000000  0  9G02G29G12G30G25G15G10G05G26
 -83935047.75047 -65379563.74745  22029560.3674                   22029558.3794
 -31607201.98847 -24607137.30146  22046199.5474                   22046199.9384
 -64696268.68448 -50388637.73245  22224908.5784                   22224909.1054
 -24605848.70747 -19150381.78445  22779824.5394                   22779825.5434
 -48464322.96148 -37739666.54246  21801087.1484                   21801090.0824
  -6022003.16847  -4669566.27644  24051539.5084                   24051542.7504
 -62832900.14846 -48937827.70643  24550961.3984                   24550963.2194
 -64798074.46548 -50467315.20846  20691093.3134                   20691092.3874
 -18604100.37547 -14473456.47844  23137769.3054                   23137770.8834
 11  9 26  0  6  0.0000000  0  9G02G29G12G30G25G15G10G05G26
 -83996997.31648 -65427836.13645  22017772.0474                   22017769.7034
 -31789537.38347 -24749216.70846  22011502.1724                   22011502.1024
 -64721632.30948 -50408401.62445  22220082.0394                   22220083.0274
 -24725138.18747 -19243334.56145  22757124.0474                   22757126.4344
 -48540269.45348 -37798845.63346  21786635.5634                   21786638.3134
  -6224909.66447  -4827675.01244  24012926.7734                   24012930.3364
 -62829425.46146 -48935120.13743  24551621.8834                   24551624.0904
 -64861939.72748 -50517080.35346  20678940.2194                   20678939.3404
 -18800330.58647 -14626362.99044  23100427.8364                   23100428.9064
 11  9 26  0  6 30.0000000  0  9G02G29G12G30G25G15G10G05G26
 -84058801.00447 -65475994.83245  22006011.0784                   22006009.1484
 -31971650.94947 -24891123.25246  21976846.8364                   21976846.9144
 -64746642.47347 -50427890.09945  22215322.7344                   22215323.1294
 -24843793.80547 -19335793.44845  22734545.0004                   22734545.9024
 -48615638.97348 -37857575.13946  21772292.7034                   21772295.8134
  -6427788.48846  -4985762.20344  23974321.1644                   23974323.3244
 -62825843.93045 -48932329.27042  24552303.6644                   24552304.6644
 -64925301.27048 -50566452.98246  20666882.7114                   20666881.6884
 -18996300.79346 -14779066.90444  23063135.4774                   23063136.8674
 11  9 26  0  7  0.0000000  0  9G02G29G12G30G25G15G10G05G26
 -84120456.85947 -65524038.33145  21994278.1174                   21994275.9924
 -32153539.20747 -25032854.26046  21942234.7344                   21942234.3984
 -64771300.88748 -50447104.49345  22210630.7344                   22210631.1844
 -24961814.44547 -19427757.53945  22712086.3834                   22712087.5944
 -48690431.96548 -37915855.40246  21758060.4224                   21758063.1804
  -6630635.44947  -5143824.56444  23935719.9064                   23935722.6094
 -62822157.08245 -48929456.28142  24553006.2344                   24553006.1254
 -64988160.23048 -50615433.98946  20654921.1954                   20654920.0744
 -19192005.91446 -14931564.22544  23025894.2114                   23025895.5554
 11  9 26  0  7 30.0000000  0  9G02G29G12G30G25G15G10G05G26
 -84181966.34847 -65571967.78145  21982573.8054                   21982571.2304
 -32335201.19147 -25174408.94546  21907665.4454                   21907665.6374
 -64795611.77047 -50466048.04845  22206004.1884                   22206004.6214
 -25079201.45747 -19519227.94045  22689748.8054                   22689747.9344
 -48764651.37148 -37973688.70846  21743937.0784                   21743939.2074
  -6833448.57446  -5301860.57643  23897125.9304                   23897128.9494
 -62818368.54746 -48926504.11342  24553726.7974                   24553726.8594
 -65050520.09048 -50664026.08146  20643054.4694                   20643053.5744
 -19387443.53946 -15083853.15144  22988703.1174                   22988705.0744
 11  9 26  0  8  0.0000000  0  9G02G29G12G30G25G15G10G05G26
 -84243331.23047 -65619784.55245  21970895.2894                   21970894.1994
 -32516636.67648 -25315787.13146  21873139.6724                   21873139.4414
 -64819580.04347 -50484724.66745  22201443.4774                   22201444.2274
 -25195956.92247 -19610206.16345  22667531.4224                   22667531.7194
 -48838300.71948 -38031077.82546  21729921.9144                   21729924.8914
  -7036227.01246  -5459869.50744  23858538.3674                   23858541.8324
 -62814482.35546 -48923475.86742  24554466.6484                   24554466.3164
 -65112384.37548 -50712232.01146  20631281.8054                   20631281.1374
 -19582611.70346 -15235932.09044  22951563.2344                   22951565.8914
 11  9 26  0  8 30.0000000  0  9G02G29G12G30G25G15G10G05G26
 -84304548.84848 -65667486.57745  21959246.9774                   21959244.7544
 -32697841.14548 -25456985.32346  21838657.2034                   21838657.6564
 -64843206.27348 -50503134.73945  22196947.6884                   22196947.6954
 -25312078.53147 -19700690.51745  22645433.7894                   22645433.7234
 -48911379.39548 -38088022.24546  21716015.6254                   21716018.0594
  -7238965.39846  -5617847.30944  23819958.5164                   23819961.2854
 -62810498.35246 -48920371.45643  24555223.6644                   24555224.8594
 -65173753.03548 -50760051.72446  20619603.5474                   20619602.5164
 -19777504.34046 -15387796.33944  22914476.7034                   22914478.4924
 11  9 26  0  9  0.0000000  0 10G02G29G12G30G25G15G10G05G26G21
 -84365621.91447 -65715075.94845  21947625.0634                   21947622.7074
 -32878814.87147 -25598003.70246  21804218.8594                   21804218.5664
 -64866496.04747 -50521282.66345  22192515.7194                   22192516.1294
 -25427569.48447 -19790683.40944  22623456.2274                   22623456.3094
 -48983892.00048 -38144525.57146  21702216.6024                   21702219.5824
  -7441663.56246  -5775793.71344  23781385.4224                   23781388.5084
 -62806421.46546 -48917194.48943  24556000.0004                   24556000.8554
 -65234630.94948 -50807489.04946  20608019.2504                   20608018.6174
 -19972120.59046 -15539445.22044  22877442.3134                   22877442.7704
   1333166.25055   1057476.60952  25140806.5394                   25140808.9224
 11  9 26  0  9 30.0000000  0  9G02G29G12G30G25G15G05G26G21
 -84426557.71947 -65762558.36745  21936029.0474                   21936027.4104
 -33059563.31248 -25738846.57246  21769823.2584                   21769822.7584
 -64889459.77047 -50539176.48445  22188146.0474                   22188146.1804
 -25542437.37547 -19880190.85045  22601597.5554                   22601598.1334
 -49055847.73048 -38200594.99046  21688524.4454                   21688526.7344
  -7644326.17246  -5933712.44844  23742820.6564                   23742822.6524
 -65295027.46148 -50854551.24846  20596526.0394                   20596525.1724
 -20166464.40247 -15690881.80644  22840460.1094                   22840461.5984
   1169598.41045    930021.39542  25109680.2974                   25109681.9344
 11  9 26  0 10  0.0000000  0  9G02G29G12G30G25G15G05G26G21
 -84487359.91848 -65809936.66745  21924458.8134                   21924456.3984
 -33240087.60947 -25879514.77646  21735470.5084                   21735470.7664
 -64912104.20348 -50556821.55245  22183837.0164                   22183837.2584
 -25656686.08647 -19969215.78244  22579856.7584                   22579857.1564
 -49127252.01248 -38256234.69646  21674936.2584                   21674939.2384
  -7846954.21546  -6091604.27144  23704261.3754                   23704263.3714
 -65354948.28548 -50901242.76446  20585123.6094                   20585122.6914
 -20360535.14547 -15842105.67244  22803529.1644                   22803530.6134
   1006076.27746    802601.75042  25078563.4304                   25078565.3284
 11  9 26  0 10 30.0000000  0  9G02G29G12G30G25G15G05G26G21
 -84548017.49647 -65857202.28645  21912916.3674                   21912914.2154
 -33420374.70347 -26019998.15746  21701163.0784                   21701162.7894
 -64934421.62947 -50574211.77345  22179590.3444                   22179590.2344
 -25770305.20347 -20057750.13945  22558235.8524                   22558237.1524
 -49198095.90248 -38311437.72646  21661455.1804                   21661457.5084
  -8049533.69146  -6249458.26344  23665711.6094                   23665714.1294
 -65414385.33247 -50947557.31946  20573813.0784                   20573812.0004
 -20554318.81647 -15993105.78044  22766653.7664                   22766654.8324
    842609.84845    675225.49642  25047455.7664                   25047459.6054
 11  9 26  0 11  0.0000000  0  9G02G29G12G30G25G15G05G26G21
 -84608522.00048 -65904348.63545  21901402.7734                   21901400.5514
 -33600414.13747 -26160288.56046  21666902.6484                   21666902.2704
 -64956406.27347 -50591342.70545  22175406.8204                   22175406.5984
 -25883286.68047 -20145787.62744  22536735.6414                   22536737.6884
 -49268372.89148 -38366199.02846  21648081.8134                   21648084.1914
  -8252053.08246  -6407265.40944  23627173.2504                   23627175.5084
 -65473331.97348 -50993489.75046  20562595.9694                   20562595.3284
 -20747803.03547 -16143872.55044  22729835.2504                   22729836.0084
    679206.94546    547898.66443  25016362.4144                   25016364.6374
 11  9 26  0 11 30.0000000  0  9G02G29G12G30G25G15G05G26G21
 -84668872.30147 -65951374.82645  21889917.9844                   21889916.4734
 -33780202.84847 -26300383.58646  21632689.7504                   21632689.6604
 -64978060.66447 -50608216.28445  22171285.5474                   22171285.9924
 -25995630.05147 -20233327.85444  22515357.8284                   22515359.8054
 -49338083.99648 -38420519.35446  21634816.6174                   21634819.1604
  -8454509.09046  -6565023.13444  23588646.8984                   23588649.7384
 -65531789.55948 -51039041.08246  20551471.8594                   20551470.5354
 -20940983.26647 -16294402.47744  22693074.3364                   22693075.2814
    515867.69946    420621.54342  24985278.2194                   24985282.1484
 11  9 26  0 12  0.0000000  0  9G02G29G12G30G25G15G05G26G21
 -83153651.57047 -64770683.32745  22178254.9304                   22178253.1954
 -32384317.88347 -25212680.93546  21898317.9774                   21898317.9844
 -63423971.81647 -49397238.00845  22467019.2664                   22467019.6134
 -24531917.10247 -19092772.28644  22793892.7504                   22793894.1914
 -47831814.04748 -37246802.53046  21921449.6484                   21921452.9384
  -7081476.89547  -5495127.79744  23849926.5864                   23849928.7384
 -64014343.64548 -49856615.66046  20840232.0864                   20840231.1024
 -19558434.74647 -15217091.82344  22956163.9924                   22956164.5004
   1928012.54745   1520994.30942  25254001.3204                   25254005.0234
 11  9 26  0 12 30.0000000  0  9G02G29G12G30G25G15G05G26G21
 -83213701.93747 -64817475.81145  22166828.1024                   22166826.1564
 -32563607.41047 -25352387.00446  21864200.1954                   21864200.3134
 -63444983.58247 -49413610.84745  22463021.2664                   22463021.3554
 -24642994.48047 -19179326.05845  22772755.2194                   22772756.8874
 -47900408.20348 -37300252.52246  21908396.8834                   21908399.4104
  -7283806.10947  -5652786.80644  23811424.3524                   23811426.3324
 -64071838.79348 -49901417.06346  20829290.9774                   20829290.2624
 -19751005.34047 -15367146.67144  22919519.0634                   22919519.2664
   1764790.86746   1393808.78343  25222940.4774                   25222944.7034
 11  9 26  0 13  0.0000000  0  9G02G29G12G30G25G15G05G26G21
 -83273604.81647 -64864153.35445  22155428.8054                   22155426.4454
 -32742646.33247 -25491897.78646  21830130.2504                   21830130.1214
 -63465680.90647 -49429738.67045  22459082.5474                   22459082.0944
 -24753442.04747 -19265389.09444  22751738.3524                   22751739.9844
 -47968449.28948 -37353271.54046  21895449.4454                   21895451.6334
  -7486070.20347  -5810395.02644  23772934.6644                   23772936.8954
 -64128858.30148 -49945847.82046  20818441.0164                   20818439.4454
 -19943267.71547 -15516961.39745  22882932.7194                   22882933.1844
   1601624.43446   1266666.16243  25191891.5704                   25191895.1724
 11  9 26  0 13 30.0000000  0  9G02G29G12G30G25G15G05G26G21
 -83333360.42247 -64910716.13845  22144057.4304                   22144055.3714
 -32921432.77347 -25631211.83146  21796108.2344                   21796108.4184
 -63486067.07847 -49445624.02045  22455202.7274                   22455203.4534
 -24863260.57847 -19350961.94644  22730840.2424                   22730841.6374
 -48035939.52048 -37405861.31746  21882605.8524                   21882608.7704
  -7688266.27347  -5967950.22744  23734457.5634                   23734460.4614
 -64185405.06648 -49989910.21146  20807680.3364                   20807678.5744
 -20135218.73847 -15666533.47044  22846405.2344                   22846406.2304
   1438512.63346   1139566.19343  25160852.3444                   25160855.8054
 11  9 26  0 14  0.0000000  0  9G02G29G12G30G25G15G05G26G21
 -83392967.50047 -64957163.18445  22132714.5084                   22132712.7114
 -33099963.55547 -25770326.66146  21762135.0944                   21762134.8554
 -63506144.55947 -49461268.85445  22451382.4534                   22451383.0124
 -24972449.77347 -19436044.42545  22710062.5634                   22710063.8244
 -48102880.16848 -37458022.85246  21869867.2894                   21869870.1764
  -7890390.22346  -6125449.25944  23695994.2424                   23695997.2664
 -64241480.18448 -50033605.09146  20797009.1954                   20797008.4534
 -20326853.96147 -15815859.48845  22809937.9384                   22809938.9844
   1275455.60946   1012508.95643  25129822.6564                   25129826.3674
 11  9 26  0 14 30.0000000  0  9G02G29G12G30G25G15G05G26G21
 -83452427.73847 -65003495.80245  22121399.8444                   22121397.6254
 -33278238.04748 -25909241.77546  21728210.5164                   21728210.3244
 -63525918.09847 -49476676.85345  22447619.7194                   22447620.3324
 -25081011.95347 -19520638.33045  22689403.2974                   22689405.5944
 -48169275.02348 -37509759.08746  21857233.5004                   21857235.6644
  -8092441.74247  -6282891.77044  23657545.8444                   23657547.5944
 -64297087.77748 -50076935.65946  20786427.6024                   20786426.4064
 -20518171.03147 -15964937.61944  22773531.9924                   22773532.3244
   1112451.34446    885492.71243  25098803.7114                   25098807.8554
 11  9 26  0 15  0.0000000  0  9G02G29G12G30G25G15G05G26G21
 -83511736.92647 -65049710.72945  22110113.6024                   22110111.7154
 -33456249.87948 -26047952.21546  21694335.9924                   21694335.6844
 -63545386.36347 -49491846.97045  22443914.5474                   22443915.0434
 -25188943.44547 -19604740.79344  22668865.1414                   22668867.1174
 -48235121.81648 -37561068.28146  21844702.9224                   21844705.6134
  -8294413.16447  -6440271.96144  23619111.8984                   23619113.5004
 -64352225.94148 -50119900.43446  20775935.1174                   20775933.6214
 -20709162.60247 -16113762.11344  22737187.2114                   22737188.2624
    949503.41446    758520.42143  25067796.4064                   25067799.9884
 11  9 26  0 15 30.0000000  0  9G02G29G12G30G25G15G05G26G21
 -83570898.22747 -65095810.40945  22098855.2814                   22098853.3054
 -33634000.78548 -26186459.35946  21660510.9064                   21660510.6094
 -63564556.21947 -49506784.56445  22440267.1484                   22440267.7304
 -25296248.50047 -19688355.11144  22648445.3834                   22648447.3444
 -48300426.31648 -37611954.89146  21832275.8364                   21832278.7234
  -8496305.26247  -6597590.28244  23580693.0314                   23580694.9694
 -64406900.20748 -50162503.72146  20765530.8364                   20765529.7664
 -20899828.28947 -16262332.65644  22700904.4774                   22700906.0784
    786607.77346    631588.91043  25036799.2814                   25036801.2384
 11  9 26  0 16  0.0000000  0  9G02G29G12G30G25G15G05G26G21
 -83629910.44147 -65141793.92345  22087625.8054                   22087623.5824
 -33811487.18448 -26324760.37246  21626736.4224                   21626736.4384
 -63583429.41047 -49521490.99545  22436675.6094                   22436676.0594
 -25402926.65647 -19771480.92145  22628145.3834                   22628146.8554
 -48365189.46148 -37662419.66746  21819952.0234                   21819954.8014
  -8698113.79347  -6754843.49144  23542289.8364                   23542291.8364
 -64461112.04348 -50204746.68146  20755214.7894                   20755213.8444
 -21090163.22347 -16410645.48344  22664685.2814                   22664685.0824
    623764.78946    504698.28843  25005809.6724                   25005813.4774
 11  9 26  0 16 30.0000000  0  9G02G29G12G30G25G15G05G26G21
 -83688776.93747 -65187663.90245  22076424.2344                   22076421.8134
 -33988710.11747 -26462856.08746  21593011.6024                   21593011.6414
 -63602012.48447 -49535971.35045  22433139.1174                   22433140.2034
 -25508982.12947 -19854121.56844  22607963.7974                   22607964.5474
 -48429416.96948 -37712467.05646  21807729.7814                   21807732.8714
  -8899839.64847  -6912032.27944  23503902.6484                   23503905.4304
 -64514867.46148 -50246633.99746  20744985.7424                   20744984.5204
 -21280167.51647 -16558700.65044  22628527.9144                   22628529.0984
    460970.35946    377845.66043  24974830.8054                   24974834.8134
 11  9 26  0 17  0.0000000  0  9G02G29G12G30G25G15G05G26G21
 -83747497.90247 -65233420.47245  22065250.0554                   22065247.6174
 -34165667.76248 -26600745.07846  21559337.8284                   21559337.3134
 -63620309.12547 -49550228.53445  22429658.2894                   22429658.5274
 -25614416.05547 -19936277.85045  22587900.0944                   22587901.5944
 -48493111.27748 -37762098.98246  21795609.6484                   21795612.0514
  -9101480.12946  -7069154.51244  23465530.5314                   23465533.4064
 -64568168.85948 -50288167.50646  20734842.2584                   20734841.2704
 -21469837.81247 -16706495.55745  22592435.0944                   22592437.0314
    298223.67646    251030.12343  24943861.0634                   24943865.3914
 11  9 26  0 17 30.0000000  0  9G02G29G12G30G25G15G05G26G21
 -83806072.19947 -65279062.73845  22054103.0234                   22054100.7894
 -34342356.98848 -26738424.91946  21525714.8204                   21525714.7854
 -63638321.48847 -49564264.16245  22426229.8054                   22426230.9694
 -25719228.08647 -20017949.54944  22567954.8984                   22567956.2034
 -48556273.62548 -37811316.38346  21783589.8594                   21783592.3324
  -9303031.34847  -7226207.18844  23427177.4774                   23427179.5824
 -64621017.55148 -50329348.27246  20724785.8594                   20724784.3554
 -21659169.25047 -16854026.44944  22556406.1024                   22556406.8244
    135525.34846    124252.27443  24912900.9844                   24912904.6724
 11  9 26  0 18  0.0000000  0  9G02G29G12G30G25G15G05G26G21
 -83864498.34847 -65324589.58245  22042985.5704                   22042982.8484
 -34518773.81648 -26875892.49746  21492143.9064                   21492143.2034
 -63656051.00047 -49578079.41645  22422856.0314                   22422857.6804
 -25823417.50047 -20099136.11245  22548128.5864                   22548129.4734
 -48618904.59848 -37860119.72946  21771671.5314                   21771674.0594
  -9504488.89847  -7383186.89644  23388841.3524                   23388844.0394
 -64673414.41048 -50370176.95646  20714814.5314                   20714814.0744
 -21848156.96947 -17001289.46945  22520442.8134                   22520444.1134
    -27123.64846     -2487.11543  24881950.0784                   24881953.5554
 11  9 26  0 18 30.0000000  0  9G02G29G12G30G25G15G05G26G21
 -83922779.02047 -65370003.06245  22031895.2584                   22031892.0634
 -34694918.85548 -27013148.29246  21458624.4144                   21458623.8204
 -63673503.21147 -49591678.60345  22419535.5554                   22419536.2704
 -25926987.71147 -20179840.16545  22528419.6804                   22528420.5944
 -48681009.13348 -37908512.86546  21759853.2114                   21759856.2074
  -9705852.27746  -7540093.22944  23350522.2504                   23350525.1994
 -64725364.16848 -50410657.26246  20704929.0004                   20704928.2194
 -22036799.67247 -17148283.65645  22484545.7734                   22484546.9574
   -189726.49646   -129190.55043  24851007.1334                   24851011.1454
 11  9 26  0 19  0.0000000  0  9G02G29G12G30G25G15G05G26G21
 -83980914.37147 -65415303.29945  22020831.8594                   22020829.5784
 -34870790.53948 -27150191.09346  21425157.5394                   21425156.2274
 -63690681.85947 -49605064.61145  22416266.1954                   22416267.3524
 -26029940.45347 -20260063.07445  22508828.2274                   22508829.8634
 -48742590.33648 -37956498.22646  21748134.8134                   21748137.4454
  -9907119.34847  -7696924.50344  23312222.5314                   23312223.9494
 -64776870.44948 -50450791.98246  20695127.7584                   20695126.5124
 -22225094.96947 -17295007.16144  22448714.3444                   22448714.1024
   -352284.81246   -255859.26943  24820074.1644                   24820077.4964
 11  9 26  0 19 30.0000000  0  9G02G29G12G30G25G15G05G26G21
 -82463476.27047 -64232883.95845  22309590.6254                   22309588.0944
 -33470954.64548 -26059409.80646  21691537.2814                   21691536.0514
 -62132164.38347 -48390635.46745  22712842.3914                   22712843.1524
 -24556847.04747 -19112198.06045  22789149.4454                   22789149.7114
 -47228222.27048 -36776471.13946  22036309.6804                   22036312.0204
  -8532854.57847  -6626068.63444  23573736.4614                   23573738.9264
 -63252507.57848 -49262976.72946  20985204.3204                   20985203.4654
 -20837606.43747 -16213847.14244  22712744.2344                   22712744.2734
   1060632.62546    845115.39543  25088943.0704                   25088946.0004
 11  9 26  0 20  0.0000000  0  9G02G29G12G30G25G15G05G26G21
 -82521314.31647 -64277952.51645  22298584.4384                   22298582.0354
 -33646266.45348 -26196016.32246  21658176.2734                   21658175.3244
 -62148800.28147 -48403598.56645  22709677.0784                   22709678.0864
 -24658561.05147 -19191455.69344  22769792.9844                   22769793.9804
 -47288757.08248 -36823641.12746  22024789.8524                   22024793.1564
  -8733914.16447  -6782738.23844  23535476.6024                   23535477.5634
 -63303126.84048 -49302420.29046  20975571.7034                   20975570.6994
 -21025188.94147 -16360015.20445  22677048.2894                   22677048.4384
    898168.62146    718520.10643  25058027.0314                   25058030.0664
 11  9 26  0 20 30.0000000  0  9G02G29G12G30G25G15G05G26G21
 -82579005.03547 -64322906.31645  22287606.4614                   22287603.3324
 -33821296.62948 -26332403.39446  21624868.8524                   21624867.9144
 -62165170.34047 -48416354.50045  22706561.2814                   22706562.7584
 -24759658.46547 -19270232.88645  22750554.8754                   22750556.3164
 -47348773.64148 -36870407.28346  22013369.4924                   22013372.2974
  -8934867.12547  -6939324.73944  23497235.3444                   23497238.1414
 -63353308.07848 -49341522.52946  20966022.7974                   20966021.4414
 -21212411.03147 -16505902.41744  22641421.3674                   22641421.1914
    735749.18446    591959.66843  25027119.4144                   25027123.0354
 11  9 26  0 21  0.0000000  0  9G02G29G12G30G25G15G05G26G21
 -82636547.71147 -64367744.72245  22276656.1334                   22276653.4734
 -33996042.13748 -26468568.65446  21591616.5394                   21591615.2074
 -62181277.57447 -48428905.66245  22703496.8984                   22703497.0744
 -24860139.61747 -19348529.86945  22731434.1484                   22731434.9614
 -47408273.62148 -36916770.91546  22002046.9384                   22002050.3094
  -9135709.96547  -7095825.47144  23459016.8444                   23459017.4804
 -63403052.49248 -49380284.40046  20956556.4384                   20956555.1724
 -21399268.68747 -16651505.65745  22605862.6564                   22605863.7344
    573374.64846    465434.13743  24996219.5704                   24996223.3714
 11  9 26  0 21 30.0000000  0  9G02G29G12G30G25G15G05G26G21
 -82693944.56247 -64412469.48145  22265734.1024                   22265730.9454
 -34170502.57448 -26604511.79346  21558417.7424                   21558416.6294
 -62197127.39547 -48441256.22145  22700480.6564                   22700481.1914
 -24960007.98047 -19426349.35245  22712429.7504                   22712431.8054
 -47467261.82848 -36962735.75546  21990821.5864                   21990824.3754
  -9336442.06247  -7252239.86944  23420818.9064                   23420819.2384
 -63452365.41048 -49418710.04146  20947172.4534                   20947171.2304
 -21585760.68447 -16796823.97745  22570375.0004                   22570375.7814
    411041.85546    338941.17543  24965329.3204                   24965332.6764
 11  9 26  0 22  0.0000000  0  9G02G29G12G30G25G15G05G26G21
 -82751191.60247 -64457077.52445  22254840.4384                   22254837.8324
 -34344672.86748 -26740228.83046  21525274.1884                   21525273.0514
 -62212718.78947 -48453405.42345  22697513.2114                   22697514.3594
 -25059260.79747 -19503689.16145  22693542.5234                   22693543.4144
 -47525736.84848 -37008300.72046  21979694.4614                   21979696.8714
  -9537056.29347  -7408562.43544  23382642.3134                   23382644.6844
 -63501245.30948 -49456798.27346  20937870.9924                   20937869.4654
 -21771879.60947 -16941851.58945  22534957.2664                   22534956.9654
    248754.24246    212483.40543  24934447.4924                   24934450.7274
 11  9 26  0 22 30.0000000  0  9G02G29G12G30G25G15G05G26G21
 -82808292.65247 -64501571.81445  22243973.9844                   22243971.5044
 -34518554.39848 -26875720.85946  21492185.2504                   21492184.9264
 -62228059.38747 -48465359.20445  22694594.6024                   22694595.3674
 -25157903.08247 -19580553.27545  22674771.2974                   22674772.7274
 -47583705.14148 -37053470.83146  21968663.6024                   21968666.2624
  -9737554.16447  -7564794.37444  23344488.6174                   23344490.5164
 -63549698.75848 -49494554.20246  20928650.7034                   20928649.5084
 -21957625.96947 -17086588.87145  22499610.6334                   22499612.0044
     86506.87146     86057.08043  24903571.9694                   24903574.8984
 11  9 26  0 23  0.0000000  0  9G02G29G12G30G25G15G05G26G21
 -82865246.10947 -64545951.07745  22233136.3524                   22233133.5984
 -34692143.52048 -27010985.03746  21459152.0234                   21459151.8204
 -62243150.76247 -48477118.79745  22691722.7734                   22691724.0124
 -25255934.41447 -19656941.29844  22656116.6094                   22656117.2934
 -47641167.46148 -37098246.69046  21957728.5784                   21957731.1844
  -9937931.12947  -7720932.04044  23306358.2584                   23306359.7274
 -63597726.34448 -49531978.31446  20919511.2814                   20919510.2074
 -22142994.48847 -17231031.76145  22464336.1174                   22464337.7154
    -75698.96546    -40336.97743  24872705.6564                   24872708.1724
 11  9 26  0 23 30.0000000  0  9G02G29G12G30G25G15G05G26G21
 -82922053.16447 -64590216.29445  22222326.2114                   22222323.7934
 -34865439.13348 -27146020.51546  21426175.1094                   21426175.2114
 -62257997.52747 -48488687.77145  22688897.3364                   22688898.5474
 -25353357.39147 -19732855.27445  22637577.9064                   22637578.7584
 -47698127.88348 -37142631.45346  21946889.5474                   21946892.1844
 -10138185.71947  -7876974.40244  23268250.6254                   23268251.5474
 -63645332.06648 -49569073.69346  20910452.3524                   20910451.4844
 -22327983.62147 -17375178.98444  22429134.3674                   22429134.2814
   -237865.69946   -166700.46643  24841845.9844                   24841849.0314
 11  9 26  0 24  0.0000000  0  9G02G29G12G30G25G15G05G26G21
 -82978712.83247 -64634366.63345  22211544.3834                   22211541.5944
 -35038438.46548 -27280825.12146  21393254.2194                   21393254.2274
 -62272601.80947 -48500067.80445  22686119.0314                   22686119.4384
 -25450172.29747 -19808295.42745  22619154.6724                   22619155.7154
 -47754587.89148 -37186626.28046  21936145.7344                   21936148.1804
 -10338314.23447  -8032918.49844  23230167.4144                   23230169.6564
 -63692517.31248 -49605841.43046  20901473.4224                   20901472.1994
 -22512588.25447 -17519026.61445  22394005.1724                   22394005.3284
   -399992.63746   -293032.93843  24810994.8134                   24810998.2114
 11  9 26  0 24 30.0000000  0  9G02G29G12G30G25G15G05G26G21
 -83035222.81647 -64678400.35345  22200790.7194                   22200788.1684
 -35211136.72348 -27415395.13046  21360390.7584                   21360390.3094
 -62286964.24647 -48511259.37245  22683385.4774                   22683386.3754
 -25546378.01247 -19883260.85944  22600847.2424                   22600848.3244
 -47810547.76248 -37230231.40946  21925497.0164                   21925499.0744
 -10538311.38747  -8188760.22644  23192109.1954                   23192110.5164
 -63739282.67248 -49642281.97446  20892574.1414                   20892572.5274
 -22696802.90247 -17662570.37645  22358950.2734                   22358950.8324
   -562078.29746   -419333.25543  24780149.2584                   24780152.7544
 11  9 26  0 25  0.0000000  0  9G02G29G12G30G25G15G05G26G21
 -83091584.12147 -64722318.21345  22190065.2114                   22190063.2734
 -35383532.81648 -27549729.67746  21327584.5004                   21327584.6914
 -62301089.93047 -48522266.47545  22680697.6334                   22680697.9264
 -25641976.82447 -19957753.42345  22582654.9384                   22582656.5274
 -47866011.00048 -37273449.54746  21914943.0004                   21914945.4614
 -10738175.02347  -8344497.98344  23154076.6254                   23154078.0394
 -63785631.07048 -49678397.61046  20883754.4224                   20883753.0434
 -22880625.01247 -17805808.25445  22323969.2424                   22323969.9454
   -724124.03146   -545602.50743  24749313.8754                   24749316.8444
 11  9 26  0 25 30.0000000  0  9G02G29G12G30G25G15G05G26G21
 -83147797.42247 -64766120.75645  22179368.4694                   22179366.1884
 -35555625.10548 -27683827.50046  21294836.6094                   21294836.2584
 -62314982.02747 -48533091.54145  22678054.3054                   22678054.4534
 -25736970.66847 -20031774.57644  22564578.5084                   22564579.4654
 -47920980.80548 -37316283.20146  21904482.2034                   21904484.6994
 -10937903.00847  -8500129.96244  23116069.1174                   23116071.0744
 -63831566.49648 -49714191.45046  20875013.1484                   20875011.9534
 -23064051.79747 -17948738.07345  22289064.7424                   22289064.5164
   -886131.39546   -671841.74743  24718484.0234                   24718487.4804
 11  9 26  0 26  0.0000000  0  9G02G29G12G30G25G15G05G26G21
 -83203863.91047 -64809808.89745  22168699.4454                   22168697.0084
 -35727413.66848 -27817688.64546  21262146.4454                   21262145.6094
 -62328646.05147 -48543738.91745  22675453.9924                   22675454.2624
 -25831362.97747 -20105326.99145  22546615.9694                   22546617.2814
 -47975462.03548 -37358736.14046  21894114.9614                   21894117.0164
 -11137494.48847  -8655655.62145  23078088.3284                   23078089.2934
 -63877093.53148 -49749667.06446  20866349.6804                   20866348.1134
 -23247081.98847 -18091358.86745  22254234.8444                   22254235.7544
  -1048103.25446   -798053.37343  24687662.6804                   24687665.2304
 11  9 26  0 26 30.0000000  0  9G02G29G12G30G25G15G05G26G21
 -83259781.36347 -64853380.91245  22158058.0084                   22158056.6684
 -35898893.97748 -27951309.60446  21229514.8364                   21229513.6604
 -62342083.18047 -48554209.43945  22672896.9694                   22672898.2664
 -25925152.52047 -20178409.75745  22528768.6334                   22528769.7304
 -48029454.68748 -37400808.37946  21883839.9924                   21883842.8284
 -11336944.51647  -8811071.07045  23040133.7664                   23040135.1644
 -63922211.68448 -49784824.05846  20857763.5864                   20857762.5944
 -23429709.62547 -18233665.99145  22219482.1954                   22219482.0904
  -1210037.53546   -924235.67643  24656846.5234                   24656850.0004
 11  9 26  0 27  0.0000000  0  9G02G29G12G30G25G15G05G26G21
 -81740129.24247 -63669236.39145  22447238.5234                   22447236.2464
 -34494638.79748 -26857084.73446  21496735.9064                   21496735.2074
 -60779876.70747 -47336905.76245  22970175.1334                   22970176.0784
 -24442918.62947 -19023422.26444  22810828.3284                   22810829.2664
 -46507540.60248 -36214901.34146  22173451.1094                   22173453.9574
  -9960824.25847  -7738769.38744  23302000.6484                   23302002.4344
 -62391503.17248 -48592064.15746  21149047.8284                   21149046.8364
 -22036506.17647 -17148052.77945  22484599.3364                   22484599.2234
    203489.41046    177214.03143  24925832.5864                   24925834.6484
 11  9 26  0 27 30.0000000  0  9G02G29G12G30G25G15G05G26G21
 -81795750.30147 -63712577.46145  22436654.1954                   22436651.9384
 -34665496.97748 -26990220.90746  21464222.4534                   21464221.8244
 -60792870.42647 -47347030.78245  22967702.4144                   22967703.3484
 -24535508.37547 -19095570.12345  22793209.1024                   22793210.7544
 -46560565.51248 -36256219.48446  22163360.7424                   22163363.3244
 -10159983.68747  -7893958.36545  23264101.7344                   23264103.3714
 -62435813.27748 -48626591.48946  21140615.8754                   21140614.6804
 -22218319.56247 -17289725.41845  22450001.1024                   22450001.7974
     41626.65246     51087.36643  24895029.9614                   24895033.0274
 11  9 26  0 28  0.0000000  0  9G02G29G12G30G25G15G05G26G21
 -81851221.41047 -63755801.66845  22426098.8524                   22426096.1724
 -34836039.43448 -27123111.05146  21431768.9614                   21431768.5514
 -60805645.99647 -47356985.85645  22965271.2504                   22965272.6804
 -24627498.93447 -19167251.05645  22775704.2034                   22775704.8404
 -46613109.17248 -36297162.64746  22153362.1414                   22153364.8014
 -10358991.84447  -8049029.48144  23226231.8524                   23226232.1174
 -62479721.81248 -48660805.90646  21132260.8364                   21132259.2114
 -22399719.42247 -17431075.83445  22415482.5004                   22415482.2584
   -120200.11346    -75011.21643  24864235.0634                   24864237.4494
 11  9 26  0 28 30.0000000  0  9G02G29G12G30G25G15G05G26G21
 -81906545.75447 -63798911.51945  22415570.7034                   22415568.3984
 -35006267.33248 -27255756.10746  21399375.7504                   21399375.3524
 -60818209.85247 -47366775.91345  22962880.7424                   22962881.6024
 -24718894.98447 -19238468.72445  22758311.8204                   22758313.8794
 -46665177.52048 -36337735.41246  22143453.8204                   22143456.6564
 -10557849.56247  -8203983.35445  23188390.3444                   23188391.5824
 -62523234.13348 -48694711.57746  21123980.4064                   21123978.9414
 -22580705.50047 -17572103.83745  22381041.5864                   22381041.2384
   -281994.35546   -201084.47243  24833446.8284                   24833449.2624
 11  9 26  0 29  0.0000000  0  9G02G29G12G30G25G15G05G26G21
 -81961717.94147 -63841902.82045  22405072.0864                   22405068.8714
 -35176173.16848 -27388150.19846  21367043.7344                   21367042.8014
 -60830559.45347 -47376399.04045  22960530.1804                   22960531.4224
 -24809692.54747 -19309220.07545  22741033.3204                   22741035.0634
 -46716767.74648 -36377935.63546  22133636.5634                   22133639.0824
 -10756548.09047  -8358813.20345  23150578.6954                   23150580.0314
 -62566348.19148 -48728306.90946  21115775.9614                   21115774.7074
 -22761268.89847 -17712802.45745  22346681.5634                   22346681.6764
   -443751.26646   -327128.60743  24802665.5084                   24802666.8754
 11  9 26  0 29 30.0000000  0  9G02G29G12G30G25G15G05G26G21
 -82016740.89547 -63884777.81845  22394601.3834                   22394598.3054
 -35345757.64847 -27520293.87046  21334772.7894                   21334772.5474
 -60842701.65647 -47385860.55845  22958219.5314                   22958221.0634
 -24899896.39847 -19379508.77245  22723868.0634                   22723869.6684
 -46767885.79347 -36417767.91546  22123909.3754                   22123911.9534
 -10955087.81647  -8513519.31644  23112797.5394                   23112799.0394
 -62609069.42248 -48761596.13546  21107646.5864                   21107645.0164
 -22941409.48447 -17853171.62545  22312402.2344                   22312401.9774
   -605474.82846   -453146.81843  24771891.0084                   24771891.6054
 11  9 26  0 30  0.0000000  0  9G02G29G12G30G25G15G05G26G21
 -82071615.18048 -63927536.96345  22384159.2664                   22384156.6294
 -35515019.39548 -27652186.09846  21302563.0004                   21302562.9574
 -60854640.13747 -47395163.32045  22955948.1954                   22955949.0744
 -24989508.55147 -19449336.43945  22706815.7344                   22706817.4574
 -46818535.03547 -36457234.90446  22114270.6484                   22114272.9804
 -11153466.39147  -8668099.84345  23075048.2344                   23075048.4144
 -62651400.81248 -48794581.58046  21099590.7584                   21099590.0354
 -23121124.46547 -17993209.15545  22278203.0634                   22278203.2194
   -767166.27746   -579140.03043  24741121.8444                   24741122.7114
 11  9 26  0 30 30.0000000  0  9G02G29G12G30G25G15G05G26G21
 -82126348.52747 -63970186.29345  22373743.9694                   22373741.2234
 -35683964.57447 -27783831.63646  21270414.2344                   21270413.6954
 -60866386.62547 -47404316.47645  22953712.6094                   22953714.2274
 -25078538.86347 -19518710.69745  22689873.8134                   22689875.4734
 -46868726.36347 -36496345.05446  22104720.2034                   22104722.0554
 -11351689.09047  -8822558.91444  23037326.7814                   23037328.2584
 -62693353.27748 -48827271.78746  21091608.0634                   21091606.4384
 -23300418.55947 -18132918.75145  22244084.5234                   22244084.7664
   -928834.53546   -705115.13943  24710357.1564                   24710357.9654
 11  9 26  0 31  0.0000000  0 10G02G29G12G30G25G15G18G05G26G21
 -82180943.66847 -64012727.93145  22363354.1334                   22363352.0664
 -35852593.44948 -27915230.70346  21238325.1254                   21238324.9884
 -60877947.07447 -47413324.69145  22951513.0004                   22951513.9104
 -25166991.53147 -19587634.83744  22673042.1174                   22673042.8364
 -46918465.27047 -36535102.69046  22095254.7734                   22095257.6174
 -11549755.80147  -8976896.42644  22999635.8364                   22999636.5124
                                  24616361.461
 -62734932.22748 -48859670.91746  21083695.3284                   21083694.0554
 -23479291.08647 -18272299.80645  22210045.8984                   22210046.7934
  -1090482.79346   -831074.60143  24679595.8524                   24679597.2894
 11  9 26  0 31 30.0000000  0 10G02G29G12G30G25G15G18G05G26G21
 -82235400.21947 -64055161.58245  22352991.6724                   22352988.7234
 -36020903.19148 -28046381.07946  21206296.5164                   21206296.3134
 -60889324.19147 -47422190.03045  22949348.5704                   22949349.3834
 -25254867.66047 -19656109.74144  22656319.6414                   22656321.0864
 -46967753.91047 -36573509.44746  22085875.5004                   22085877.9384
 -11747663.11347  -9131109.78344  22961975.2424                   22961975.6954
   5462859.72315                  24579643.852
 -62776139.37948 -48891780.36346  21075854.0084                   21075852.7034
 -23657738.21547 -18411349.42445  22176088.6094                   22176088.4494
  -1252111.11346   -957018.51543  24648839.4304                   24648840.5864
 11  9 26  0 32  0.0000000  0 10G02G29G12G30G25G15G18G05G26G21
 -82289713.07047 -64097483.25245  22342656.2424                   22342653.7894
 -36188887.18448 -28177277.63746  21174330.3594                   21174329.5904
 -60900516.21547 -47430911.14445  22947218.6254                   22947218.8634
 -25342164.00447 -19724132.85345  22639707.5394                   22639708.9184
 -47016590.39848 -36611563.89446  22076582.4844                   22076585.1024
 -11945403.33647  -9285192.91145  22924346.3284                   22924346.8954
   5270107.488 5                  24542965.445
 -62816973.12548 -48923598.83946  21068083.4304                   21068082.0354
 -23835751.56247 -18550061.00445  22142213.7034                   22142213.9844
  -1413715.66446  -1082943.97343  24618086.5944                   24618087.6914
 11  9 26  0 32 30.0000000  0 10G02G29G12G30G25G15G18G05G26G21
 -82343883.29347 -64139693.75345  22332347.6094                   22332345.4734
 -36356544.08248 -28307919.32946  21142426.2344                   21142425.8754
 -60911527.50047 -47439491.40245  22945122.8674                   22945124.0044
 -25428883.44147 -19791706.43245  22623205.3054                   22623206.9694
 -47064978.54748 -36649268.99346  22067374.5164                   22067376.9024
 -12142974.51247  -9439144.30045  22886749.4614                   22886750.4064
   5077556.73446   4257138.98452  24506323.7664                   24506324.1804
 -62857436.71548 -48955128.87846  21060383.9774                   21060382.3134
 -24013329.20347 -18688433.09545  22108421.5784                   22108422.1484
  -1575297.82046  -1208852.02743  24587338.6644                   24587339.9574
 11  9 26  0 33  0.0000000  0 10G02G29G12G30G25G15G18G05G26G21
 -82397911.32447 -64181793.45845  22322067.1724                   22322064.4614
 -36523872.40648 -28438304.98146  21110584.7194                   21110583.7544
 -60922361.94147 -47447933.87045  22943061.3834                   22943061.8794
 -25515028.23047 -19858832.21745  22606811.8754                   22606813.8204
 -47112921.88748 -36686627.45845  22058251.0164                   22058253.1914
 -12340374.29347  -9592962.16845  22849186.2974                   22849186.0474
   4885207.75046   4107256.77342  24469720.6334                   24469722.7584
 -62897533.27048 -48986372.92046  21052753.2894                   21052751.9964
 -24190468.12947 -18826463.33745  22074713.0944                   22074713.6684
  -1736858.88346  -1334743.59943  24556594.5004                   24556596.5044
 11  9 26  0 33 30.0000000  0 10G02G29G12G30G25G15G18G05G26G21
 -82451791.37547 -64223777.88545  22311813.9144                   22311810.9384
 -36690864.21948 -28568428.41546  21078807.5164                   21078806.5824
 -60933017.32447 -47456236.80745  22941034.1644                   22941034.6484
 -25600594.43747 -19925507.19744  22590529.4384                   22590531.8204
 -47160417.58248 -36723637.12646  22049213.2664                   22049215.7384
 -12537594.39847  -9746640.02345  22811655.8914                   22811657.0474
   4693067.96146   3957537.53942  24433157.2274                   24433160.8634
 -62937260.12548 -49017328.90446  21045193.8914                   21045192.2624
 -24367159.76247 -18964145.03645  22041090.1174                   22041089.6094
  -1898393.92646  -1460614.88343  24525854.8054                   24525856.3014
 11  9 26  0 34  0.0000000  0 10G02G29G12G30G25G15G18G05G26G21
 -82505524.55547 -64265647.85745  22301588.7894                   22301585.8984
 -36857519.01248 -28698289.24546  21047093.6094                   21047093.1454
 -60943498.07847 -47464403.68145  22939040.1334                   22939040.0394
 -25685585.19947 -19991733.76045  22574356.5164                   22574358.3014
 -47207469.90248 -36760301.29246  22040259.1254                   22040261.7974
 -12734632.93047  -9900176.37145  22774160.8054                   22774162.1334
   4501136.59446   3807980.57843  24396633.6254                   24396638.1724
 -62976621.14848 -49047999.80446  21037703.5474                   21037702.1804
 -24543401.94147 -19101476.51445  22007552.2424                   22007552.3244
  -2059904.48446  -1586467.04943  24495120.6804                   24495122.5354
 11  9 26  0 34 30.0000000  0 10G02G29G12G30G25G15G18G05G26G21
 -82559109.69947 -64307402.46845  22291392.2584                   22291389.3364
 -37023833.16048 -28827884.61346  21015445.5234                   21015444.8364
 -60953806.57047 -47472436.31545  22937078.1724                   22937078.5904
 -25770001.12147 -20057512.39544  22558292.5084                   22558294.7464
 -47254080.49648 -36796621.26646  22031389.9694                   22031392.4024
 -12931485.59047 -10053567.89645  22736700.6954                   22736700.8554
   4309415.87546   3658587.98842  24360150.8284                   24360154.7504
 -63015617.68748 -49078386.70646  21030282.4064                   21030281.4104
 -24719190.02347 -19238454.14445  21974101.0234                   21974100.7194
  -2221390.27346  -1712299.95643  24464391.2584                   24464392.7584
 11  9 26  0 35  0.0000000  0 10G02G29G12G30G25G15G18G05G26G21
 -81037128.31247 -63121442.89745  22581014.7584                   22581012.6844
 -35614382.53148 -27729611.32946  21283654.7274                   21283653.5554
 -59388528.81647 -46252739.41845  23234940.0784                   23234941.7464
 -24278424.47347 -18895244.87044  22842130.1804                   22842131.2274
 -45724834.14548 -35605000.75046  22322395.4774                   22322398.2154
 -11552727.19947  -8979210.56345  22999069.5784                   22999069.8984
   5693330.24645   4736962.93042  24623499.6884                   24623504.0124
 -61478834.36348 -47880893.18346  21322722.6804                   21322721.4384
 -23319098.35247 -18147473.53645  22240529.0864                   22240528.8404
   -807430.43446   -610512.87043  24733458.6564                   24733459.9494
 11  9 26  0 35 30.0000000  0 10G02G29G12G30G25G15G18G05G26G21
 -81090424.67647 -63162972.50145  22570873.2584                   22570870.3834
 -35780016.93448 -27858677.05146  21252135.6414                   21252134.7034
 -59398509.72347 -46260516.76745  23233040.7664                   23233042.5474
 -24361703.67647 -18960137.76445  22826282.7344                   22826284.2894
 -45770577.72748 -35640645.13646  22313691.0234                   22313693.7934
 -11749208.48447  -9132312.70545  22961680.7894                   22961680.7704
   5502026.55145   4587895.20742  24587096.3524                   24587100.5044
 -61517117.58248 -47910724.24746  21315437.5474                   21315436.5204
 -23493976.45347 -18283742.08845  22207250.8834                   22207251.3754
   -968876.57846   -736314.76943  24702735.7814                   24702737.0784
 11  9 26  0 36  0.0000000  0 10G02G29G12G30G25G15G18G05G26G21
 -81143572.80947 -63204386.57145  22560759.4454                   22560756.7074
 -35945304.43748 -27987472.43846  21220682.4844                   21220681.4574
 -59408328.08247 -46268167.47145  23231172.8674                   23231174.0514
 -24444413.65647 -19024587.07444  22810543.3284                   22810544.8164
 -45815888.52047 -35675952.28446  22305068.4144                   22305071.0314
 -11945495.77747  -9285263.65845  22924327.7664                   22924328.3834
   5310936.73045   4438994.10542  24550733.8594                   24550737.1844
 -61555044.68448 -47940277.81646  21308219.7504                   21308219.0744
 -23668390.86747 -18419649.33945  22174061.2894                   22174060.6564
  -1130299.97746   -862098.99943  24672018.0704                   24672019.7814
 11  9 26  0 36 30.0000000  0 10G02G29G12G30G25G15G18G05G26G21
 -81196572.11747 -63245684.70145  22550673.8444                   22550671.5004
 -36110242.69148 -28115995.69446  21189295.5474                   21189294.5314
 -59417986.80547 -46275693.80945  23229334.9694                   23229335.8874
 -24526555.88747 -19088594.02145  22794912.6334                   22794913.8204
 -45860769.09847 -35710924.19446  22296527.9614                   22296530.9144
 -12141585.80547  -9438060.91445  22887013.0234                   22887013.8164
   5120062.27345   4290260.82842  24514411.3524                   24514414.9884
 -61592617.76648 -47969555.52146  21301070.3134                   21301069.6484
 -23842338.36347 -18555192.74645  22140959.7664                   22140960.0084
  -1291701.37146   -987866.05543  24641303.9304                   24641305.4884
 11  9 26  0 37  0.0000000  0 10G02G29G12G30G25G15G18G05G26G21
 -81249426.70747 -63286870.04645  22540615.9694                   22540612.8524
 -36274833.45748 -28244248.18846  21157974.7814                   21157974.2584
 -59427493.32447 -46283101.56545  23227526.0234                   23227527.7384
 -24608136.18747 -19152163.10644  22779388.7114                   22779389.3794
 -45905226.37547 -35745566.24846  22288068.4384                   22288070.6604
 -12337479.64847  -9590705.32145  22849735.4454                   22849736.0274
   4929400.24646   4141693.18043  24478130.4844                   24478133.2114
 -61629843.53548 -47998562.59346  21293986.6564                   21293984.9494
 -24015818.97747 -18690372.34845  22107947.5084                   22107947.0124
  -1453084.94146  -1113619.29543  24610593.3984                   24610594.7974
 11  9 26  0 37 30.0000000  0 10G02G29G12G30G25G15G18G05G26G21
 -81302133.94147 -63327940.58745  22530585.7344                   22530583.1844
 -36439072.42248 -28372226.53646  21126721.4694                   21126720.7974
 -59436848.52047 -46290391.35744  23225745.8524                   23225746.8164
 -24689154.42247 -19215294.18445  22763971.1334                   22763972.4304
 -45949261.09047 -35779879.03146  22279689.2504                   22279691.0434
 -12533172.22747  -9743192.87445  22812496.2974                   22812496.9184
   4738953.08246   3993292.91442  24441889.0314                   24441892.1604
 -61666722.21948 -48027299.20246  21286968.8834                   21286967.4614
 -24188827.94147 -18825184.41245  22075025.0554                   22075024.6134
  -1614449.13746  -1239357.32843  24579887.2424                   24579887.8794
 11  9 26  0 38  0.0000000  0 10G02G29G12G30G25G15G18G05G26G21
 -81354691.65247 -63368894.62545  22520584.3284                   22520581.8484
 -36602955.12148 -28499927.27846  21095535.8754                   21095535.1374
 -59446053.59047 -46297564.19945  23223994.0554                   23223995.1524
 -24769610.09447 -19277986.94145  22748661.0394                   22748662.3204
 -45992874.09447 -35813863.19746  22271389.2424                   22271392.4654
 -12728658.21147  -9895519.46145  22775296.8524                   22775297.0944
   4548724.74646   3845063.18442  24405689.3754                   24405691.9384
 -61703254.28148 -48055765.72446  21280017.1024                   21280015.9654
 -24361359.48447 -18959624.50245  22042192.6334                   22042192.2304
  -1775792.45346  -1365079.09243  24549184.8054                   24549185.7304
 11  9 26  0 38 30.0000000  0 10G02G29G12G30G25G15G18G05G26G21
 -81407103.34447 -63409734.88245  22510610.6024                   22510607.9224
 -36766483.00848 -28627351.53246  21064417.2814                   21064416.6484
 -59455115.19547 -46304625.26445  23222269.6724                   23222270.3754
 -24849508.94147 -19340245.79344  22733457.0004                   22733457.5514
 -46036071.91847 -35847523.85946  22263169.2424                   22263171.9454
 -12923938.55147 -10047685.80645  22738135.8524                   22738136.5124
   4358712.07846   3697001.50442  24369530.3204                   24369533.5904
 -61739445.98448 -48083967.04146  21273129.7664                   21273129.0864
 -24533414.18747 -19093692.97145  22009451.9304                   22009451.7894
  -1937119.04346  -1490787.81043  24518484.5004                   24518485.0204
 11  9 26  0 39  0.0000000  0 10G02G29G12G30G25G15G18G05G26G21
 -81459366.70347 -63450459.55545  22500665.6414                   22500662.5784
 -36929652.02047 -28754496.14246  21033366.8204                   21033366.3754
 -59464034.55147 -46311575.48145  23220572.5394                   23220573.1764
 -24928850.72747 -19402070.55944  22718358.6024                   22718359.5664
 -46078855.37147 -35880861.63746  22255027.5314                   22255030.6454
 -13119008.06247 -10199687.87445  22701015.3594                   22701015.7774
   4168918.92646   3549110.83642  24333414.4454                   24333417.6684
 -61775297.92648 -48111903.59446  21266307.3914                   21266306.0904
 -24704986.60247 -19227385.67445  21976802.7974                   21976802.5274
  -2098427.58646  -1616482.50743  24487788.2034                   24487788.4614
 11  9 26  0 39 30.0000000  0 10G02G29G12G30G25G15G18G05G26G21
 -81511482.58247 -63491069.30845  22490748.2424                   22490745.2034
 -37092460.98847 -28881360.18146  21002385.4144                   21002384.8524
 -59472816.02747 -46318418.22445  23218901.2734                   23218902.6884
 -25007638.69147 -19463463.78545  22703365.7194                   22703366.9654
 -46121228.69147 -35913879.83545  22246964.5314                   22246967.1884
 -13313865.07847 -10351524.37345  22663934.7974                   22663935.4654
   3979344.55946   3401390.71643  24297339.8914                   24297343.6524
 -61810813.91448 -48139578.36746  21259549.0944                   21259548.1914
 -24876074.77747 -19360701.03345  21944246.0634                   21944244.8094
  -2259719.65646  -1742164.39543  24457095.1334                   24457095.3984
 11  9 26  0 40  0.0000000  0 10G02G29G12G30G25G15G18G05G26G21
 -81563450.74247 -63531563.96845  22480858.8834                   22480856.7074
 -37254907.35247 -29007941.68146  20971472.8524                   20971472.1024
 -59481462.69547 -46325155.95045  23217255.8834                   23217257.0314
 -25085874.46947 -19524426.73244  22688478.3834                   22688479.1724
 -46163194.57447 -35946580.55345  22238978.5704                   22238981.5164
 -13508506.28147 -10503192.69945  22626896.3444                   22626896.3094
   3789990.44146   3253842.27643  24261306.7274                   24261309.4924
 -61845996.33648 -48166993.22246  21252853.7664                   21252852.6954
 -25046675.08247 -19493636.22545  21911781.2734                   21911780.8364
  -2420995.64146  -1867833.77043  24426405.3284                   24426405.2384
 11  9 26  0 40 30.0000000  0 10G02G29G12G30G25G15G18G05G26G21
 -81615271.29747 -63571943.59145  22470997.6884                   22470994.9494
 -37416989.49248 -29134239.36746  20940629.6884                   20940628.7114
 -59489977.73447 -46331791.10045  23215635.6644                   23215637.0044
 -25163560.41847 -19584961.24244  22673694.3914                   22673696.0784
 -46204756.25447 -35978966.30245  22231069.4844                   22231072.4694
 -13702929.21147 -10654690.95645  22589898.3984                   22589898.8134
   3600857.24646   3106465.90643  24225314.8914                   24225318.4574
 -61880847.88748 -48194150.25046  21246221.8134                   21246220.8914
 -25216784.81647 -19626189.16445  21879410.7664                   21879410.3834
  -2582256.20346  -1993491.11543  24395718.2114                   24395718.6374
 11  9 26  0 41  0.0000000  0 10G02G29G12G30G25G15G18G05G26G21
 -81666941.23447 -63612205.82745  22461165.0704                   22461162.0704
 -37578702.38348 -29260249.33146  20909856.9774                   20909855.2464
 -59498361.91447 -46338324.27944  23214039.4774                   23214040.9734
 -25240695.82447 -19645066.73545  22659016.8984                   22659018.7384
 -46245914.07447 -36011037.35245  22223237.0944                   22223240.3134
 -13897127.94547 -10806014.54445  22552943.3364                   22552943.6724
   3411948.78146   2959264.73543  24189367.0474                   24189370.8284
 -61915368.71548 -48221049.57246  21239653.0634                   21239651.1644
 -25386397.94947 -19758355.16445  21847134.3984                   21847133.7274
  -2743498.93446  -2119134.60443  24365034.7734                   24365035.7304
 11  9 26  0 41 30.0000000  0 10G02G29G12G30G25G15G18G05G26G21
 -81718461.00847 -63652351.07445  22451361.2664                   22451358.3754
 -37740044.73848 -29385970.57646  20879154.0234                   20879153.0394
 -59506618.84047 -46344758.32244  23212469.3054                   23212469.9264
 -25317283.66847 -19704745.55844  22644441.1174                   22644442.7074
 -46286671.93047 -36042796.74145  22215481.2504                   22215484.4414
 -14091100.37547 -10957161.77345  22516031.7034                   22516031.9024
   3223265.34846   2812238.93843  24153461.3674                   24153465.0634
 -61949562.07448 -48247693.72546  21233145.8754                   21233144.3954
 -25555512.39547 -19890132.55745  21814952.8754                   21814952.3054
  -2904725.96946  -2244765.85443  24334353.5634                   24334355.0634
 11  9 26  0 42  0.0000000  0 10G02G29G12G30G25G15G18G05G26G21
 -81769832.21147 -63692380.53945  22441585.7114                   22441583.5784
 -37901015.80147 -29511402.49946  20848522.0474                   20848521.3364
 -59514753.70347 -46351097.24744  23210921.0944                   23210922.5904
 -25393327.27047 -19764000.29244  22629971.1724                   22629973.4454
 -46327034.10947 -36074247.80945  22207801.1644                   22207803.9264
 -14284845.26247 -11108131.70245  22479163.9304                   22479163.6094
   3034806.00446   2665387.70043  24117598.8054                   24117602.6644
 -61983431.81648 -48274085.72646  21226701.0234                   21226699.5274
 -25724126.05547 -20021519.74145  21782866.8134                   21782866.6454
  -3065938.41046  -2370385.90243  24303676.3914                   24303677.1254
 11  9 26  0 42 30.0000000  0 10G02G29G12G30G25G15G18G05G26G21
 -80245631.31647 -62504691.48545  22731631.2504                   22731628.9304
 -36486186.66048 -28408938.14746  21117755.2114                   21117754.4494
 -57947347.98847 -45129742.18744  23509188.5234                   23509189.3484
 -23893404.93047 -18595229.62244  22915396.7344                   22915398.6414
 -44791581.04747 -34877790.90145  22499987.6564                   22499991.3364
 -12902931.79347 -10031315.89445  22742132.1254                   22742132.9264
   4421999.52046   3746317.97543  24381573.1094                   24381576.4694
 -60441558.33248 -47072625.85646  21520109.6254                   21520108.3284
 -24316809.12147 -18924909.06145  22050670.5084                   22050669.9104
  -1651711.00846  -1268390.40643  24572794.4144                   24572796.0394
 11  9 26  0 43  0.0000000  0 10G02G29G12G30G25G15G18G05G26G21
 -80296702.07447 -62544486.87145  22721913.3914                   22721910.3444
 -36646406.26647 -28533784.52946  21087266.7034                   21087265.7584
 -57955245.77747 -45135896.42544  23507685.5944                   23507687.5204
 -23968364.29747 -18653639.50244  22901132.7664                   22901134.0044
 -44831158.90247 -34908630.80945  22492456.3834                   22492459.9024
 -13096210.10247 -10181922.26845  22705352.9534                   22705352.9184
   4233994.00446   3599820.42543  24345796.9384                   24345799.7894
 -60474786.85948 -47098518.18446  21513786.1334                   21513784.9224
 -24484409.91447 -19055506.98445  22018776.7664                   22018776.0204
  -1812894.89146  -1393988.12943  24542122.1724                   24542124.0554
 11  9 26  0 43 30.0000000  0 10G02G29G12G30G25G15G18G05G26G21
 -80347624.11747 -62584166.33345  22712222.8204                   22712219.3134
 -36806248.87948 -28658337.15246  21056849.4924                   21056848.4024
 -57963031.22346 -45141963.04744  23506204.1334                   23506205.5704
 -24042786.43747 -18711630.74444  22886970.4694                   22886972.4734
 -44870350.85247 -34939170.02345  22484998.5474                   22485001.0784
 -13289252.23047 -10332344.59245  22668617.7584                   22668618.5084
   4046215.37146   3453499.67343  24310062.9224                   24310065.4494
 -60507700.46148 -47124165.11146  21507523.1564                   21507521.6334
 -24651501.29747 -19185707.99445  21986980.0084                   21986979.9454
  -1974067.10546  -1519576.75943  24511452.0164                   24511453.9414
 11  9 26  0 44  0.0000000  0 10G02G29G12G30G25G15G18G05G26G21
 -80398397.27347 -62623729.78845  22702561.1804                   22702557.2624
 -36965712.03148 -28782594.09246  21026504.5704                   21026503.4804
 -57970707.57447 -45147944.70844  23504743.7974                   23504745.5044
 -24116673.46947 -18769205.01445  22872910.4774                   22872912.5744
 -44909160.01247 -34969410.92745  22477613.1484                   22477616.1644
 -13482055.46947 -10482580.74845  22631928.5394                   22631929.2384
   3858664.43446   3307356.36343  24274373.1724                   24274376.5274
 -60540301.64848 -47149568.60646  21501319.5234                   21501318.0864
 -24818080.14547 -19315509.61145  21955281.1024                   21955280.9774
  -2135227.67246  -1645156.32143  24480784.0944                   24480784.8834
 11  9 26  0 44 30.0000000  0 10G02G29G12G30G25G15G18G05G26G21
 -80449020.25847 -62663176.21645  22692927.8444                   22692924.8244
 -37124792.53148 -28906552.87146  20996232.7034                   20996231.1604
 -57978277.11746 -45153843.11644  23503303.4064                   23503304.5004
 -24190026.56246 -18826363.23045  22858951.4844                   22858953.3874
 -44947588.32847 -34999355.10345  22470301.2664                   22470304.0514
 -13674615.64547 -10632627.54145  22595285.9304                   22595285.8794
   3671343.44946   3161392.16343  24238726.1414                   24238729.8754
 -60572591.89848 -47174729.80646  21495174.5704                   21495173.1334
 -24984142.41847 -19444908.68345  21923680.6254                   21923680.0664
  -2296376.04746  -1770726.46843  24450119.4844                   24450118.9064
 11  9 26  0 45  0.0000000  0 10G02G29G12G30G25G15G18G05G26G21
 -80499491.55147 -62702504.43745  22683323.5554                   22683320.2384
 -37283487.14148 -29030210.95746  20966033.5004                   20966032.5594
 -57985741.90646 -45159659.90944  23501883.3204                   23501884.1524
 -24262846.76647 -18883106.20045  22845094.5784                   22845096.1764
 -44985637.75047 -35029004.03745  22463060.2274                   22463063.2304
 -13866928.88347 -10782481.86745  22558689.6414                   22558689.4534
   3484253.88346   3015608.44843  24203125.2504                   24203127.4964
 -60604572.81248 -47199649.97246  21489089.3204                   21489087.1724
 -25149683.84047 -19573901.91945  21892179.1024                   21892179.0234
  -2457511.91446  -1896286.76743  24419455.4304                   24419456.4344
 11  9 26  0 45 30.0000000  0 10G02G29G12G30G25G15G18G05G26G21
 -80549812.41847 -62741715.44845  22673747.1254                   22673744.1484
 -37441795.04348 -29153567.70646  20935908.6564                   20935907.4774
 -57993106.02746 -45165398.24744  23500481.6174                   23500482.9924
 -24335137.67647 -18939436.76044  22831338.0164                   22831339.3674
 -45023312.69147 -35058361.14845  22455891.3914                   22455893.9574
 -14058993.33247 -10932142.37545  22522140.9534                   22522141.3874
   3297395.25046   2870004.64543  24167567.0554                   24167569.7344
 -60636248.32448 -47224332.13346  21483061.1484                   21483060.0514
 -25314702.55147 -19702487.82945  21860776.7814                   21860775.9774
  -2618637.06246  -2021838.82843  24388794.9224                   24388794.2504
 11  9 26  0 46  0.0000000  0 10G02G29G12G30G25G15G18G05G26G21
 -80599984.21147 -62780810.31245  22664200.8284                   22664196.9884
 -37599715.77748 -29276622.78846  20905857.5554                   20905856.2114
 -58000374.55146 -45171062.09344  23499098.1644                   23499099.7974
 -24406902.94947 -18995357.69345  22817681.9144                   22817683.0824
 -45060617.76247 -35087430.06245  22448791.8524                   22448795.1884
 -14250807.68747 -11081607.99745  22485639.1414                   22485639.7814
   3110767.47346   2724580.75443  24132052.3984                   24132054.6804
 -60667621.87948 -47248779.02446  21477091.1174                   21477089.7234
 -25479197.00047 -19830665.23745  21829474.5704                   21829474.0434
  -2779753.77046  -2147384.26643  24358133.7504                   24358135.3014
 11  9 26  0 46 30.0000000  0 10G02G29G12G30G25G15G18G05G26G21
 -80650003.94547 -62819786.70345  22654681.4304                   22654678.4804
 -37757243.98847 -29399372.00046  20875881.0634                   20875879.3364
 -58007547.59047 -45176651.56944  23497734.0474                   23497734.8364
 -24478141.92247 -19050868.54345  22804125.9304                   22804126.7384
 -45097553.16847 -35116210.89545  22441763.7274                   22441766.4734
 -14442366.14847 -11230874.20045  22449186.8984                   22449187.4384
   2924374.11346   2579339.53943  24096582.7344                   24096585.4064
 -60698694.02748 -47272991.04346  21471178.1564                   21471176.9344
 -25643161.51247 -19958429.71245  21798273.0084                   21798272.5354
  -2940859.32046  -2272920.99543  24327476.8984                   24327478.3554
 11  9 26  0 47  0.0000000  0 10G02G29G12G30G25G15G18G05G26G21
 -80699872.60947 -62858645.36345  22645191.7974                   22645188.8794
 -37914378.87148 -29521814.72546  20845979.1174                   20845977.8204
 -58014630.10247 -45182170.47544  23496385.3674                   23496387.4024
 -24548858.49647 -19105972.30545  22790668.7114                   22790670.6254
 -45134123.52047 -35144707.29345  22434804.6804                   22434807.2034
 -14633667.21147 -11379939.85145  22412783.9694                   22412784.3954
   2738214.77746   2434280.70143  24061157.7974                   24061160.2304
 -60729468.54748 -47296971.14446  21465321.8054                   21465320.6454
 -25806594.51247 -20085780.00945  21767172.8674                   21767171.8054
  -3101955.57446  -2398450.46843  24296821.6254                   24296822.4614
 11  9 26  0 47 30.0000000  0 10G02G29G12G30G25G15G18G05G26G21
 -80749588.63347 -62897385.10045  22635730.8204                   22635728.8524
 -38071117.39548 -29643948.59646  20816152.6334                   20816151.4064
 -58021623.53546 -45187619.94544  23495055.2114                   23495056.4964
 -24619053.32447 -19160669.52345  22777310.5004                   22777311.8284
 -45170330.36347 -35172920.41945  22427914.3444                   22427918.0084
 -14824706.16047 -11528801.25645  22376430.4924                   22376430.2664
   2552291.75046   2289405.96343  24025777.0634                   24025778.9924
 -60759946.44548 -47320720.12646  21459522.0704                   21459520.6914
 -25969491.15647 -20212712.36845  21736174.6954                   21736174.2664
  -3263041.64846  -2523972.00643  24266168.3444                   24266168.5204
 11  9 26  0 48  0.0000000  0 10G02G29G12G30G25G15G18G05G26G21
 -80799152.93047 -62936006.60045  22626299.4384                   22626296.7664
 -38227458.37148 -29765772.68046  20786401.7274                   20786400.6134
 -58028532.04346 -45193003.27444  23493741.0234                   23493741.1804
 -24688729.94547 -19214962.93645  22764051.2894                   22764052.7304
 -45206178.05947 -35200853.70045  22421093.0554                   22421095.9184
 -15015481.24247 -11677457.05145  22340126.9774                   22340126.7034
   2366604.71946   2144715.13243  23990442.1644                   23990444.4344
 -60790131.48048 -47344240.88646  21453777.9384                   21453776.4144
 -26131850.02047 -20339225.66245  21705278.5554                   21705278.0634
  -3424119.18046  -2649486.94243  24235515.8204                   24235516.4774
 11  9 26  0 48 30.0000000  0 10G02G29G12G30G25G15G18G05G26G21
 -80848562.82047 -62974507.76745  22616897.5704                   22616894.2234
 -38383397.18748 -29887283.39246  20756727.4304                   20756726.6724
 -58035356.05946 -45198320.79144  23492441.6414                   23492443.1134
 -24757888.32447 -19268852.53845  22750891.4694                   22750893.2154
 -45241667.30147 -35228507.67545  22414339.9694                   22414342.4534
 -15205987.57447 -11825903.41645  22303874.6334                   22303874.1254
   2181157.02746   2000210.79143  23955152.0084                   23955154.0354
 -60820023.88748 -47367533.63646  21448089.5164                   21448088.1334
 -26293665.64547 -20465315.66645  21674486.5084                   21674485.6764
  -3585186.29746  -2774993.68143  24204865.6334                   24204866.5314
 11  9 26  0 49  0.0000000  0 10G02G29G12G30G25G15G18G05G26G21
 -80897819.55147 -63012889.58744  22607524.3054                   22607520.6414
 -38538933.18748 -30008480.22447  20727130.0084                   20727129.1844
 -58042100.55946 -45203576.31744  23491159.1884                   23491160.2734
 -24826532.27347 -19322341.30344  22737829.2344                   22737829.4414
 -45276802.70347 -35255885.92745  22407654.0314                   22407656.4534
 -15396223.32847 -11974138.95245  22267673.7114                   22267673.5784
   1995948.08646   1855892.52143  23919907.8834                   23919909.2624
 -60849627.59448 -47390601.43546  21442456.1414                   21442455.2624
 -26454936.52347 -20590981.17845  21643797.0554                   21643796.7584
  -3746244.99246  -2900493.83143  24174216.9534                   24174218.2774
 11  9 26  0 49 30.0000000  0 10G02G29G12G30G25G15G18G05G26G21
 -80946925.25447 -63051153.73844  22598179.3834                   22598176.8244
 -38694066.46948 -30129363.24946  20697609.3444                   20697608.1844
 -58048771.41447 -45208774.48544  23489889.1564                   23489891.0634
 -24894666.70347 -19375432.99845  22724863.0004                   22724864.7154
 -45311589.95747 -35282992.87645  22401033.3914                   22401036.5434
 -15586188.05947 -12122163.30745  22231524.2584                   22231524.4414
   1810976.09046   1711758.82443  23884708.3204                   23884710.6844
 -60878947.89148 -47413448.40246  21436876.8984                   21436875.3404
 -26615662.26647 -20716221.93445  21613212.2034                   21613211.0594
  -3907298.09846  -3025989.67643  24143569.4844                   24143570.5234
 11  9 26  0 50  0.0000000  0 10G02G29G12G30G25G15G18G05G26G21
 -79420454.66447 -61861696.14944  22888656.6254                   22888653.9224
 -37273366.51248 -29022324.26346  20967959.5004                   20967958.3674
 -56479947.50846 -43986314.36144  23788426.1954                   23788427.5944
 -23386867.84047 -18200524.72945  23011787.5164                   23011789.4964
 -43770607.19547 -34082227.10245  22694273.0234                   22694275.9184
 -14200448.64847 -11042366.23645  22495222.2344                   22495221.7384
   3201671.85246   2795418.23743  24149348.6094                   24149350.7734
 -59332562.35548 -46208472.64246  21731144.2114                   21731142.6174
 -25200410.77347 -19613428.47045  21882525.1564                   21882524.6954
  -2492917.05146  -1923874.45643  24412717.2114                   24412718.4304
 11  9 26  0 50 30.0000000  0 10G02G29G12G30G25G15G18G05G26G21
 -79469258.21947 -61899724.88745  22879369.7894                   22879367.7234
 -37427688.75048 -29142575.28747  20938592.8754                   20938591.6884
 -56486479.84847 -43991404.59944  23787183.6884                   23787185.1024
 -23453990.21547 -18252827.83244  22999014.2894                   22999016.0634
 -43804707.45347 -34108798.72945  22687784.4384                   22687786.6334
 -14389862.41047 -11189961.24745  22459177.8984                   22459176.7704
   3017176.34846   2651655.83243  24114238.9144                   24114241.0204
 -59361323.03948 -46230883.55546  21725671.1644                   21725669.8594
 -25360037.39847 -19737812.75345  21852149.1724                   21852148.6294
  -2653960.46946  -2049362.71443  24382071.3444                   24382072.2854
 11  9 26  0 51  0.0000000  0 10G02G29G12G30G25G15G18G05G26G21
 -79517906.23047 -61937632.41845  22870112.4844                   22870110.1174
 -37581598.00448 -29262504.50947  20909304.7034                   20909303.8134
 -56492943.48447 -43996441.23244  23785952.5944                   23785954.8244
 -23520606.02347 -18304736.22344  22986338.4534                   22986339.4614
 -43838464.83247 -34135103.20045  22681360.1564                   22681362.9804
 -14578992.12547 -11337334.94045  22423187.9064                   22423187.3484
   2832924.53146   2508083.36143  24079176.8134                   24079180.1644
 -59389803.82048 -46253076.35546  21720251.4924                   21720249.9414
 -25519105.85547 -19861762.10645  21821879.2584                   21821878.7074
  -2814995.51646  -2174844.36043  24351427.5634                   24351428.8164
 11  9 26  0 51 30.0000000  0 10G02G29G12G30G25G15G18G05G26G21
 -79566399.86747 -61975419.64445  22860884.0944                   22860882.4574
 -37735093.92248 -29382111.64446  20880095.5314                   20880094.1334
 -56499343.02046 -44001428.00444  23784735.7034                   23784736.8444
 -23586719.38747 -18356253.09044  22973756.8364                   22973759.2464
 -43871884.10547 -34161144.19345  22675000.8054                   22675003.6024
 -14767836.71547 -11484486.43545  22387251.4454                   22387250.8594
   2648915.71546   2364700.20543  24044161.0554                   24044163.8324
 -59418008.76248 -46275054.23546  21714884.3834                   21714882.8524
 -25677615.22747 -19985275.82145  21791716.3284                   21791715.3594
  -2976024.28146  -2300321.10043  24320784.7584                   24320785.8714
 11  9 26  0 52  0.0000000  0 10G02G29G12G30G25G15G18G05G26G21
 -79614740.69947 -62013087.79645  22851685.6484                   22851682.4774
 -37888175.84848 -29501396.17846  20850964.8284                   20850963.6564
 -56505683.27346 -44006368.54944  23783529.9224                   23783530.0904
 -23652334.37947 -18407381.61444  22961270.9614                   22961271.6564
 -43904970.12947 -34186925.53045  22668705.0394                   22668707.6724
 -14956394.81247 -11631414.71045  22351369.3284                   22351369.1134
   2465148.87146   2221505.56543  24009191.9454                   24009193.5084
 -59445941.75048 -46296820.20346  21709568.5864                   21709567.2544
 -25835564.19147 -20108352.86645  21761659.0634                   21761658.7274
  -3137048.93047  -2425794.66744  24290142.9694                   24290142.9104
 11  9 26  0 52 30.0000000  0 10G02G29G12G30G25G15G18G05G26G21
 -79662926.75847 -62050635.36245  22842516.1724                   22842513.6294
 -38040840.08648 -29620355.24746  20821913.8284                   20821912.9734
 -56511965.63746 -44011263.95144  23782333.8524                   23782334.6764
 -23717451.77747 -18458122.44044  22948879.2814                   22948880.8594
 -43937724.40247 -34212448.34545  22662471.7584                   22662474.8364
 -15144661.68747 -11778116.02945  22315543.6484                   22315543.8834
   2281626.59046   2078501.41043  23974268.8914                   23974271.0314
 -59473604.15648 -46318375.30946  21704304.8754                   21704303.3484
 -25992948.08247 -20230989.56845  21731709.8674                   21731709.5314
  -3298068.06247  -2551263.90043  24259501.4304                   24259502.5664
 11  9 26  0 53  0.0000000  0 10G02G29G12G30G25G15G18G05G26G21
 -79710959.63747 -62088063.53945  22833375.7504                   22833373.2424
 -38193086.70348 -29738988.88047  20792942.0164                   20792940.9024
 -56518195.38346 -44016118.38044  23781149.2974                   23781150.3984
 -23782076.03147 -18508478.97444  22936581.1174                   22936582.7854
 -43970151.98047 -34237716.60245  22656301.2114                   22656304.0044
 -15332636.20347 -11924589.55345  22279773.6644                   22279772.6724
   2098347.75446   1935687.00043  23939391.8444                   23939392.6764
 -59501000.25048 -46339722.91446  21699091.6724                   21699089.9024
 -26149766.09847 -20353185.35945  21701868.8204                   21701867.9964
  -3459084.16846  -2676730.72343  24228860.7114                   24228862.3714
 11  9 26  0 53 30.0000000  0 10G02G29G12G30G25G15G18G05G26G21
 -79758835.41847 -62125369.35145  22824265.7894                   22824262.4224
 -38344909.83648 -29857292.53546  20764050.8134                   20764049.7464
 -56524371.36346 -44020930.88644  23779973.4384                   23779973.9734
 -23846206.02347 -18558450.36144  22924378.2194                   22924379.8284
 -44002252.44547 -34262729.98745  22650192.1804                   22650195.3674
 -15520312.07447 -12070830.37845  22244059.5704                   22244059.3524
   1915316.74646   1793065.61743  23904562.5634                   23904562.8874
 -59528128.82048 -46360862.04446  21693929.8594                   21693928.1054
 -26306011.88747 -20474935.24545  21672135.9224                   21672135.2584
  -3620093.62147  -2802192.37943  24198221.1254                   24198222.6954
 11  9 26  0 54  0.0000000  0 10G02G29G12G30G25G15G18G05G26G21
 -79806555.74647 -62162554.02345  22815184.1884                   22815181.4384
 -38496308.99648 -29975265.82047  20735240.7974                   20735239.0354
 -56530498.95746 -44025705.75744  23778807.3834                   23778809.2274
 -23909845.95347 -18608039.90944  22912268.1564                   22912268.3204
 -44034030.72747 -34287492.28045  22644145.3364                   22644148.2584
 -15707687.69947 -12216837.23945  22208403.4304                   22208402.4454
   1732532.80946   1650636.80943  23869779.1564                   23869780.3874
 -59554994.20748 -46381796.09446  21688816.9534                   21688815.6524
 -26461684.48447 -20596238.50845  21642512.2344                   21642511.1844
  -3781099.12147  -2927650.96944  24167582.6094                   24167584.2304
 11  9 26  0 54 30.0000000  0 10G02G29G12G30G25G15G18G05G26G21
 -79854121.05547 -62199617.87645  22806133.0704                   22806129.4024
 -38647282.98448 -30092907.79846  20706510.8594                   20706509.7774
 -56536581.59047 -44030445.49744  23777650.2344                   23777652.1254
 -23972999.09847 -18657250.12544  22900249.5864                   22900251.0664
 -44065490.66847 -34312006.52445  22638157.9774                   22638161.3134
 -15894761.14547 -12362608.62745  22172804.5784                   22172803.9264
   1549995.72346   1508400.26943  23835043.1884                   23835043.6214
 -59581599.45748 -46402527.42346  21683754.1724                   21683752.3794
 -26616781.44947 -20717093.23045  21612998.1724                   21612997.9224
  -3942101.70746  -3053107.23143  24136945.2114                   24136945.6764
 11  9 26  0 55  0.0000000  0 10G02G29G12G30G25G15G18G05G26G21
 -79901531.96547 -62236561.40745  22797110.6094                   22797108.4654
 -38797830.49648 -30210217.46947  20677862.5944                   20677861.3324
 -56542623.38347 -44035153.50044  23776500.7734                   23776502.1604
 -24035668.74247 -18706083.59944  22888324.4844                   22888325.0984
 -44096636.38347 -34336275.92145  22632231.5784                   22632234.4184
 -16081530.35247 -12508142.96645  22137263.2344                   22137262.9224
   1367705.70746   1366356.33043  23800354.5234                   23800355.3444
 -59607948.05548 -46423058.76646  21678740.1094                   21678738.5274
 -26771301.16047 -20837498.13145  21583594.4064                   21583593.2814
  -4103102.54347  -3178562.15344  24106307.2424                   24106309.0514
 11  9 26  0 55 30.0000000  0 10G02G29G12G30G25G15G18G05G26G21
 -79948788.19547 -62273384.43645  22788118.3984                   22788115.5944
 -38947949.65248 -30327193.34146  20649296.0474                   20649295.0164
 -56548627.09447 -44039831.80444  23775357.8284                   23775360.1684
 -24097857.64547 -18754542.47044  22876490.3524                   22876491.4574
 -44127471.00047 -34360302.91745  22626364.3364                   22626366.7274
 -16267992.53147 -12653438.04846  22101780.1884                   22101779.9494
   1185663.59846   1224505.46943  23765712.6024                   23765714.2114
 -59634042.52048 -46443392.10046  21673774.3594                   21673772.5904
 -26925240.98447 -20957451.18145  21554300.3674                   21554299.7304
  -4264101.94147  -3304015.93743  24075670.4454                   24075670.5274
 11  9 26  0 56  0.0000000  0 10G02G29G12G30G25G15G18G05G26G21
 -79995886.48447 -62310084.36645  22779156.0864                   22779153.3914
 -39097635.24648 -30443831.37946  20620811.5084                   20620810.1484
 -56554592.87547 -44044480.56844  23774223.3834                   23774223.5474
 -24159565.26247 -18802626.32244  22864747.6024                   22864748.2384
 -44157994.85947 -34384087.75445  22620556.0634                   22620558.3794
 -16454141.45747 -12798489.03645  22066357.2274                   22066356.8954
   1003872.55546   1082850.27243  23731119.4614                   23731119.7704
 -59659882.52048 -46463527.13146  21668857.2504                   21668855.6914
 -27078595.03148 -21076947.79345  21525118.3674                   21525117.0594
  -4425097.43447  -3429466.69044  24045033.6174                   24045034.2774
 11  9 26  0 56 30.0000000  0 10G02G29G12G30G25G15G18G05G26G21
 -80042826.72347 -62346661.14045  22770223.5004                   22770220.0634
 -39246885.48048 -30560130.18447  20592410.3364                   20592409.2734
 -56560523.44147 -44049101.83844  23773094.9144                   23773096.2034
 -24220794.51247 -18850337.44544  22853096.4534                   22853098.1294
 -44188211.40247 -34407633.13245  22614805.8594                   22614808.5664
 -16639974.75047 -12943294.09645  22030994.4844                   22030994.0904
    822333.39547    941391.35443  23696573.3134                   23696573.3554
 -59685470.68748 -46483465.91046  21663987.5554                   21663986.0664
 -27231360.99647 -21195986.14345  21496047.7734                   21496046.7154
  -4586089.89847  -3554915.06544  24014398.0004                   24014397.3244
 11  9 26  0 57  0.0000000  0 10G02G29G12G30G25G15G18G05G26G21
 -80089611.43047 -62383116.74545  22761320.8524                   22761317.4804
 -39395701.22748 -30676090.42247  20564091.8594                   20564090.4264
 -56566425.71147 -44053701.09444  23771971.2424                   23771972.7704
 -24281550.71947 -18897679.92144  22841534.9304                   22841536.2154
 -44218126.42247 -34430943.53845  22609112.9304                   22609115.4774
 -16825491.82447 -13087852.74245  21995691.6024                   21995690.6254
    641044.29746    800127.17443  23662074.9614                   23662075.1954
 -59710812.19548 -46503212.49646  21659165.4694                   21659163.7344
 -27383538.96147 -21314566.32345  21467089.2034                   21467088.0204
  -4747081.94147  -3680363.14144  23983761.8524                   23983761.8164
 11  9 26  0 57 30.0000000  0 10G02G29G12G30G25G15G18G05G26G21
 -80136239.26247 -62419450.10244  22752447.8444                   22752444.0314
 -39544078.78948 -30791709.23247  20535856.4224                   20535855.2464
 -56572301.04346 -44058279.40144  23770852.9774                   23770855.8984
 -24341835.10546 -18944654.77245  22830062.9844                   22830064.4494
 -44247741.99247 -34454020.62445  22603477.9064                   22603480.2234
 -17010688.49647 -13232161.72745  21960449.4384                   21960449.3134
    460007.14846    659059.40943  23627625.2584                   23627625.3794
 -59735908.29348 -46522767.84746  21654389.7974                   21654388.4844
 -27535124.79747 -21432685.08445  21438243.2274                   21438241.8284
  -4908072.86747  -3805810.32944  23953126.4534                   23953125.6994
 11  9 26  0 58  0.0000000  0 10G02G29G12G30G25G15G18G05G26G21
 -78607288.96947 -61228060.28545  23043397.6884                   23043394.4304
 -38116592.03148 -29679381.81547  20807497.6564                   20807496.5514
 -55002732.62946 -42835239.17444  24069532.1724                   24069534.3794
 -22826228.96147 -17763662.93745  23118473.1024                   23118474.7074
 -42701640.78547 -33249266.48945  22897690.7974                   22897693.8054
 -15620136.63747 -12148614.71646  22225062.9614                   22225062.2234
   1854648.07046   1745792.68443  23893016.0784                   23893016.0124
 -58185341.05948 -45314533.60346  21949452.8984                   21949451.3754
 -26110691.44947 -20322736.95845  21709303.7194                   21709303.2074
  -3493638.19147  -2703653.18044  24222284.1484                   24222282.9574
 11  9 26  0 58 30.0000000  0 10G02G29G12G30G25G15G18G05G26G21
 -78653604.54347 -61264150.30145  23034583.6334                   23034580.3554
 -38264090.10948 -29794315.32346  20779429.7814                   20779428.1684
 -55008565.18047 -42839784.12444  24068422.5004                   24068424.6524
 -22885580.33647 -17809910.78444  23107179.2734                   23107180.1374
 -42730669.50847 -33271886.25445  22892166.5164                   22892169.5824
 -15804686.92247 -12292420.02445  22189944.0084                   22189942.9774
   1674114.72746   1605117.45043  23858661.3364                   23858661.6524
 -58209956.12948 -45333714.13946  21944768.6414                   21944767.0704
 -26261087.97747 -20439929.00545  21680684.1414                   21680683.1374
  -3654630.41847  -2829101.40544  24191647.8984                   24191646.1884
 11  9 26  0 59  0.0000000  0 10G02G29G12G30G25G15G18G05G26G21
 -78699763.27347 -61300118.09944  23025800.0084                   23025796.1844
 -38411145.09848 -29908903.56346  20751445.8364                   20751444.7664
 -55014380.41047 -42844315.57444  24067316.2424                   24067317.9024
 -22944468.82447 -17855797.89445  23095972.5944                   23095974.2304
 -42759409.23047 -33294280.87745  22886698.0554                   22886700.5514
 -15988909.16047 -12435969.70445  22154887.7114                   22154887.4964
   1493834.52346   1464639.53143  23824355.0394                   23824355.7154
 -58234333.87548 -45352709.73946  21940129.9454                   21940128.1884
 -26410885.50047 -20556654.25645  21652178.7274                   21652177.5984
  -3815623.46947  -2954550.30344  24161011.8204                   24161010.5044
 11  9 26  0 59 30.0000000  0 10G02G29G12G30G25G15G18G05G26G21
 -78745764.66047 -61335963.34045  23017045.4534                   23017042.6214
 -38557754.80548 -30023144.83247  20723547.2034                   20723545.9384
 -55020181.26247 -42848835.81844  24066212.6254                   24066214.5514
 -23002896.98447 -17901326.30544  23084854.3054                   23084855.6644
 -42787863.16047 -33316452.79345  22881282.8204                   22881285.9144
 -16172800.20747 -12579261.31745  22119894.3524                   22119893.7034
   1313808.51246   1324359.62843  23790097.3444                   23790098.2544
 -58258476.83648 -45371522.41746  21935535.5634                   21935533.7034
 -26560081.71947 -20672910.97145  21623787.3444                   21623786.5704
  -3976617.57847  -3079999.98644  24130375.2344                   24130373.7544
 11  9 26  1  0  0.0000000  0 10G02G29G12G30G25G15G18G05G26G21
 -78791607.96547 -61371685.37544  23008322.5944                   23008319.1254
 -38703916.81648 -30137037.26047  20695733.3054                   20695732.1214
 -55025970.03947 -42853346.63444  24065110.5394                   24065112.7274
 -23060867.04347 -17946497.78144  23073822.3134                   23073823.7974
 -42816034.00847 -33338404.13045  22875922.3444                   22875925.0904
 -16356356.88347 -12722292.39145  22084964.6254                   22084963.7074
   1134038.26646   1184279.02743  23755887.7894                   23755888.2384
 -58282387.13348 -45390153.77346  21930985.2894                   21930984.1334
 -26708673.21947 -20788696.49345  21595511.4454                   21595510.2504
  -4137612.72347  -3205450.54544  24099738.4304                   24099737.7234
 11  9 26  1  0 30.0000000  0 10G02G29G12G30G25G15G18G05G26G21
 -78837292.23847 -61407283.50944  22999628.7194                   22999625.8204
 -38849628.27048 -30250578.62447  20668005.4614                   20668003.9614
 -55031749.16847 -42857849.98144  24064011.4384                   24064013.0664
 -23118380.93047 -17991313.78544  23062878.0314                   23062879.4384
 -42843924.20347 -33360136.78045  22870614.8984                   22870618.3324
 -16539575.21148 -12865059.83145  22050099.2584                   22050098.2584
    954524.07846   1044397.99743  23721727.0944                   23721727.6524
 -58306066.39847 -45408605.12146  21926479.4224                   21926477.6884
 -26856656.71948 -20904008.23145  21567351.0394                   21567350.0784
  -4298608.39847  -3330901.51544  24069101.8834                   24069101.3324
 11  9 26  1  1  0.0000000  0 10G02G29G12G30G25G15G18G05G26G21
 -78882819.98447 -61442759.67944  22990965.5864                   22990961.9804
 -38994890.24248 -30363769.73146  20640363.1564                   20640361.5744
 -55037524.61347 -42862350.40244  24062911.5474                   24062913.5704
 -23175444.47747 -18035778.83644  23052019.7584                   23052020.2704
 -42871540.10247 -33381655.69345  22865360.3984                   22865363.1094
 -16722455.63348 -13007563.93345  22015298.0474                   22015296.9734
    775264.51646    904715.35343  23687615.7344                   23687616.1334
 -58329520.07847 -45426880.70046  21922016.3984                   21922014.5164
 -27004033.13348 -21018846.90945  21539306.0944                   21539305.0394
  -4459607.90647  -3456355.51644  24038464.0394                   24038464.5234
 11  9 26  1  1 30.0000000  0 10G02G29G12G30G25G15G18G05G26G21
 -78928189.45747 -61478112.49944  22982331.8444                   22982328.3094
 -39139699.10947 -30476607.76246  20612806.6564                   20612805.1454
 -55043297.31247 -42866848.67644  24061813.3914                   24061814.9804
 -23232058.51647 -18079893.65644  23041246.2034                   23041247.6134
 -42898883.10247 -33402961.95745  22860156.8754                   22860160.0944
 -16904993.48848 -13149801.12845  21980562.2424                   21980561.8954
    596261.77746    765232.82344  23653552.0474                   23653552.9804
 -58352748.61747 -45444980.85846  21917595.9304                   21917595.0864
 -27150797.84047 -21133208.93545  21511377.7894                   21511376.4804
  -4620609.59447  -3581811.20644  24007827.1254                   24007827.2344
 11  9 26  1  2  0.0000000  0 10G02G29G12G30G25G15G18G05G26G21
 -78973399.23047 -61513340.89044  22973727.9304                   22973725.7384
 -39284051.74248 -30589090.30247  20585337.3594                   20585335.8674
 -55049069.11347 -42871346.27944  24060714.6884                   24060716.9104
 -23288224.75046 -18123659.52044  23030557.9844                   23030559.2464
 -42925955.32847 -33424057.22645  22855005.5704                   22855008.4414
 -17087184.64848 -13291768.16545  21945892.0164                   21945891.5474
    417517.71547    625951.89744  23619538.1954                   23619539.1564
 -58375753.48847 -45462906.71646  21913218.5634                   21913217.1054
 -27296947.43047 -21247091.65145  21483566.6484                   21483565.2464
  -4781612.94147  -3707268.21744  23977188.9304                   23977188.6294
 11  9 26  1  2 30.0000000  0 10G02G29G12G30G25G15G18G05G26G21
 -79018448.47747 -61548444.18744  22965156.2424                   22965152.8914
 -39427945.58247 -30701215.32746  20557955.0084                   20557953.6884
 -55054842.77747 -42875845.35144  24059616.7344                   24059619.1174
 -23343945.44546 -18167078.25144  23019955.3594                   23019956.2504
 -42952759.52747 -33444943.65845  22849904.8134                   22849907.5514
 -17269025.86748 -13433462.51846  21911288.7894                   21911288.2034
    239033.26247    486873.21544  23585573.3364                   23585574.6294
 -58398536.47348 -45480659.70746  21908883.2894                   21908881.6994
 -27442479.02047 -21360492.82645  21455872.8674                   21455871.5704
  -4942617.88347  -3832726.47144  23946550.6254                   23946550.7234
 11  9 26  1  3  0.0000000  0 10G02G29G12G30G25G15G18G05G26G21
 -79063338.44947 -61583423.40444  22956613.4224                   22956610.8524
 -39571379.95348 -30812982.33347  20530660.3834                   20530658.8164
 -55060622.75047 -42880349.34344  24058516.5164                   24058519.2154
 -23399224.75047 -18210152.99144  23009435.8914                   23009436.9574
 -42979300.32447 -33465624.82145  22844853.9144                   22844857.2704
 -17450515.55948 -13574882.95745  21876752.6094                   21876752.1334
     60807.97747    347996.54644  23551659.1884                   23551659.6954
 -58421101.45747 -45498242.77846  21904588.8204                   21904586.9694
 -27587391.30147 -21473411.42145  21428296.9224                   21428296.2114
  -5103625.64547  -3958186.94144  23915911.4064                   23915912.1094
 11  9 26  1  3 30.0000000  0 10G02G29G12G30G25G15G18G05G26G21
 -79108067.35547 -61618277.10044  22948101.3134                   22948098.9264
 -39714351.58248 -30924388.76347  20503453.8594                   20503452.5234
 -55066409.87547 -42884858.85344  24057416.0394                   24057417.8244
 -23454064.02747 -18252884.89844  22999000.2274                   22999001.9574
 -43005579.52747 -33486102.15745  22839853.1254                   22839856.5704
 -17631649.53148 -13716026.20045  21842284.0234                   21842282.8364
   -117156.26247    209323.24944  23517792.7734                   23517793.4344
 -58443449.43047 -45515656.76346  21900336.2894                   21900334.9924
 -27731680.75847 -21585844.68245  21400839.1644                   21400838.2304
  -5264635.13347  -4083648.70444  23885272.3054                   23885271.6724
 11  9 26  1  4  0.0000000  0 10G02G29G12G30G25G15G18G05G26G21
 -79152633.57047 -61653003.99444  22939621.1884                   22939618.6954
 -39856857.44148 -31035432.24047  20476335.9304                   20476334.1454
 -55072206.24646 -42889375.58444  24056312.5634                   24056314.8284
 -23508464.76646 -18295275.07844  22988648.2894                   22988649.0474
 -43031599.03947 -33506377.14445  22834902.6334                   22834904.7704
 -17812423.57448 -13856888.99046  21807883.8204                   21807882.3364
   -294857.35247     70855.03944  23483977.7344                   23483978.5084
 -58465581.36747 -45532902.42846  21896124.4534                   21896123.1374
 -27875343.61747 -21697789.70345  21373500.9454                   21373499.8634
  -5425645.10247  -4209110.90043  23854632.6564                   23854631.6174
 11  9 26  1  4 30.0000000  0 10G02G29G12G30G25G15G18G05G26G21
 -79197040.50447 -61687606.81445  22931171.2424                   22931169.0234
 -39998899.21148 -31146114.10746  20449306.3754                   20449304.4574
 -55078018.40646 -42893904.70043  24055206.0554                   24055209.3834
 -23562433.52347 -18337328.65944  22978378.3364                   22978379.4774
 -43057365.91847 -33526455.26445  22829998.9384                   22830001.6134
 -17992838.50048 -13997471.93446  21773551.8984                   21773551.3404
   -472298.58647    -67410.68044  23450211.6644                   23450212.5554
 -58487503.52347 -45549984.62446  21891953.0084                   21891952.3444
 -28018381.44947 -21809247.68645  21346281.5004                   21346280.0514
  -5586659.88747  -4334576.85644  23823993.1094                   23823991.9574
 11  9 26  1  5  0.0000000  0 10G02G29G12G30G25G15G18G05G26G21
 -79241284.23047 -61722082.44544  22922752.0164                   22922749.2814
 -40140470.69948 -31256429.49947  20422366.0704                   20422364.2664
 -55083845.53146 -42898445.39144  24054097.2274                   24054099.7814
 -23615969.46947 -18379044.94544  22968190.4694                   22968191.2544
 -43082879.76647 -33546336.20745  22825143.4304                   22825145.9184
 -18172887.81648 -14137769.99946  21739289.2584                   21739288.6684
   -649475.81247   -205470.65844  23416495.7034                   23416495.6884
 -58509214.67647 -45566902.41146  21887821.7114                   21887820.6994
 -28160788.22747 -21920213.94345  21319182.6414                   21319181.5664
  -5747676.27347  -4460044.03444  23793352.2814                   23793351.7934
 11  9 26  1  5 30.0000000  0 10G02G29G12G30G25G15G18G05G26G21
 -79285367.28547 -61756432.85344  22914362.7504                   22914360.0984
 -40281573.34447 -31366379.56347  20395514.9774                   20395513.1214
 -55089693.32047 -42903002.20144  24052984.6024                   24052987.0704
 -23669077.89146 -18420428.14244  22958084.7734                   22958085.3324
 -43108146.21947 -33566024.39145  22820335.7974                   22820338.4964
 -18352571.32848 -14277783.04746  21705096.7424                   21705096.3204
   -826390.69147   -343326.24044  23382829.3834                   23382830.0784
 -58530719.54347 -45583659.42046  21883729.5474                   21883728.0004
 -28302563.87947 -22030688.40645  21292203.5784                   21292202.1374
  -5908696.70347  -4585514.28444  23762711.3134                   23762710.4964
 11  9 26  1  6  0.0000000  0 10G02G29G12G30G25G15G18G05G26G21
 -77753868.14847 -60563056.91844  23205797.5634                   23205795.2114
 -38846781.13748 -30248359.60947  20668546.8054                   20668545.2194
 -53520144.74646 -41679977.40943  24351660.8444                   24351662.2194
 -22146340.49247 -17233879.51544  23247851.8914                   23247851.9694
 -41557748.35547 -32357922.17745  23115366.4454                   23115369.4774
 -16956460.41848 -13189904.30246  21970767.4614                   21970766.9964
    572382.50847    746627.09343  23649007.2424                   23649007.8954
 -56976600.49647 -44372657.56246  22179468.5784                   22179467.4574
 -26868282.47747 -20913066.47345  21565138.1644                   21565136.8554
  -4494296.60547  -3483384.20144  24031862.9694                   24031861.1524
 11  9 26  1  6 30.0000000  0 10G02G29G12G30G25G15G18G05G26G21
 -77797628.60947 -60597155.98844  23197470.4774                   23197467.5514
 -38986940.25848 -30357574.46247  20641875.6024                   20641873.9184
 -53526041.53546 -41684572.47544  24350538.3054                   24350540.4344
 -22198602.66847 -17274603.28144  23237906.9534                   23237907.8914
 -41582530.02047 -32377232.60145  23110650.7034                   23110654.1254
 -17135403.50848 -13329340.38446  21936716.0784                   21936714.8594
    395993.86747    609181.58544  23615441.3444                   23615442.0044
 -56997700.29747 -44389098.92346  22175453.0314                   22175451.3594
 -27008789.84847 -21022552.68945  21538400.2974                   21538399.6334
  -4655326.15647  -3608861.59744  24001219.9694                   24001218.2664
 11  9 26  1  7  0.0000000  0 10G02G29G12G30G25G15G18G05G26G21
 -77841225.02047 -60631127.17444  23189174.3524                   23189171.2624
 -39126622.37148 -30466417.60847  20615294.9224                   20615293.0354
 -53531965.06647 -41689188.32644  24349411.4774                   24349413.1644
 -22250443.68447 -17314998.89044  23228041.9614                   23228041.0864
 -41607071.89847 -32396356.14045  23105980.3524                   23105983.1254
 -17313970.16848 -13468483.13846  21902735.6954                   21902734.9344
    219871.62147    471943.72243  23581926.2344                   23581926.9344
 -57018598.60247 -44405383.29745  22171476.4064                   22171475.0634
 -27148657.41847 -21131540.35546  21511784.5314                   21511783.1094
  -4816358.49247  -3734341.18244  23970576.1024                   23970575.4924
 11  9 26  1  7 30.0000000  0 10G02G29G12G30G25G15G18G05G26G21
 -77884658.21147 -60664971.22444  23180909.0004                   23180906.3204
 -39265826.66048 -30574888.43447  20588805.4384                   20588803.8284
 -53537919.44946 -41693828.20744  24348278.4144                   24348281.3014
 -22301867.44147 -17355069.35044  23218256.3524                   23218256.1214
 -41631378.18047 -32415296.14045  23101355.3204                   23101358.0784
 -17492158.46948 -13607331.06646  21868827.4224                   21868826.3484
     44014.91447    334912.70244  23548461.8674                   23548462.3554
 -57039299.05147 -44421513.50046  22167536.5864                   22167535.4654
 -27287883.84047 -21240028.41745  21485290.2194                   21485289.4344
  -4977394.61747  -3859823.67644  23939931.6724                   23939930.8324
 11  9 26  1  8  0.0000000  0 10G02G29G12G30G25G15G18G05G26G21
 -77927928.79347 -60698688.52945  23172674.7034                   23172671.7344
 -39404552.05148 -30682986.08147  20562406.2894                   20562404.9064
 -53543908.03947 -41698494.78844  24347139.4924                   24347142.1334
 -22352877.68447 -17394817.62244  23208548.9924                   23208550.1054
 -41655452.94147 -32434055.70645  23096774.2114                   23096777.5044
 -17669966.22348 -13745882.46246  21834992.0554                   21834990.4654
   -131576.44547    198088.51744  23515047.2734                   23515048.0864
 -57059804.38347 -44437491.65946  22163634.9064                   22163633.7034
 -27426467.84048 -21348015.90746  21458918.7504                   21458917.8404
  -5138435.09447  -3985309.57344  23909286.6094                   23909285.5594
 11  9 26  1  8 30.0000000  0 10G02G29G12G30G25G15G18G05G26G21
 -77971036.81247 -60732279.18944  23164471.6174                   23164468.6094
 -39542797.01648 -30790709.37847  20536099.3444                   20536097.9734
 -53549934.13346 -41703190.57244  24345992.0704                   24345994.7734
 -22403477.63747 -17434246.14044  23198920.3754                   23198920.2424
 -41679299.83647 -32452637.72844  23092235.6484                   23092239.4654
 -17847391.02348 -13884135.46746  21801229.0944                   21801227.6454
   -306901.85247     61471.54344  23481683.9454                   23481684.6134
 -57080117.59847 -44453320.10545  22159769.6564                   22159768.2934
 -27564407.73048 -21455501.47346  21432669.8594                   21432668.1724
  -5299481.34446  -4110799.97744  23878639.9144                   23878639.7664
 11  9 26  1  9  0.0000000  0 10G02G29G12G30G25G15G18G05G26G21
 -78013980.67247 -60765741.92444  23156300.4924                   23156296.7424
 -39680558.57848 -30898055.98247  20509884.0554                   20509882.7344
 -53555998.92647 -41707916.49144  24344837.6954                   24344841.1724
 -22453668.96947 -17473356.29944  23189369.2664                   23189368.8634
 -41702920.89847 -32471043.76345  23087740.8134                   23087743.9844
 -18024428.98448 -14022087.02346  21767539.5944                   21767538.3284
   -481959.52347    -74936.80944  23448370.9924                   23448371.7304
 -57100239.82047 -44468999.72846  22155940.7664                   22155938.9884
 -27701700.27347 -21562482.63646  21406544.0554                   21406542.2854
  -5460532.23047  -4236293.98644  23847992.9844                   23847992.4804
 11  9 26  1  9 30.0000000  0 10G02G29G12G30G25G15G18G05G26G21
 -78056761.06247 -60799077.30144  23148159.3834                   23148156.0234
 -39817835.85947 -31005025.24747  20483760.8834                   20483759.4574
 -53562106.62947 -41712675.83443  24343676.7814                   24343678.1914
 -22503455.57047 -17512151.09744  23179895.6024                   23179895.3714
 -41726320.23847 -32489277.04644  23083288.5314                   23083292.3634
 -18201078.05548 -14159735.57346  21733924.2814                   21733923.6994
   -656750.12146   -211137.06744  23415109.8914                   23415109.9344
 -57120174.51647 -44484533.24946  22152147.0474                   22152145.4454
 -27838344.24247 -21668958.39645  21380541.4384                   21380540.3554
  -5621588.48447  -4361792.18744  23817345.3834                   23817344.3984
 11  9 26  1 10  0.0000000  0 10G02G29G12G30G25G15G18G05G26G21
 -78099378.05547 -60832285.39344  23140049.9304                   23140046.4734
 -39954627.21548 -31111615.86147  20457730.5314                   20457728.9884
 -53568260.51646 -41717471.26044  24342505.3204                   24342508.3164
 -22552840.67247 -17550632.98344  23170497.5784                   23170497.6604
 -41749501.45747 -32507340.33645  23078877.3674                   23078880.7544
 -18377335.91448 -14297079.26646  21700383.2274                   21700382.4384
   -831273.36747   -347128.97944  23381898.9064                   23381898.8914
 -57139923.80147 -44499922.28245  22148388.7504                   22148387.2384
 -27974337.60947 -21774927.19745  21354662.4064                   21354661.1884
  -5782650.69147  -4487295.02244  23786695.6254                   23786695.3094
 11  9 26  1 10 30.0000000  0 10G02G29G12G30G25G15G18G05G26G21
 -78141830.32847 -60865365.09844  23131971.3594                   23131967.5704
 -40090929.80148 -31217825.62547  20431792.9534                   20431791.5634
 -53574462.26646 -41722303.87143  24341324.2894                   24341327.8054
 -22601826.19147 -17588803.51744  23161176.9384                   23161175.6294
 -41772466.82047 -32525235.42145  23074507.2034                   23074510.4184
 -18553198.80148 -14434115.19146  21666917.8204                   21666916.5164
  -1005527.48447   -482911.18944  23348739.1804                   23348739.3714
 -57159488.89147 -44515167.77946  22144665.8054                   22144664.2114
 -28109677.62148 -21880386.90646  21328908.2194                   21328906.8444
  -5943718.12547  -4612801.93044  23756045.3834                   23756044.0514
 11  9 26  1 11  0.0000000  0 10G02G29G12G30G25G15G18G05G26G21
 -78184117.55547 -60898316.15844  23123923.9384                   23123921.0784
 -40226741.94148 -31323653.21847  20405948.6804                   20405946.9774
 -53580714.28946 -41727175.76544  24340135.1414                   24340138.2234
 -22650415.12147 -17626665.05744  23151930.4304                   23151929.6094
 -41795219.50847 -32542964.82545  23070177.4614                   23070180.5904
 -18728663.93048 -14570841.17246  21633527.7034                   21633526.4924
  -1179512.55147   -618483.77844  23315631.1564                   23315630.8634
 -57178872.56247 -44530271.91045  22140977.1644                   22140975.3244
 -28244362.17648 -21985335.86146  21303278.5164                   21303277.0394
  -6104790.97747  -4738313.09144  23725394.5554                   23725392.7734
 11  9 26  1 11 30.0000000  0 10G02G29G12G30G25G15G18G05G26G21
 -78226240.04746 -60931138.90544  23115907.8204                   23115905.4884
 -40362062.39848 -31429097.67247  20380198.1094                   20380196.0984
 -53587020.08646 -41732089.44943  24338934.7664                   24338937.6954
 -22698610.94947 -17664220.23144  23142758.7504                   23142758.9414
 -41817763.39847 -32560531.50745  23065887.1174                   23065890.4064
 -18903729.18748 -14707255.57046  21600214.1954                   21600212.0744
  -1353228.60546   -753846.71544  23282573.3594                   23282573.7234
 -57198077.54347 -44545236.81845  22137322.6564                   22137320.7584
 -28378389.89147 -22089772.99046  21277773.9384                   21277772.4804
  -6265870.09847  -4863829.10144  23694741.7974                   23694739.9804
 11  9 26  1 12  0.0000000  0 10G02G29G12G30G25G15G18G05G26G21
 -78268198.56646 -60963833.85344  23107924.3674                   23107920.8524
 -40496890.27747 -31534158.31647  20354541.1094                   20354539.4964
 -53593383.18446 -41737047.85443  24337724.0004                   24337727.1684
 -22746417.47747 -17701472.09544  23133661.2274                   23133662.4924
 -41840102.42647 -32577938.57545  23061636.6724                   23061639.5594
 -19078392.41447 -14843356.70146  21566976.7974                   21566975.6644
  -1526675.53947   -888999.94444  23249567.8134                   23249567.1994
 -57217106.78947 -44560064.79245  22133701.6564                   22133699.5204
 -28511759.67247 -22193697.42246  21252394.2504                   21252392.6954
  -6426955.94947  -4989350.38544  23664087.6024                   23664085.1374
 11  9 26  1 12 30.0000000  0 10G02G29G12G30G25G15G18G05G26G21
 -78309990.47746 -60996399.01844  23099970.6174                   23099967.6724
 -40631221.60548 -31638832.02947  20328978.5394                   20328977.1024
 -53599804.52746 -41742051.68543  24336502.6024                   24336505.8134
 -22793835.61347 -17738421.30444  23124637.6024                   23124638.7814
 -41862237.89847 -32595186.98645  23057424.7194                   23057427.8284
 -19252649.00848 -14979140.96646  21533816.7504                   21533815.3754
  -1699850.90247  -1023941.61944  23216613.0704                   23216613.8404
 -57235960.42248 -44574755.93445  22130114.0704                   22130111.5394
 -28644467.48847 -22297106.07146  21227141.0314                   21227139.2934
  -6588046.87947  -5114875.69644  23633433.4844                   23633431.6414
 11  9 26  1 13  0.0000000  0 10G02G29G12G30G25G15G18G05G26G21
 -78351615.26646 -61028833.91744  23092049.7424                   23092046.6724
 -40765054.74247 -31743117.53947  20303511.0704                   20303509.2974
 -53606286.33646 -41747102.58643  24335269.4224                   24335273.0944
 -22840868.05147 -17775069.96944  23115687.1094                   23115689.0824
 -41884172.80547 -32612279.11345  23053250.6254                   23053252.7704
 -19426496.24648 -15114606.26446  21500734.6334                   21500733.3594
  -1872753.77747  -1158670.94944  23183710.9064                   23183710.5204
 -57254640.69547 -44589311.97445  22126558.6954                   22126557.0944
 -28776511.31647 -22399997.31946  21202013.7584                   21202012.0864
  -6749143.09046  -5240405.06444  23602777.7114                   23602776.2114
 11  9 26  1 13 30.0000000  0 10G02G29G12G30G25G15G18G05G26G21
 -76817653.05546 -59833538.69844  23383952.9534                   23383950.0004
 -39322964.84048 -30619411.07147  20577931.6094                   20577929.6644
 -52037412.78946 -40524603.82743  24633815.8444                   24633818.5984
 -21312097.80547 -16583820.41644  23406603.5314                   23406605.0164
 -40330491.12947 -31401618.06345  23348906.4144                   23348909.3754
 -18024506.49248 -14022146.62646  21767524.3674                   21767523.3714
   -469959.43447    -65584.22144  23450653.6724                   23450653.6134
 -55697730.19147 -43376134.95045  22422829.2584                   22422827.2304
 -27332466.31248 -21274767.38546  21476806.4694                   21476805.2664
  -5334820.33647  -4138335.22144  23871914.7194                   23871913.2274
 11  9 26  1 14  0.0000000  0 10G02G29G12G30G25G15G18G05G26G21
 -76858945.38746 -59865714.55544  23376095.5784                   23376092.5434
 -39455798.36348 -30722917.66447  20552654.0554                   20552652.4064
 -52044026.23846 -40529757.37343  24632557.9844                   24632560.8554
 -21358370.28547 -16619876.86144  23397797.0394                   23397798.7774
 -40352036.84047 -31418406.95045  23344805.9614                   23344808.8714
 -18197528.25047 -14156968.68746  21734599.6174                   21734597.9104
   -642318.96947   -199890.11144  23417854.8914                   23417854.1334
 -55716072.12547 -43390427.33245  22419338.6484                   22419337.5204
 -27463178.54348 -21376621.00846  21451933.0314                   21451930.9654
  -5495929.04347  -4263874.38144  23841255.7584                   23841253.9614
 11  9 26  1 14 30.0000000  0 10G02G29G12G30G25G15G18G05G26G21
 -76900070.77346 -59897760.34144  23368270.6024                   23368266.5664
 -39588129.21148 -30826032.56347  20527472.4064                   20527470.1294
 -52050709.22746 -40534964.99743  24631286.2894                   24631289.4024
 -21404266.96147 -16655640.51844  23389063.2034                   23389064.5634
 -40373392.53947 -31435047.77145  23340742.4384                   23340745.6054
 -18370132.95347 -14291465.77146  21701753.7274                   21701752.3444
   -814405.77047   -333983.53944  23385107.5164                   23385107.1174
 -55734248.24247 -43404590.55945  22415880.0864                   22415878.2894
 -27593222.09848 -21477953.59646  21427186.0474                   21427184.5634
  -5657044.01246  -4389418.43244  23810596.8914                   23810595.1764
 11  9 26  1 15  0.0000000  0 10G02G29G12G30G25G15G18G05G26G21
 -76941027.98046 -59929675.08644  23360476.4064                   23360472.2734
 -39719955.07448 -30928753.97747  20502386.4844                   20502384.7234
 -52057463.94946 -40540228.61144  24630001.5004                   24630004.0664
 -21449790.16047 -16691113.14544  23380400.8204                   23380401.7894
 -40394560.72747 -31451542.44045  23336714.2814                   23336716.6484
 -18542317.35547 -14425635.35346  21668988.1254                   21668986.5394
   -986218.45347   -467863.36444  23352412.0004                   23352412.0004
 -55752260.02747 -43418625.68545  22412452.0634                   22412450.7424
 -27722594.55547 -21578763.24746  21402567.2814                   21402565.7854
  -5818164.69146  -4514966.86844  23779936.6024                   23779935.3284
 11  9 26  1 15 30.0000000  0 10G02G29G12G30G25G15G18G05G26G21
 -76981816.40246 -59961458.27344  23352713.8284                   23352711.3444
 -39851273.26248 -31031079.78547  20477397.6954                   20477395.6294
 -52064292.34046 -40545549.65443  24628702.5164                   24628704.0904
 -21494942.10947 -16726296.40644  23371808.5234                   23371809.1024
 -40415543.83647 -31467892.93745  23332721.4694                   23332724.0554
 -18714077.95348 -14559474.70646  21636303.1024                   21636301.5514
  -1157756.00447   -601528.76544  23319769.0704                   23319769.1524
 -55770108.49247 -43432533.56545  22409056.0004                   22409054.2464
 -27851292.93747 -21679047.64146  21378076.7894                   21378075.2734
  -5979290.05946  -4640518.99444  23749274.8754                   23749273.4694
 11  9 26  1 16  0.0000000  0 10G02G29G12G30G25G15G18G05G26G21
 -77022433.86746 -59993108.30544  23344985.2274                   23344981.8714
 -39982080.48048 -31133007.43547  20452506.1334                   20452503.9924
 -52071195.14846 -40550928.66044  24627389.0474                   24627392.1454
 -21539724.13747 -16761191.52544  23363287.1954                   23363287.7344
 -40436343.43447 -31484100.42944  23328762.7814                   23328765.9844
 -18885410.52348 -14692980.50046  21603699.4924                   21603698.2234
  -1329016.37147   -734978.18944  23287180.3444                   23287179.5594
 -55787794.42647 -43446314.81045  22405690.2584                   22405688.7544
 -27979314.07447 -21778804.31146  21353715.3284                   21353713.6374
  -6140418.73046  -4766073.69644  23718613.6174                   23718611.9534
 11  9 26  1 16 30.0000000  0 10G02G29G12G30G25G15G18G05G26G21
 -77062884.88346 -60024628.56644  23337287.9224                   23337284.1844
 -40112379.80548 -31234539.32947  20427710.5394                   20427708.6604
 -52078180.28546 -40556371.84144  24626059.5394                   24626062.5784
 -21584144.37547 -16795804.68844  23354834.0234                   23354835.7344
 -40456967.65647 -31500171.24844  23324838.3444                   23324840.6994
 -19056317.05948 -14826154.35646  21571177.2114                   21571175.6844
  -1500004.02347   -868215.11344  23254642.0004                   23254641.7974
 -55805325.15647 -43459975.10045  22402354.1094                   22402352.9224
 -28106661.25048 -21878035.82545  21329482.1254                   21329480.5474
  -6301555.82846  -4891634.95944  23687949.6334                   23687948.5274
 11  9 26  1 17  0.0000000  0 10G02G29G12G30G25G15G18G05G26G21
 -77103165.23846 -60056015.87144  23329622.4924                   23329619.1414
 -40242166.09848 -31335671.46147  20403013.0004                   20403011.4264
 -52085246.46146 -40561878.12144  24624715.6804                   24624717.6294
 -21628201.72747 -16830135.06544  23346449.3444                   23346451.2934
 -40477415.80547 -31516104.88944  23320947.3674                   23320949.6454
 -19226791.02348 -14958991.11346  21538736.5944                   21538734.9264
  -1670714.37547  -1001235.92144  23222156.1484                   23222156.5274
 -55822698.56647 -43473512.79945  22399048.0554                   22399046.3094
 -28233328.91048 -21976737.84946  21305377.5394                   21305375.8714
  -6462697.32447  -5017199.72444  23657286.5084                   23657284.1564
 11  9 26  1 17 30.0000000  0 10G02G29G12G30G25G15G18G05G26G21
 -77143275.34046 -60087270.49744  23321989.9304                   23321986.9264
 -40371438.21548 -31436402.92047  20378413.5784                   20378411.3874
 -52092396.44946 -40567449.78744  24623354.9224                   24623358.5204
 -21671899.84847 -16864185.55144  23338134.8914                   23338135.4924
 -40497691.54347 -31531904.15444  23317089.2504                   23317091.9614
 -19396830.42647 -15091489.27046  21506379.0864                   21506377.4574
  -1841147.97347  -1134041.09744  23189723.8754                   23189722.7194
 -55839917.50047 -43486930.13245  22395771.4844                   22395769.4574
 -28359315.62548 -22074909.26045  21281403.0634                   21281401.4414
  -6623843.87547  -5142768.35244  23626620.2664                   23626618.6764
 11  9 26  1 18  0.0000000  0 10G02G29G12G30G25G15G18G05G26G21
 -77183213.89546 -60118391.47844  23314389.7034                   23314386.5554
 -40500193.30548 -31536731.52447  20353912.2734                   20353909.9494
 -52099632.30946 -40573088.28843  24621977.7584                   24621980.0744
 -21715240.84847 -16897957.71144  23329886.8834                   23329888.1214
 -40517797.17647 -31547570.90944  23313263.0944                   23313265.8714
 -19566431.59847 -15223645.93346  21474105.5234                   21474103.3874
  -2011303.20346  -1266629.35544  23157344.0944                   23157343.5394
 -55856983.09447 -43500227.99845  22392524.5084                   22392522.0784
 -28484619.11748 -22172548.28246  21257558.6334                   21257556.8054
  -6784994.42247  -5268340.12644  23595954.0864                   23595953.2304
 11  9 26  1 18 30.0000000  0 10G02G29G12G30G25G15G18G05G26G21
 -77222979.60947 -60149377.75844  23306823.1804                   23306820.0084
 -40628428.76248 -31636655.20247  20329509.7664                   20329507.8054
 -52106955.29346 -40578794.66543  24620583.8134                   24620587.1954
 -21758226.79747 -16931453.22844  23321707.5634                   23321707.7154
 -40537734.89847 -31563106.79444  23309468.7194                   23309471.5274
 -19735590.82448 -15355458.26246  21441915.2194                   21441913.5984
  -2181178.76647  -1398999.68744  23125018.0084                   23125016.7934
 -55873896.50047 -43513407.23645  22389305.8054                   22389303.7734
 -28609236.55148 -22269652.72145  21233844.8054                   21233842.9064
  -6946147.95347  -5393914.22244  23565288.1804                   23565286.8284
 11  9 26  1 19  0.0000000  0 10G02G29G12G30G25G15G18G05G26G21
 -77262574.82047 -60180231.15744  23299288.1804                   23299285.2194
 -40756145.84848 -31736174.98247  20305206.0784                   20305204.2664
 -52114371.38346 -40584573.67644  24619173.6094                   24619176.5124
 -21800863.41847 -16964676.57044  23313593.9694                   23313593.9924
 -40557510.63347 -31578516.48344  23305705.7814                   23305708.6954
 -19904308.17248 -15486926.24046  21409809.3054                   21409808.2464
  -2350776.91447  -1531153.89844  23092744.3284                   23092743.9694
 -55890662.58647 -43526471.73245  22386115.1724                   22386113.4964
 -28733169.29748 -22366223.63645  21210261.4144                   21210259.3794
  -7107307.27047  -5519492.85644  23534620.1644                   23534618.4064
 11  9 26  1 19 30.0000000  0 10G02G29G12G30G25G15G18G05G26G21
 -77301997.48447 -60210950.13244  23291786.3054                   23291782.9734
 -40883341.02748 -31835288.06247  20281001.2894                   20280999.2664
 -52121880.65646 -40590425.26343  24617744.9534                   24617748.0784
 -21843151.87546 -16997628.59544  23305546.3444                   23305547.2464
 -40577125.64547 -31593800.91444  23301973.2894                   23301976.0744
 -20072579.28148 -15618046.51546  21377788.2504                   21377786.8874
  -2520095.50047  -1663090.26944  23060523.5084                   23060522.9694
 -55907281.64847 -43539421.65045  22382952.8834                   22382951.1484
 -28856413.66448 -22462258.14846  21186808.2114                   21186807.0354
  -7268470.34047  -5645074.39544  23503952.1954                   23503950.9614
 11  9 26  1 20  0.0000000  0 10G02G29G12G30G25G15G18G05G26G21
 -77341248.06247 -60241535.01944  23284316.6954                   23284313.5944
 -41010013.38748 -31933993.75947  20256896.2894                   20256894.7234
 -52129486.70346 -40596352.25843  24616297.7734                   24616300.7424
 -21885096.11347 -17030312.39144  23297564.9304                   23297565.2034
 -40596583.96147 -31608963.25744  23298270.2504                   23298274.0864
 -20240402.39847 -15748817.70346  21345852.4064                   21345850.8204
  -2689134.71147  -1794808.89844  23028356.7734                   23028355.3054
 -55923756.48447 -43552259.19445  22379817.6254                   22379815.6024
 -28978969.30948 -22557756.00945  21163487.0084                   21163484.7304
  -7429638.32047  -5770659.71544  23473282.6334                   23473280.3714
 11  9 26  1 20 30.0000000  0 10G02G29G12G30G25G15G18G05G26G21
 -77380326.91846 -60271986.06544  23276880.8284                   23276877.4304
 -41136162.12148 -32032291.43247  20232891.1094                   20232889.1804
 -52137192.73445 -40602357.13342  24614830.2584                   24614833.6054
 -21926699.71147 -17062730.75444  23289648.0474                   23289648.3984
 -40615889.30147 -31624006.41244  23294596.7274                   23294599.8094
 -20407775.29347 -15879238.06446  21314002.4384                   21314000.7774
  -2857894.77047  -1926310.06544  22996242.3754                   22996241.0784
 -55940089.59047 -43564986.28345  22376709.7424                   22376707.1764
 -29100835.05948 -22652716.27845  21140296.4384                   21140294.5634
  -7590811.43447  -5896249.05744  23442612.9534                   23442610.7934
 11  9 26  1 21  0.0000000  0  9G02G29G30G25G15G18G05G26G21
 -77419233.80947 -60302303.12644  23269476.7584                   23269473.2074
 -41261785.77048 -32130179.96347  20208985.5784                   20208983.5824
 -21967966.00847 -17094886.33444  23281794.9064                   23281796.3554
 -40635045.02747 -31638932.95145  23290952.2194                   23290954.9344
 -20574695.46548 -16009305.65946  21282238.6334                   21282236.7624
  -3026375.56247  -2057593.61744  22964181.5164                   22964180.0044
 -55956283.43747 -43577604.85445  22373628.2664                   22373625.7154
 -29222009.64548 -22747137.98345  21117237.4614                   21117235.7854
  -7751990.09847  -6021842.71144  23411941.1884                   23411938.9264
 11  9 26  1 21 30.0000000  0  9G02G29G30G25G15G18G05G26G21
 -75882546.30547 -59104884.27744  23561898.7344                   23561895.1994
 -39811458.04348 -31000054.43347  20484973.7274                   20484971.8094
 -20433475.71946 -15899179.56744  23573798.6804                   23573799.3794
 -39078632.78147 -30426144.18744  23587127.2664                   23587130.2544
 -19165734.16448 -14911413.66846  21550354.8284                   21550352.5944
  -1619150.33247   -961054.28844  23231966.8054                   23231966.1684
 -54396918.70347 -42362515.43445  22670365.6024                   22670362.8204
 -27767066.64548 -21613416.12246  21394104.0474                   21394102.2734
  -6337747.53147  -4919835.39844  23681062.1804                   23681060.0554
 11  9 26  1 22  0.0000000  0  9G02G29G30G25G15G18G05G26G21
 -75921096.81646 -59134923.63044  23554562.9924                   23554559.8444
 -39936015.77348 -31097112.36247  20461271.0864                   20461269.0984
 -20474064.97346 -15930807.55544  23566075.5704                   23566075.9264
 -39097487.16447 -30440835.91145  23583539.2734                   23583542.0824
 -19331730.17647 -15040761.14246  21518766.6564                   21518765.0944
  -1787060.22346  -1091892.97244  23200015.1254                   23200013.3244
 -54412828.44147 -42374912.63145  22667337.7504                   22667335.7894
 -27886843.03948 -21706748.33845  21371311.0084                   21371309.6374
  -6498924.82447  -5045427.91644  23650390.5864                   23650389.9024
 11  9 26  1 22 30.0000000  0  9G02G29G30G25G15G18G05G26G21
 -75959460.63746 -59164817.51444  23547262.1484                   23547258.6684
 -40060029.86348 -31193746.69747  20437672.2734                   20437670.1804
 -20514312.23846 -15962169.03544  23558416.0084                   23558416.6374
 -39116187.51647 -30455407.65045  23579981.0314                   23579984.3874
 -19497251.83648 -15169738.99946  21487269.3204                   21487267.2624
  -1954675.94947  -1222502.46244  23168118.6094                   23168117.7194
 -54428591.43447 -42387195.48345  22664338.1094                   22664336.3754
 -28005910.25448 -21799527.94445  21348653.5704                   21348651.6414
  -6660093.46947  -5171013.75944  23619721.7584                   23619720.4614
 11  9 26  1 23  0.0000000  0  9G02G29G30G25G15G18G05G26G21
 -75997641.16447 -59194568.63344  23539996.9534                   23539993.4774
 -40183502.73848 -31289959.30447  20414176.4064                   20414174.4064
 -20554224.21946 -15993269.26544  23550821.1724                   23550821.4104
 -39134740.69547 -30469864.68045  23576449.6334                   23576453.2034
 -19662300.38747 -15298348.19346  21455861.2344                   21455859.9064
  -2122000.93047  -1352885.42744  23136277.7344                   23136276.7154
 -54444212.80147 -42399367.96945  22661365.5704                   22661363.7344
 -28124270.66448 -21891756.79345  21326130.5314                   21326128.5664
  -6821257.03547  -5296595.61044  23589053.5394                   23589051.3754
 11  9 26  1 23 30.0000000  0  9G02G29G30G25G15G18G05G26G21
 -76035638.20746 -59224176.72244  23532765.7814                   23532762.6564
 -40306432.60248 -31385748.77647  20390783.4064                   20390781.0824
 -20593804.00447 -16024110.62744  23543290.1884                   23543289.4964
 -39153149.69947 -30484209.38744  23572946.7344                   23572950.3164
 -19826873.27748 -15426586.76746  21424543.9534                   21424542.3634
  -2289034.65647  -1483041.42644  23104491.6484                   23104490.2734
 -54459694.95747 -42411431.99545  22658419.5554                   22658418.1094
 -28241922.86748 -21983433.79645  21303741.8284                   21303739.8364
  -6982415.43747  -5422173.41444  23558385.8134                   23558383.7704
 11  9 26  1 24  0.0000000  0  9G02G29G30G25G15G18G05G26G21
 -76073455.01646 -59253644.37744  23525569.6414                   23525566.3954
 -40428821.48448 -31481116.70947  20367493.4384                   20367491.3674
 -20633058.27047 -16054698.38344  23535820.0784                   23535820.6954
 -39171421.28547 -30498447.00344  23569470.1804                   23569472.9964
 -19990971.60948 -15554455.53146  21393317.3834                   21393315.5234
  -2455780.33646  -1612972.97044  23072761.1024                   23072759.7854
 -54475043.10947 -42423391.59245  22655498.6334                   22655497.0274
 -28358868.90248 -22074560.54345  21281487.7734                   21281485.6294
  -7143571.94147  -5547749.71944  23527718.4774                   23527717.0354
 11  9 26  1 24 30.0000000  0  9G02G29G30G25G15G18G05G26G21
 -76111091.46947 -59282971.49644  23518408.1334                   23518405.1024
 -40550668.57448 -31576062.47347  20344306.8054                   20344304.5554
 -20671990.39547 -16085035.06044  23528411.1724                   23528411.3444
 -39189558.84447 -30512580.16645  23566018.3594                   23566021.0634
 -20154593.05948 -15681952.71446  21362181.0944                   21362179.6604
  -2622237.74647  -1742679.92944  23041085.0394                   23041083.8364
 -54490259.65647 -42435248.63745  22652603.1484                   22652601.5434
 -28475107.94548 -22165136.36845  21259368.1334                   21259366.5434
  -7304726.92647  -5673324.84044  23497051.9064                   23497049.2934
 11  9 26  1 25  0.0000000  0  9G02G29G30G25G15G18G05G26G21
 -76148549.66847 -59312159.71244  23511280.2194                   23511276.5434
 -40671975.01248 -31670586.93547  20321222.5474                   20321221.1684
 -20710606.12147 -16115125.26344  23521062.6954                   23521064.1684
 -39207568.22747 -30526613.48944  23562591.2814                   23562595.3324
 -20317737.92247 -15809078.53446  21331135.5864                   21331133.6024
  -2788409.75847  -1872164.48344  23009463.8054                   23009462.6294
 -54505349.25447 -42447006.75645  22649731.5704                   22649729.7344
 -28590641.22348 -22255162.26645  21237382.7344                   21237380.6684
  -7465882.87946  -5798900.74844  23466384.3674                   23466382.4064
 11  9 26  1 25 30.0000000  0  9G02G29G30G25G15G18G05G26G21
 -76185827.27047 -59341207.18644  23504185.9844                   23504182.6884
 -40792736.90648 -31764687.08647  20298242.6804                   20298240.6994
 -20748906.28546 -16144969.51344  23513774.4144                   23513774.8984
 -39225450.18047 -30540547.52744  23559188.9534                   23559192.0594
 -20480401.21547 -15935829.08946  21300181.8364                   21300179.8204
  -2954293.70747  -2001424.57344  22977897.1174                   22977895.5234
 -54520311.52347 -42458665.65745  22646884.1254                   22646881.6454
 -28705465.79348 -22344635.90445  21215531.9224                   21215530.5354
  -7627037.38346  -5924475.50844  23435717.5474                   23435715.2114
 11  9 26  1 26  0.0000000  0  9G02G29G30G25G15G18G05G26G21
 -76222926.62947 -59370115.77744  23497126.6954                   23497123.3014
 -40912955.70348 -31858364.05547  20275366.0234                   20275363.6764
 -20786896.60547 -16174572.36944  23506545.4614                   23506546.4734
 -39243210.57847 -30554386.81444  23555808.5474                   23555812.3834
 -20642583.31248 -16062204.68746  21269318.9144                   21269317.3484
  -3119891.71147  -2130461.83144  22946384.8754                   22946383.6414
 -54535151.40247 -42470229.21745  22644060.2734                   22644057.8164
 -28819582.79748 -22433558.21946  21193816.6254                   21193814.5394
  -7788193.17647  -6050051.28344  23405050.1024                   23405047.6334
 11  9 26  1 26 30.0000000  0  9G02G29G30G25G15G18G05G26G21
 -76259845.35947 -59398883.67444  23490101.5004                   23490098.1914
 -41032627.74248 -31951614.96747  20252592.7424                   20252590.7274
 -20824578.12947 -16203934.60644  23499374.6024                   23499376.0984
 -39260850.28147 -30568132.05744  23552451.6564                   23552454.6334
 -20804279.36748 -16188201.55946  21238549.8204                   21238547.5824
  -3285201.42247  -2259274.51044  22914926.6334                   22914926.0904
 -54549868.46547 -42481697.03045  22641259.6644                   22641257.5864
 -28932988.69548 -22521926.42545  21172236.0944                   21172234.2034
  -7949347.70347  -6175626.07544  23374383.5234                   23374380.9224
 11  9 26  1 27  0.0000000  0  9G02G29G30G25G15G18G05G26G21
 -76296584.64547 -59427511.68944  23483109.4304                   23483107.0394
 -41151753.06648 -32044439.86647  20229924.0784                   20229922.2774
 -20861955.35947 -16233059.68544  23492261.8284                   23492262.3554
 -39278373.82447 -30581786.81044  23549117.6724                   23549121.4694
 -20965488.66448 -16313819.11746  21207872.3594                   21207870.5434
  -3450224.01247  -2387863.41644  22883524.0084                   22883524.1804
 -54564466.00847 -42493071.71845  22638482.1174                   22638480.5474
 -29045684.09448 -22609740.98845  21150790.5084                   21150788.9064
  -8110502.12947  -6301200.77544  23343716.7504                   23343714.1724
 11  9 26  1 27 30.0000000  0  9G02G29G30G25G15G18G05G26G21
 -76333145.42647 -59456000.66044  23476152.3284                   23476149.9654
 -41270332.10548 -32136839.09247  20207359.0234                   20207357.2544
 -20899033.05547 -16261951.42344  23485206.3364                   23485207.3484
 -39295786.09047 -30595354.85344  23545804.0004                   23545807.6564
 -21126210.32848 -16439056.74246  21177288.0864                   21177286.2814
  -3614960.93447  -2516229.75044  22852175.9774                   22852174.3134
 -54578947.80547 -42504356.26045  22635726.2974                   22635724.8984
 -29157669.64548 -22697002.42246  21129480.9064                   21129478.6484
  -8271657.97347  -6426776.63144  23313049.7974                   23313047.8754
 11  9 26  1 28  0.0000000  0  9G02G29G30G25G15G18G05G26G21
 -76369526.25047 -59484349.37044  23469230.0394                   23469226.8794
 -41388361.30948 -32228809.87347  20184898.8754                   20184897.1054
 -20935812.29347 -16290610.55044  23478207.3914                   23478208.6254
 -39313087.95747 -30608836.81544  23542511.7424                   23542514.0984
 -21286439.62147 -16563910.66946  21146797.6334                   21146795.4064
  -3779409.44947  -2644371.31844  22820881.9224                   22820881.4654
 -54593313.33247 -42515550.18345  22632992.8054                   22632990.8634
 -29268942.03148 -22783708.14745  21108306.1414                   21108304.1294
  -8432813.01247  -6552351.83444  23282383.1024                   23282381.0434
 11  9 26  1 28 30.0000000  0  9G02G29G30G25G15G18G05G26G21
 -76405729.72346 -59512559.86444  23462339.5084                   23462337.0704
 -41505842.74248 -32320353.82147  20162543.1174                   20162540.8014
 -20972299.73846 -16319042.34444  23471263.9454                   23471264.9924
 -39330286.10547 -30622238.08344  23539239.1414                   23539242.1174
 -21446177.74247 -16688381.87846  21116400.3364                   21116398.4454
  -3943573.22747  -2772291.04744  22789642.3444                   22789642.3324
 -54607568.39547 -42526658.02245  22630279.8134                   22630278.3014
 -29379504.07448 -22869860.35646  21087267.1804                   21087265.1524
  -8593970.90646  -6677929.29244  23251716.0474                   23251713.9384
 11  9 26  1 29  0.0000000  0  9G02G29G30G25G15G18G05G26G21
 -76441754.25046 -59540631.01344  23455484.9774                   23455481.7934
 -41622774.04348 -32411469.09147  20140291.7584                   20140289.7194
 -21008497.18747 -16347248.11644  23464376.0314                   23464377.0084
 -39347382.27347 -30635559.80844  23535986.1884                   23535989.3404
 -21605421.27048 -16812467.67446  21086097.4064                   21086095.1644
  -4107450.68047  -2899987.64444  22758457.5164                   22758457.0824
 -54621713.31647 -42537680.04145  22627588.1804                   22627586.6454
 -29489353.35248 -22955457.15446  21066363.4224                   21066361.7034
  -8755130.02047  -6803507.66544  23221047.7734                   23221045.9844
 11  9 26  1 29 30.0000000  0  9G02G29G30G25G15G18G05G26G21
 -74902177.94547 -58340961.15044  23748456.1564                   23748453.7304
 -40163729.59048 -31274551.31547  20417938.5084                   20417936.8364
 -19468986.14547 -15147629.12044  23757335.1884                   23757336.4184
 -37788958.62147 -29421203.72844  23832544.6884                   23832547.1884
 -20188741.78148 -15708561.52246  21355682.5314                   21355680.5004
  -2695615.76247  -1799856.45244  23027121.3754                   23027120.3364
 -53060329.30547 -41321017.17145  22924709.7894                   22924707.6454
 -28023064.87948 -21812894.67345  21345388.8674                   21345386.8954
  -7340864.11347  -5701482.14244  23490173.4924                   23490171.5744
 11  9 26  1 30  0.0000000  0  9G02G29G30G25G15G18G05G26G21
 -74937843.44947 -58368752.47944  23741670.3054                   23741667.2464
 -40279556.12148 -31364805.72647  20395897.1334                   20395895.7974
 -19504612.48047 -15175389.88944  23750555.3754                   23750555.8634
 -37805859.63747 -29434373.38444  23829328.0084                   23829330.7974
 -20346988.12147 -15831870.29746  21325569.1884                   21325566.9534
  -2858919.39547  -1927105.93944  22996045.8054                   22996044.7464
 -53074259.39147 -41331871.78345  22922059.2034                   22922056.9614
 -28131485.21548 -21897378.00445  21324757.1094                   21324755.3794
  -7502024.18047  -5827061.28344  23459505.5864                   23459503.4534
 11  9 26  1 30 30.0000000  0  9G02G29G30G25G15G18G05G26G21
 -74973332.27046 -58396406.14344  23734916.5394                   23734913.5904
 -40394831.22748 -31454630.45847  20373961.1804                   20373959.5904
 -19539961.16847 -15202934.30244  23743829.1024                   23743830.5084
 -37822670.81247 -29447473.05344  23826129.3054                   23826131.9224
 -20504735.71548 -15954790.44446  21295550.5314                   21295548.6524
  -3021938.84847  -2054133.97144  22965024.2584                   22965023.2304
 -53088088.00047 -41342647.31745  22919427.2734                   22919425.2934
 -28239192.98048 -21981306.10746  21304260.8594                   21304259.1454
  -7663187.48447  -5952642.93244  23428837.4064                   23428834.8954
 11  9 26  1 31  0.0000000  0  9G02G29G30G25G15G18G05G26G21
 -75008642.01246 -58423920.27344  23728197.0314                   23728194.2624
 -40509552.19948 -31544023.39347  20352130.7504                   20352128.6684
 -19575033.32446 -15230263.26643  23737155.1954                   23737155.7384
 -37839393.21547 -29460503.54444  23822947.3594                   23822950.2854
 -20661979.77047 -16077318.21646  21265627.7734                   21265625.7194
  -3184672.04347  -2180938.95444  22934056.9064                   22934055.5784
 -53101814.98047 -41353343.63045  22916815.5084                   22916813.4654
 -28346185.38348 -22064676.76145  21283900.8444                   21283898.8364
  -7824352.12147  -6078225.63344  23398168.5234                   23398166.3554
 11  9 26  1 31 30.0000000  0  9G02G29G30G25G15G18G05G26G21
 -75043774.64546 -58451296.36244  23721511.2344                   23721508.9264
 -40623720.06248 -31632985.35147  20330405.1804                   20330403.5704
 -19609834.37146 -15257380.94844  23730532.5864                   23730533.7234
 -37856032.18447 -29473469.02644  23819781.1254                   23819784.2074
 -20818720.39848 -16199453.71446  21235801.3204                   21235799.0744
  -3347121.06647  -2307522.46744  22903143.7114                   22903142.3674
 -53115444.40247 -41363963.95645  22914222.0474                   22914219.7704
 -28452463.75047 -22147491.03546  21263676.2584                   21263674.7384
  -7985520.01247  -6203810.90244  23367499.3754                   23367496.7544
 11  9 26  1 32  0.0000000  0  9G02G29G30G25G15G18G05G26G21
 -75078729.19546 -58478533.68144  23714860.1644                   23714857.1724
 -40737332.79748 -31721514.71947  20308785.4144                   20308783.4344
 -19644366.65247 -15284289.18943  23723961.2974                   23723962.5594
 -37872589.91047 -29486371.17744  23816629.9304                   23816632.8754
 -20974954.39848 -16321194.42246  21206070.7974                   21206068.5984
  -3509284.70347  -2433883.59744  22872284.1094                   22872282.8524
 -53128977.28147 -41374509.05445  22911646.4304                   22911644.6294
 -28558026.27748 -22229747.50446  21243588.6954                   21243587.0314
  -8146689.63747  -6329397.49344  23336829.6484                   23336827.7774
 11  9 26  1 32 30.0000000  0  9G02G29G30G25G15G18G05G26G21
 -75113505.11746 -58505631.84544  23708242.7894                   23708239.5944
 -40850388.46948 -31809610.03347  20287271.4844                   20287269.5704
 -19678632.81646 -15310990.09943  23717440.2584                   23717441.5044
 -37889069.07447 -29499212.15644  23813493.8834                   23813497.5234
 -21130679.41048 -16442538.52746  21176437.3984                   21176435.2894
  -3671162.50047  -2560022.04744  22841479.8594                   22841478.9414
 -53142415.09047 -41384980.06145  22909088.5314                   22909087.8164
 -28662872.12948 -22311445.52146  21223637.1334                   21223635.2774
  -8307860.78547  -6454985.26544  23306159.8674                   23306157.0164
 11  9 26  1 33  0.0000000  0  9G02G29G30G25G15G18G05G26G21
 -75148100.39846 -58532589.22544  23701659.3524                   23701655.6524
 -40962884.32848 -31897269.13247  20265864.2034                   20265862.3674
 -19712634.45746 -15337484.86444  23710970.3364                   23710971.5004
 -37905471.04347 -29511992.97844  23810372.6644                   23810376.8094
 -21285891.36348 -16563482.85446  21146901.5314                   21146899.6884
  -3832752.52047  -2685936.19344  22810730.9844                   22810729.1024
 -53155758.00447 -41395377.15345  22906549.7974                   22906548.6054
 -28766998.91447 -22392583.23846  21203822.7734                   21203820.5084
  -8469031.25847  -6580572.55544  23275490.2344                   23275486.9454
 11  9 26  1 33 30.0000000  0  9G02G29G30G25G15G18G05G26G21
 -75182516.71147 -58559407.18244  23695110.6484                   23695107.5984
 -41074821.16048 -31984492.60747  20244563.2814                   20244561.3674
 -19746376.66447 -15363777.48543  23704549.7424                   23704550.6644
 -37921800.81647 -29524717.50544  23807264.8524                   23807269.0204
 -21440589.96548 -16684027.15446  21117463.6094                   21117461.4654
  -3994056.57047  -2811627.52844  22780035.4384                   22780034.0554
 -53169009.71147 -41405703.18545  22904028.4774                   22904026.3284
 -28870407.98048 -22473161.66145  21184144.3364                   21184142.1454
  -8630202.95747  -6706160.76544  23244820.1174                   23244817.2424
 11  9 26  1 34  0.0000000  0  9G02G29G30G25G15G18G05G26G21
 -75216754.64146 -58586086.10744  23688594.7894                   23688591.9344
 -41186199.41848 -32071280.84247  20223368.7194                   20223367.1414
 -19779863.79347 -15389871.35044  23698176.7734                   23698177.6804
 -37938062.59847 -29537389.11344  23804170.4534                   23804174.6764
 -21594774.29348 -16804170.72846  21088122.9454                   21088121.0354
  -4155075.93047  -2937097.00144  22749394.4454                   22749392.8794
 -53182173.24247 -41415960.49045  22901524.1724                   22901522.3164
 -28973099.68047 -22553181.13446  21164602.5164                   21164601.1844
  -8791376.84447  -6831750.70744  23214149.2584                   23214146.5474
 11  9 26  1 34 30.0000000  0  9G02G29G30G25G15G18G05G26G21
 -75250812.40246 -58612624.66644  23682113.8134                   23682111.0704
 -41297015.43048 -32157630.95147  20202281.0554                   20202279.3914
 -19813096.93446 -15415767.32043  23691853.5394                   23691854.2194
 -37954257.37547 -29550008.49644  23801089.0164                   23801093.2464
 -21748439.88348 -16923910.08546  21058880.8364                   21058879.0704
  -4315808.37147  -3062342.93144  22718808.2504                   22718806.2384
 -53195248.42647 -41426148.91945  22899035.5634                   22899033.4924
 -29075071.52347 -22632639.67046  21145198.0784                   21145196.0234
  -8952550.43747  -6957340.44044  23183478.9224                   23183475.6994
 11  9 26  1 35  0.0000000  0  9G02G29G30G25G15G18G05G26G21
 -75284693.53946 -58639025.57844  23675667.0554                   23675663.5824
 -41407272.31648 -32243545.40047  20181299.9224                   20181297.6884
 -19846083.07446 -15441470.75644  23685576.0864                   23685576.9884
 -37970391.94946 -29562580.94244  23798018.7344                   23798022.5204
 -21901588.19948 -17043246.38446  21029737.6024                   21029735.8094
  -4476257.38347  -3187367.96044  22688274.8134                   22688273.3484
 -53208240.54747 -41436272.61945  22896563.7114                   22896560.9344
 -29176326.69547 -22711539.76546  21125929.8914                   21125928.2154
  -9113727.30547  -7082932.68944  23152808.2274                   23152805.0594
 11  9 26  1 35 30.0000000  0  9G02G29G30G25G15G18G05G26G21
 -75318397.66446 -58665288.52844  23669252.1724                   23669249.1604
 -41516968.84048 -32329023.18447  20160425.5084                   20160423.4774
 -19878825.27746 -15466984.16544  23679345.0474                   23679345.4534
 -37986469.25447 -29575108.78944  23794960.0164                   23794962.6374
 -22054217.49648 -17162178.24246  21000693.2114                   21000691.2424
  -4636422.93047  -3312172.13044  22657796.0944                   22657794.7734
 -53221151.46147 -41446333.07045  22894106.8284                   22894104.1294
 -29276864.50847 -22789880.86946  21106798.2894                   21106796.1844
  -9274907.21947  -7208527.32244  23122136.4614                   23122134.1644
 11  9 26  1 36  0.0000000  0  9G02G29G30G25G15G18G05G26G21
 -75351923.43446 -58691412.58043  23662873.4384                   23662870.5164
 -41626102.84048 -32414062.64047  20139657.8754                   20139656.0274
 -19911325.64146 -15492309.12544  23673160.5234                   23673162.0434
 -38002491.34847 -29587593.57744  23791910.7274                   23791913.9454
 -22206324.23448 -17280702.91046  20971748.2814                   20971746.4844
  -4796303.71547  -3436754.42845  22627372.3834                   22627370.0434
 -53233981.85247 -41456330.76745  22891664.7974                   22891662.5434
 -29376683.41447 -22867661.79146  21087802.6254                   21087801.8594
  -9436088.45347  -7334122.98444  23091464.9454                   23091462.2664
 11  9 26  1 36 30.0000000  0  9G02G29G30G25G15G18G05G26G21
 -75385270.32446 -58717397.17443  23656526.6954                   23656524.3014
 -41734673.30148 -32498662.98147  20118997.6174                   20118995.3754
 -19943587.14146 -15517447.97444  23667021.4224                   23667022.1214
 -38018460.91447 -29600037.50744  23788872.0864                   23788875.0594
 -22357906.31248 -17398818.76546  20942903.0084                   20942901.1804
  -4955899.34847  -3561114.52145  22597002.2734                   22597000.1914
 -53246733.34047 -41466266.99445  22889237.9064                   22889235.6884
 -29475782.74647 -22944882.02546  21068944.4924                   21068943.9574
  -9597270.63747  -7459719.40944  23060792.4844                   23060789.9964
 11  9 26  1 37  0.0000000  0  9G02G29G30G25G15G18G05G26G21
 -75418441.04347 -58743244.49544  23650215.5314                   23650212.3834
 -41842682.00048 -32582825.57447  20098444.3674                   20098441.9144
 -19975615.73846 -15542405.31943  23660925.6644                   23660926.9384
 -38034383.79347 -29612445.03144  23785842.3134                   23785845.0744
 -22508964.03548 -17516526.02146  20914157.5864                   20914156.0744
  -5115212.37947  -3685254.37444  22566685.1024                   22566684.1214
 -53259410.36747 -41476145.22845  22886825.5474                   22886823.8594
 -29574164.95348 -23021543.45246  21050223.3284                   21050221.8324
  -9758456.12147  -7585318.39845  23030119.9844                   23030118.0394
 11  9 26  1 37 30.0000000  0  9G02G29G30G25G15G18G05G26G21
 -73876011.47347 -57541351.36243  23943730.4064                   23943726.5084
 -40374701.24248 -31438944.45247  20377791.6334                   20377789.3404
 -18431990.97746 -14339580.79943  23954668.9534                   23954670.0044
 -36474839.75047 -28397215.91544  24082613.6644                   24082616.7234
 -21084067.91848 -16406217.30146  21185306.9454                   21185304.7234
  -3698815.37947  -2581568.27045  22836216.8444                   22836214.9414
 -51696591.56247 -40258364.32745  23184220.2274                   23184218.9144
 -28096403.65647 -21870041.12246  21331432.2344                   21331430.5824
  -8344216.64547  -6483313.53244  23299240.6334                   23299237.9614
 11  9 26  1 38  0.0000000  0  9G02G29G30G25G15G18G05G26G21
 -73908825.74646 -57566920.97443  23937486.1174                   23937482.1954
 -40481579.43048 -31522226.12347  20357453.5474                   20357451.4844
 -18463559.93446 -14364180.03344  23948660.9534                   23948661.1484
 -36490674.77047 -28409554.96744  24079599.9924                   24079602.9454
 -21234067.66848 -16523100.17346  21156762.8134                   21156760.8714
  -3857560.75847  -2705265.83644  22806008.6644                   22806006.2234
 -51709121.45347 -40268127.87745  23181836.1414                   23181834.1884
 -28193346.92647 -21945581.30846  21312984.3674                   21312983.0394
  -8505404.62147  -6608914.48744  23268567.5944                   23268564.1484
 11  9 26  1 38 30.0000000  0  9G02G29G30G25G15G18G05G26G21
 -73941461.21546 -57592351.19943  23931275.2504                   23931272.5234
 -40587891.22348 -31605066.46347  20337222.8444                   20337220.4304
 -18494903.60946 -14388603.68443  23942696.9924                   23942697.5554
 -36506470.15647 -28421863.13544  24076594.7274                   24076596.8554
 -21383534.94148 -16639568.13446  21128319.9694                   21128317.6254
  -4016021.64847  -2828741.71744  22775854.0314                   22775852.2624
 -51721580.38347 -40277836.13945  23179465.3984                   23179463.1254
 -28289569.96548 -22020560.27846  21294673.7344                   21294671.8134
  -8666593.03947  -6734515.80345  23237894.2114                   23237891.7424
 11  9 26  1 39  0.0000000  0  9G02G29G30G25G15G18G05G26G21
 -73973920.84846 -57617644.49443  23925099.1094                   23925094.9614
 -40693638.68448 -31687467.06047  20317099.8444                   20317097.7384
 -18526028.42647 -14412856.82343  23936774.3284                   23936775.2464
 -36522232.07847 -28434145.21144  24073595.3134                   24073598.1724
 -21532471.12948 -16755622.25246  21099978.6564                   21099976.3054
  -4174201.32447  -2951998.47444  22745754.0474                   22745751.3014
 -51733972.91447 -40287492.64045  23177107.5004                   23177104.2344
 -28385075.93047 -22094980.49246  21276499.5314                   21276498.0744
  -8827784.59047  -6860119.53745  23207220.8834                   23207217.6374
 11  9 26  1 39 30.0000000  0  9G02G29G30G25G15G18G05G26G21
 -74006202.60546 -57642799.07543  23918954.9614                   23918951.5394
 -40798819.11748 -31769425.81847  20297085.0004                   20297082.3834
 -18556935.68746 -14436940.37243  23930892.3204                   23930893.4844
 -36537961.64147 -28446402.07744  24070601.8914                   24070604.6054
 -21680872.34848 -16871259.51346  21071738.3594                   21071736.3484
  -4332097.82447  -3075034.58445  22715706.9384                   22715704.1844
 -51746298.88747 -40297097.29645  23174761.0554                   23174759.0354
 -28479862.44148 -22168840.09746  21258462.1414                   21258460.5084
  -8988977.17647  -6985724.09844  23176546.7034                   23176543.5354
 11  9 26  1 40  0.0000000  0  9G02G29G30G25G15G18G05G26G21
 -74038307.66046 -57667816.03143  23912846.6334                   23912843.7934
 -40903432.39848 -31850942.64347  20277177.6954                   20277175.2894
 -18587629.66046 -14460857.80543  23925051.2344                   23925053.2194
 -36553662.92247 -28458636.87644  24067614.8054                   24067617.0864
 -21828737.81648 -16986479.30746  21043600.6334                   21043598.1954
  -4489712.23447  -3197850.90244  22685713.7344                   22685712.0904
 -51758561.23047 -40306652.37345  23172427.7734                   23172425.8554
 -28573930.43748 -22242139.81046  21240561.8984                   21240560.0864
  -9150171.34847  -7111329.86845  23145872.3204                   23145869.2194
 11  9 26  1 40 30.0000000  0  9G02G29G30G25G15G18G05G26G21
 -74070237.36346 -57692696.41343  23906770.5944                   23906766.7814
 -41007479.94148 -31932018.62747  20257377.7664                   20257375.7424
 -18618115.19947 -14484612.76044  23919250.9304                   23919251.6804
 -36569340.57847 -28470853.30244  24064631.3984                   24064633.5634
 -21976067.12548 -17101281.32946  21015564.4384                   21015562.3444
  -4647046.02747  -3320448.57245  22655774.0084                   22655771.5004
 -51770763.26246 -40316160.48944  23170105.8834                   23170103.3674
 -28667281.58648 -22314880.95046  21222798.0164                   21222795.3674
  -9311368.59847  -7236938.04145  23115197.4534                   23115194.7974
 11  9 26  1 41  0.0000000  0  9G02G29G30G25G15G18G05G26G21
 -74101989.34446 -57717438.17343  23900727.2114                   23900725.2814
 -41110958.75048 -32012651.44147  20237686.0784                   20237684.3554
 -18648393.58646 -14508206.36343  23913488.0554                   23913489.5474
 -36584995.58647 -28483052.08244  24061652.2664                   24061655.2424
 -22122856.33248 -17215662.48446  20987631.6884                   20987629.6094
  -4804097.39847  -3442826.13345  22625888.4384                   22625885.8954
 -51782904.51646 -40325621.20544  23167795.1334                   23167793.3284
 -28759913.30548 -22387061.49346  21205170.3754                   21205168.6764
  -9472566.16047  -7362546.44945  23084522.7584                   23084520.0864
 11  9 26  1 41 30.0000000  0  9G02G29G30G25G15G18G05G26G21
 -74133563.57446 -57742041.50943  23894719.2894                   23894716.4264
 -41213867.71948 -32092840.23047  20218103.7664                   20218101.2304
 -18678467.88346 -14531640.89543  23907765.2194                   23907766.4184
 -36600630.81647 -28495235.38344  24058676.5704                   24058679.8554
 -22269103.41048 -17329621.20946  20959801.7974                   20959799.5164
  -4960866.60947  -3564983.87244  22596055.7664                   22596053.2624
 -51794986.81646 -40335035.99444  23165496.3914                   23165494.1054
 -28851825.85948 -22458681.65046  21187679.8834                   21187678.2274
  -9633764.10547  -7488155.14745  23053847.8754                   23053845.6254
 11  9 26  1 42  0.0000000  0  9G02G29G30G25G15G18G05G26G21
 -74164961.44546 -57766507.45943  23888743.9454                   23888742.3054
 -41316207.95748 -32172585.85347  20198628.7584                   20198626.7154
 -18708342.77046 -14554920.05343  23902080.5784                   23902081.5394
 -36616250.75847 -28507406.88544  24055704.9774                   24055707.9844
 -22414807.87548 -17443157.11246  20932075.1334                   20932073.1994
  -5117354.87547  -3686922.69745  22566277.3054                   22566274.7774
 -51807013.21946 -40344407.21545  23163208.5234                   23163206.0234
 -28943020.53947 -22529742.40646  21170326.0004                   21170323.9654
  -9794963.37547  -7613764.87445  23023172.2194                   23023169.7344
 11  9 26  1 42 30.0000000  0  9G02G29G30G25G15G18G05G26G21
 -74196183.36346 -57790836.32543  23882803.4384                   23882800.7344
 -41417978.66448 -32251887.68447  20179262.6724                   20179260.1564
 -18738021.90646 -14578046.67343  23896432.4224                   23896434.1994
 -36631858.80147 -28519569.04843  24052734.2894                   24052737.7934
 -22559968.47748 -17556269.23046  20904451.7814                   20904449.7704
  -5273562.57447  -3808642.88945  22536551.6954                   22536548.7194
 -51818986.11346 -40353736.72145  23160930.1724                   23160927.2584
 -29033498.09047 -22600244.35646  21153109.2034                   21153106.8094
  -9956163.78147  -7739375.53245  22992496.7734                   22992494.6374
 11  9 26  1 43  0.0000000  0  9G02G29G30G25G15G18G05G26G21
 -74227229.03546 -57815027.66643  23876895.9534                   23876892.4614
 -41519179.89148 -32330745.76447  20160004.5164                   20160002.4804
 -18767508.73846 -14601023.40543  23890821.4694                   23890822.6054
 -36647458.03947 -28531724.33844  24049765.8984                   24049770.2194
 -22704583.49248 -17668956.21146  20876932.7344                   20876930.4414
  -5429490.02747  -3930144.72945  22506879.7814                   22506876.5234
 -51830906.85247 -40363025.61345  23158661.2734                   23158659.4574
 -29123258.14148 -22670187.22946  21136028.2274                   21136026.5824
 -10117365.28947  -7864987.00445  22961821.1024                   22961818.1024
 11  9 26  1 43 30.0000000  0  9G02G29G30G25G15G18G05G26G21
 -74258098.43446 -57839081.82543  23871021.6174                   23871018.5354
 -41619810.47748 -32409159.19547  20140855.1334                   20140852.9024
 -18796806.49246 -14623852.92243  23885247.4144                   23885247.8164
 -36663051.46147 -28543875.14644  24046798.5864                   24046802.9574
 -22848651.03548 -17781216.59846  20849517.1644                   20849515.0554
  -5585137.53547  -4051428.42445  22477260.9384                   22477258.2304
 -51842777.32447 -40372275.36545  23156402.0234                   23156401.1254
 -29212301.06648 -22739571.31146  21119084.4844                   21119082.0864
 -10278567.54347  -7990599.07245  22931145.5944                   22931142.4964
 11  9 26  1 44  0.0000000  0  9G02G29G30G25G15G18G05G26G21
 -74288793.34446 -57862999.96444  23865180.3984                   23865177.9144
 -41719872.00848 -32487129.20147  20121813.9924                   20121811.9264
 -18825920.18046 -14646538.92843  23879707.2034                   23879706.9884
 -36678643.84447 -28556025.11044  24043831.8054                   24043835.2934
 -22992171.28948 -17893050.51946  20822206.2114                   20822204.5124
  -5740506.81247  -4172495.31245  22447694.9844                   22447692.3244
 -51854600.73447 -40381488.41145  23154152.5634                   23154150.7074
 -29300628.62948 -22808397.94446  21102275.3754                   21102273.9064
 -10439771.79347  -8116212.67845  22900469.3754                   22900465.7384
 11  9 26  1 44 30.0000000  0  9G02G29G30G25G15G18G05G26G21
 -74319312.07446 -57886780.79444  23859372.8284                   23859369.9064
 -41819362.24648 -32564654.05147  20102882.0234                   20102879.6454
 -18854851.44146 -14669082.74443  23874201.6564                   23874201.6604
 -36694236.60546 -28568175.40044  24040864.5474                   24040868.6054
 -23135140.97748 -18004455.42446  20794999.5554                   20794997.8284
  -5895596.37147  -4293344.22244  22418182.0084                   22418179.3324
 -51866377.51247 -40390665.16745  23151910.5164                   23151910.1484
 -29388239.53948 -22876666.14546  21085604.0474                   21085601.8244
 -10600976.10247  -8241826.38045  22869792.9384                   22869788.9224
 11  9 26  1 45  0.0000000  0  9G02G29G30G25G15G18G05G26G21
 -74349655.60547 -57910425.18743  23853599.2114                   23853595.5354
 -41918281.57848 -32641734.03347  20084057.9384                   20084055.7154
 -18883604.48846 -14691487.69443  23868729.0164                   23868731.0944
 -36709833.62946 -28580329.02344  24037896.9224                   24037900.7424
 -23277559.15248 -18115430.59646  20767898.6254                   20767896.5704
  -6050407.20347  -4413975.97945  22388722.9304                   22388720.8014
 -51878110.29747 -40399807.60444  23149678.8054                   23149676.7464
 -29475134.79348 -22944376.70445  21069068.2344                   21069065.8834
 -10762181.01247  -8367440.49345  22839116.1094                   22839112.9614
 11  9 26  1 45 30.0000000  0  9G02G29G30G25G15G18G05G26G21
 -72804403.24647 -56706332.41644  24147651.4224                   24147647.8014
 -40441206.39848 -31490766.34547  20365136.1334                   20365133.4654
 -17336762.07847 -13486155.96143  24163083.8204                   24163085.1884
 -35150017.78947 -27364888.16544  24334720.2664                   24334724.2934
 -21843999.80148 -16998371.31346  21040695.9454                   21040693.6454
  -4629515.16447  -3306787.31645  22659109.7194                   22659107.1134
 -50314380.75847 -39181317.05544  23447246.7114                   23447244.5514
 -27985892.67248 -21783928.26146  21352461.5864                   21352459.5554
  -9347961.16847  -7265450.90445  23108233.0394                   23108230.5044
 11  9 26  1 46  0.0000000  0  9G02G29G30G25G15G18G05G26G21
 -72834394.64846 -56729702.33544  24141943.3204                   24141940.2034
 -40538980.27348 -31566953.77147  20346530.0004                   20346527.8364
 -17365167.01246 -13508289.77843  24157678.3834                   24157679.6374
 -35165630.80547 -27377054.21744  24331749.3054                   24331752.3444
 -21985308.19148 -17108481.71146  21013805.8914                   21013803.9064
  -4783768.11347  -3426984.32745  22629755.8834                   22629753.6804
 -50326028.44947 -39190393.21444  23445030.1094                   23445028.6454
 -28071356.31648 -21850523.28245  21336197.9064                   21336196.0784
  -9509164.49647  -7391063.81845  23077557.4144                   23077554.8834
 11  9 26  1 46 30.0000000  0  9G02G29G30G25G15G18G05G26G21
 -72864209.01646 -56752934.36943  24136270.2424                   24136266.8874
 -40636180.18448 -31642693.95147  20328033.6804                   20328031.3284
 -17393402.16047 -13530291.18043  24152305.7274                   24152306.5274
 -35181255.61747 -27389229.46044  24328775.7894                   24328779.3554
 -22126059.07448 -17218157.68046  20987021.9224                   20987019.2974
  -4937741.43047  -3546963.47045  22600455.8984                   22600453.6094
 -50337635.46147 -39199437.63644  23442820.9454                   23442819.8444
 -28156104.07048 -21916560.45645  21320070.9224                   21320069.5594
  -9670365.76247  -7516675.12245  23046881.9304                   23046879.6884
 11  9 26  1 47  0.0000000  0  9G02G29G30G25G15G18G05G26G21
 -72893847.65246 -56776029.42043  24130630.2274                   24130627.3054
 -40732806.98048 -31717987.54147  20309646.2894                   20309644.0514
 -17421471.87547 -13552163.72043  24146964.8204                   24146964.6024
 -35196896.28947 -27401417.06044  24325799.1804                   24325802.8834
 -22266251.56648 -17327398.53246  20960343.9454                   20960341.7154
  -5091436.55947  -3666725.82045  22571209.1094                   22571206.5784
 -50349204.57847 -39208452.51844  23440619.3054                   23440617.3954
 -28240137.13748 -21982040.74445  21304080.1254                   21304078.5824
  -9831565.79747  -7642285.47845  23016206.5554                   23016203.9024
 11  9 26  1 47 30.0000000  0  9G02G29G30G25G15G18G05G26G21
 -72923311.84446 -56798988.64543  24125022.9144                   24125020.4804
 -40828861.07048 -31792834.87647  20291367.8364                   20291365.6454
 -17449380.65247 -13573910.82443  24141653.3834                   24141653.1954
 -35212556.86347 -27413620.20744  24322818.9144                   24322823.2664
 -22405885.39148 -17436204.06946  20933772.3594                   20933770.1334
  -5244855.04747  -3786272.61845  22542013.9774                   22542011.4734
 -50360738.52047 -39217440.01544  23438424.7194                   23438422.6684
 -28323457.13348 -22046965.40046  21288225.0164                   21288223.0944
  -9992765.10547  -7767895.28145  22985531.4224                   22985529.2774
 11  9 26  1 48  0.0000000  0  9G02G29G30G25G15G18G05G26G21
 -72952599.31246 -56821810.02143  24119449.4694                   24119447.1604
 -40924340.06648 -31867234.07947  20273198.4924                   20273196.4844
 -17477129.64846 -13595533.40343  24136373.7344                   24136373.3874
 -35228238.38747 -27425839.66643  24319835.0084                   24319838.4104
 -22544956.89548 -17544571.42246  20907307.8364                   20907305.3134
  -5397994.78947  -3905602.21944  22512872.3054                   22512869.9734
 -50372236.96947 -39226399.85044  23436235.9384                   23436234.9384
 -28406062.37148 -22111333.09945  21272505.7974                   21272504.0904
 -10153961.50847  -7893502.78145  22954856.7274                   22954853.5354
 11  9 26  1 48 30.0000000  0  9G02G29G30G25G15G18G05G26G21
 -72981709.85546 -56844493.57943  24113910.1724                   24113907.2584
 -41019243.66848 -31941184.93047  20255139.2194                   20255137.4184
 -17504721.81646 -13617033.87843  24131122.1414                   24131122.9454
 -35243943.50047 -27438077.47644  24316846.1954                   24316849.9884
 -22683464.25848 -17652499.19546  20880951.2974                   20880948.7774
  -5550855.91447  -4024714.71645  22483783.7114                   22483781.6484
 -50383701.24647 -39235333.11544  23434054.9614                   23434054.1414
 -28487953.24248 -22175144.15145  21256922.3984                   21256920.5204
 -10315154.20747  -8019107.44745  22924182.8834                   22924179.2504
 11  9 26  1 49  0.0000000  0  9G02G29G30G25G15G18G05G26G21
 -73010645.18046 -56867040.60543  24108403.5944                   24108401.4184
 -41113573.10948 -32014688.37647  20237188.6954                   20237186.4224
 -17532162.36346 -13638416.13043  24125900.8834                   24125900.9654
 -35259676.96946 -27450337.28643  24313852.0084                   24313854.9144
 -22821407.67248 -17759987.52946  20854701.2814                   20854698.8444
  -5703440.48047  -4143611.69645  22454747.7114                   22454744.8164
 -50395134.64547 -39244242.25944  23431879.0004                   23431877.8484
 -28569131.95748 -22238400.27145  21241474.6954                   21241472.8524
 -10476344.59847  -8144710.28045  22893508.5474                   22893505.9304
 11  9 26  1 49 30.0000000  0  9G02G29G30G25G15G18G05G26G21
 -73039402.98446 -56889449.32043  24102931.3914                   24102929.5784
 -41207325.82448 -32087742.43247  20219348.2894                   20219346.0434
 -17559452.35246 -13659681.07143  24120707.6094                   24120707.5944
 -35275439.45746 -27462619.86743  24310852.1414                   24310856.4804
 -22958783.56648 -17867033.63146  20828559.4304                   20828556.9964
  -5855746.46147  -4262291.61445  22425765.0784                   22425762.8524
 -50406536.66447 -39253126.98644  23429709.8054                   23429707.7274
 -28649596.87948 -22301100.19946  21226162.7034                   21226160.5084
 -10637529.62147  -8270308.92145  22862836.2584                   22862832.7234
 11  9 26  1 50  0.0000000  0  9G02G29G30G25G15G18G05G26G21
 -73067985.48846 -56911721.43643  24097492.1564                   24097489.8524
 -41300503.14848 -32160348.13247  20201616.8054                   20201614.8134
 -17586596.72746 -13680832.62843  24115542.0554                   24115543.3914
 -35291235.83246 -27474928.76843  24307846.9924                   24307849.8634
 -23095592.48048 -17973637.93446  20802525.5554                   20802522.9774
  -6007775.94547  -4380756.07845  22396834.0784                   22396832.1914
 -50417910.74646 -39261989.91944  23427545.1884                   23427543.7114
 -28729350.46548 -22363245.83946  21210986.0944                   21210984.3244
 -10798710.71147  -8395904.51845  22832164.9844                   22832160.8714
 11  9 26  1 50 30.0000000  0  9G02G29G30G25G15G18G05G26G21
 -73096392.20746 -56933856.59244  24092087.1804                   24092084.1294
 -41393104.61348 -32232505.10647  20183995.3984                   20183993.5864
 -17613598.55946 -13701872.99443  24110403.8444                   24110404.0514
 -35307068.57046 -27487266.00543  24304833.8444                   24304837.3324
 -23231832.44148 -18079798.89646  20776599.9534                   20776597.5634
  -6159528.70347  -4499004.88545  22367956.9224                   22367954.7424
 -50429257.94947 -39270831.88744  23425386.2974                   23425383.5514
 -28808392.97348 -22424837.39046  21195945.1724                   21195943.0004
 -10959887.19547  -8521496.51245  22801494.0234                   22801489.9144
 11  9 26  1 51  0.0000000  0  9G02G29G30G25G15G18G05G26G21
 -73124620.44546 -56955852.60743  24086716.3834                   24086712.7154
 -41485126.91848 -32304210.79247  20166484.5084                   20166482.3914
 -17640458.31646 -13722802.71943  24105292.3524                   24105293.3164
 -35322937.89546 -27499631.70243  24301814.1254                   24301817.3244
 -23367499.39148 -18185513.35346  20750783.3204                   20750781.0354
  -6311002.53147  -4617036.38245  22339132.4454                   22339130.2464
 -50440577.09447 -39279651.96844  23423232.0164                   23423230.1484
 -28886722.10548 -22485873.07246  21181039.0864                   21181037.3404
 -11121055.99247  -8647082.56345  22770824.5084                   22770820.9024
 11  9 26  1 51 30.0000000  0  9G02G29G30G25G15G18G05G26G21
 -73152672.57046 -56977711.44543  24081377.6254                   24081374.1254
 -41576572.84048 -32375467.33547  20149082.5944                   20149081.0744
 -17667181.61746 -13743626.17143  24100207.2344                   24100208.1994
 -35338848.96946 -27512030.04843  24298786.9454                   24298790.5204
 -23502594.22748 -18290782.01146  20725075.3134                   20725073.2384
  -6462199.94947  -4734852.48245  22310360.6414                   22310358.3054
 -50451872.20747 -39288453.36444  23421083.2424                   23421080.8834
 -28964341.07448 -22546355.35646  21166268.7114                   21166266.9064
 -11282219.00847  -8772664.06245  22740155.9534                   22740152.6024
 11  9 26  1 52  0.0000000  0  9G02G29G30G25G15G18G05G26G21
 -73180548.74646 -56999433.19643  24076073.1724                   24076069.2424
 -41667442.28148 -32446274.68747  20131791.0314                   20131788.9694
 -17693772.09846 -13764346.11943  24095148.3984                   24095148.1094
 -35354805.20346 -27524463.50743  24295750.0164                   24295754.0904
 -23637115.76648 -18395603.95446  20699477.2194                   20699474.6844
  -6613121.78547  -4852453.83545  22281640.8594                   22281638.9884
 -50463145.19147 -39297237.49244  23418937.8284                   23418935.2934
 -29041250.83648 -22606285.03546  21151633.5634                   21151631.1604
 -11443375.86747  -8898240.77845  22709488.8754                   22709485.4064
 11  9 26  1 52 30.0000000  0  9G02G29G30G25G15G18G05G26G21
 -73208246.93046 -57021016.20943  24070802.0634                   24070798.8594
 -41757732.34848 -32516630.57747  20114609.4144                   20114607.3444
 -17720230.50046 -13784963.03343  24090112.8054                   24090113.2504
 -35370806.86346 -27536932.43643  24292705.4454                   24292709.6724
 -23771060.36748 -18499976.33846  20673988.0084                   20673985.4264
  -6763765.65247  -4969838.58945  22252974.5004                   22252971.4844
 -50474395.26247 -39306003.81445  23416797.0164                   23416795.3984
 -29117449.74648 -22665660.79746  21137133.4614                   21137131.3954
 -11604523.36747  -9023810.20345  22678823.1334                   22678820.8954
 11  9 26  1 53  0.0000000  0  9G02G29G30G25G15G18G05G26G21
 -73235768.98846 -57042462.00043  24065565.0704                   24065561.4224
 -41847444.84448 -32586536.40247  20097537.5554                   20097535.3444
 -17746562.14846 -13805481.24743  24085101.4844                   24085103.0554
 -35386858.91046 -27549440.67543  24289650.5784                   24289655.3674
 -23904428.64548 -18603899.62246  20648608.9384                   20648606.5744
  -6914134.04347  -5087008.70745  22224360.0474                   22224357.5084
 -50485625.77747 -39314754.87645  23414659.8834                   23414658.2544
 -29192940.47347 -22724484.73246  21122767.5004                   21122765.7664
 -11765663.47747  -9149373.83845  22648159.2814                   22648156.1764
 11  9 26  1 53 30.0000000  0  9G02G29G30G25G15G18G05G26G21
 -71687694.32446 -55836170.04943  24360154.5164                   24360150.3244
 -40361157.18048 -31428390.16347  20380368.6334                   20380366.4844
 -16197349.66046 -12598302.75743  24379906.7734                   24379908.2934
 -33827543.99246 -26334390.15143  24586377.9144                   24586382.6564
 -22461795.46147 -17479769.83746  20923133.0704                   20923130.6174
  -5488802.29347  -3976360.50845  22495591.4304                   22495589.1844
 -48921417.93047 -38095891.63045  23712319.0004                   23712317.3714
 -27692301.89148 -21555155.94346  21408329.8674                   21408327.9454
 -10351370.48447  -8047327.30845  22917290.4144                   22917287.0744
 11  9 26  1 54  0.0000000  0  9G02G29G30G25G15G18G05G26G21
 -71714864.94545 -55857341.98643  24354982.9144                   24354980.0784
 -40449715.10548 -31497396.33547  20363516.7664                   20363514.5864
 -16223438.10246 -12618631.47843  24374942.9454                   24374943.4144
 -33843706.05946 -26346983.99343  24583302.3284                   24583307.5084
 -22594008.45348 -17582792.90746  20897973.4614                   20897970.9574
  -5638620.73847  -4093102.07945  22467081.7664                   22467079.1914
 -48932614.16446 -38104616.02244  23710187.8054                   23710186.3594
 -27766379.80947 -21612878.97746  21394233.2274                   21394231.0354
 -10512493.94947  -8172877.97445  22886629.3984                   22886626.1724
 11  9 26  1 54 30.0000000  0  9G02G29G30G25G15G18G05G26G21
 -71741859.86346 -55878377.00843  24349846.0164                   24349843.2344
 -40537695.65248 -31565952.59347  20346774.2274                   20346772.1134
 -16249409.94946 -12638869.32544  24370001.3524                   24370002.0824
 -33859927.53946 -26359624.26044  24580216.1564                   24580220.9774
 -22725641.55548 -17685364.11546  20872924.5704                   20872922.3914
  -5788165.03947  -4209630.05545  22438624.4064                   22438622.7154
 -48943795.71146 -38113328.90444  23708060.2034                   23708057.6994
 -27839752.48847 -21670052.47046  21380270.7344                   21380268.7304
 -10673609.10247  -8298422.16545  22855970.2344                   22855966.5664
 11  9 26  1 55  0.0000000  0  9G02G29G30G25G15G18G05G26G21
 -71768679.62546 -55899275.53143  24344742.9144                   24344740.0394
 -40625098.88348 -31634059.00347  20330142.3134                   20330140.0044
 -16275268.45346 -12659018.88743  24365080.1334                   24365080.5434
 -33876211.31646 -26372312.95244  24577117.5314                   24577121.0044
 -22856693.80147 -17787482.71246  20847986.0634                   20847983.7934
  -5937435.75447  -4325944.82145  22410219.2424                   22410216.4454
 -48954964.02746 -38122031.47444  23705934.2974                   23705932.4884
 -27912421.06647 -21726677.31245  21366442.2584                   21366440.3404
 -10834715.21947  -8423959.33245  22825313.1954                   22825309.4304
 11  9 26  1 55 30.0000000  0  9G02G29G30G25G15G18G05G26G21
 -71795324.02346 -55920037.47443  24339671.9614                   24339669.0514
 -40711924.20348 -31701715.08547  20313619.7034                   20313617.6684
 -16301016.72746 -12679082.52944  24360180.2344                   24360181.2854
 -33892560.09847 -26385052.34144  24574006.6254                   24574010.8834
 -22987163.78947 -17889147.61046  20823158.6024                   20823156.4144
  -6086432.89847  -4442046.44645  22381865.8674                   22381863.6844
 -48966120.38746 -38130724.81944  23703812.4774                   23703809.3874
 -27984386.24247 -21782754.05246  21352747.7274                   21352746.0314
 -10995811.27347  -8549488.64445  22794657.6094                   22794653.6684
 11  9 26  1 56  0.0000000  0  9G02G29G30G25G15G18G05G26G21
 -71821789.84446 -55940660.21743  24334635.9614                   24334632.6844
 -40798168.89148 -31768918.73447  20297208.0784                   20297205.8524
 -16326654.87946 -12699060.35743  24355301.8674                   24355302.1914
 -33908973.61347 -26397842.20743  24570884.0164                   24570887.1804
 -23117047.52047 -17990355.67446  20798442.5004                   20798440.0554
  -6235153.60547  -4557932.63045  22353565.6484                   22353563.1094
 -48977263.35246 -38139407.65244  23701691.2034                   23701689.2544
 -28055645.89147 -21838281.03146  21339187.6564                   21339185.4224
 -11156892.74647  -8675006.59545  22764004.6644                   22764001.3484
 11  9 26  1 56 30.0000000  0  9G02G29G30G25G15G18G05G26G21
 -71848080.16846 -55961146.18443  24329633.0004                   24329630.2814
 -40883836.12548 -31835672.40947  20280906.2344                   20280903.8954
 -16352189.28446 -12718957.39643  24350442.3444                   24350443.2464
 -33925457.77347 -26410687.07144  24567746.4844                   24567750.1764
 -23246346.66847 -18091108.23046  20773837.5474                   20773835.1914
  -6383601.37948  -4673606.16745  22325317.1644                   22325314.0664
 -48988397.66846 -38148083.78444  23699572.3674                   23699570.7234
 -28126204.19947 -21893261.51445  21325760.9844                   21325758.7544
 -11317963.08647  -8800515.86045  22733353.5634                   22733350.8794
 11  9 26  1 57  0.0000000  0  9G02G29G30G25G15G18G05G26G21
 -71874196.83246 -55981496.92143  24324663.4064                   24324661.2194
 -40968927.39548 -31901977.29947  20264714.0164                   20264711.6024
 -16377624.80146 -12738777.32443  24345601.7504                   24345603.4494
 -33942017.05547 -26423590.49044  24564595.1884                   24564599.6094
 -23375061.87948 -18191405.76046  20749343.9774                   20749341.4804
  -6531778.46947  -4789068.79145  22297119.3984                   22297117.1804
 -48999525.72747 -38156754.99344  23697455.0864                   23697451.9184
 -28196063.58247 -21947697.38745  21312466.4454                   21312464.8244
 -11479023.91047  -8926017.72145  22702704.4064                   22702702.5704
 11  9 26  1 57 30.0000000  0  8G29G30G25G15G18G05G26G21
 -41053441.02048 -31967832.05347  20248631.3674                   20248628.8914
 -16402962.81646 -12758521.30643  24340781.2344                   24340780.7464
 -33958652.37947 -26436553.16844  24561430.2894                   24561434.0824
 -23503190.24647 -18291246.00946  20724961.9224                   20724959.6844
  -6679683.41048  -4904319.34845  22268974.3834                   22268971.4184
 -49010647.63747 -38165421.40744  23695338.4384                   23695336.9184
 -28265223.63347 -22001588.31945  21299306.1174                   21299303.9884
 -11640071.62547  -9051509.37245  22672057.7734                   22672056.2384
 11  9 26  1 58  0.0000000  0  8G29G30G25G15G18G05G26G21
 -41137375.68448 -32033235.68147  20232659.0784                   20232657.2114
 -16428205.22346 -12778190.74143  24335977.8054                   24335978.1844
 -33975365.25847 -26449576.26644  24558249.3754                   24558254.6884
 -23630729.41847 -18390627.15146  20700691.8364                   20700689.7194
  -6827315.03947  -5019356.91145  22240881.1174                   22240878.1764
 -49021763.45747 -38174083.09344  23693223.8914                   23693222.0514
 -28333684.09447 -22054934.09845  21286278.8984                   21286276.1954
 -11801104.64847  -9176989.60545  22641414.3914                   22641411.8324
 11  9 26  1 58 30.0000000  0  8G29G30G25G15G18G05G26G21
 -41220727.70748 -32098185.30347  20216797.9694                   20216795.6724
 -16453351.63746 -12797785.41443  24331192.4304                   24331193.6724
 -33992154.83247 -26462659.18744  24555055.3204                   24555059.6804
 -23757674.68448 -18489545.50546  20676535.3054                   20676532.3484
  -6974670.32447  -5134179.14045  22212839.8984                   22212837.5864
 -49032870.82447 -38182738.18144  23691109.8754                   23691108.4024
 -28401442.42647 -22107732.77045  21273384.2974                   21273382.1884
 -11962118.63347  -9302454.99745  22610774.5004                   22610771.7854
 11  9 26  1 59  0.0000000  0  8G29G30G25G15G18G05G26G21
 -41303490.32048 -32162675.63947  20201048.5864                   20201046.4184
 -16478398.23846 -12817302.38043  24326426.0474                   24326427.8054
 -34009016.85547 -26475798.52544  24551846.4064                   24551850.7194
 -23884018.19548 -18587994.94446  20652492.6724                   20652490.1414
  -7121742.53547  -5248780.81945  22184853.0164                   22184850.5554
 -49043964.12147 -38191382.31044  23688998.7894                   23688996.7114
 -28468492.81247 -22159979.82045  21260625.0084                   21260623.1374
 -12123106.26247  -9427899.82645  22580139.7894                   22580135.5554
 11  9 26  1 59 30.0000000  0  8G29G30G25G15G18G05G26G21
 -41385666.85548 -32226709.29547  20185411.0394                   20185408.6954
 -16503351.32446 -12836746.36143  24321677.9384                   24321678.4304
 -34025957.24246 -26488998.92143  24548622.8054                   24548627.1024
 -24009761.77348 -18685976.91746  20628564.5084                   20628561.9494
  -7268535.32447  -5363164.76545  22156919.4534                   22156916.9964
 -49055047.98047 -38200019.09344  23686889.5864                   23686887.8984
 -28534839.35547 -22211678.42345  21247999.7894                   21247997.9384
 -12284069.66048  -9553325.77945  22549509.1254                   22549505.1414
 11  9 26  2  0  0.0000000  0  8G29G30G25G15G18G05G26G21
 -41467260.44148 -32290288.70347  20169884.4454                   20169881.9804
 -16528217.13746 -12856122.38443  24316946.0634                   24316947.4694
 -34042981.78546 -26502264.87543  24545383.1024                   24545386.8524
 -24134907.26648 -18783492.85146  20604749.8594                   20604747.1334
  -7415051.75447  -5477333.36245  22129038.0234                   22129035.4344
 -49066126.49647 -38208651.69944  23684781.5784                   23684779.8714
 -28600486.53948 -22262832.07645  21235507.5554                   21235505.8554
 -12445011.71147  -9678735.09445  22518882.5234                   22518879.2034
 11  9 26  2  0 30.0000000  0  8G29G30G25G15G18G05G26G21
 -41548269.94948 -32353412.99547  20154468.7424                   20154466.1254
 -16552997.50446 -12875431.87542  24312230.3364                   24312232.9264
 -34060091.81246 -26515597.47443  24542127.2504                   24542131.9144
 -24259452.71948 -18880541.20446  20581049.7664                   20581047.2974
  -7561291.21948  -5591286.15345  22101209.9454                   22101206.6214
 -49077199.84847 -38217280.32644  23682674.2734                   23682672.1954
 -28665434.29748 -22313440.74845  21223149.0704                   21223146.4614
 -12605930.21947  -9804126.08645  22488260.5234                   22488257.9454
 11  9 26  2  1  0.0000000  0  8G29G30G25G15G18G05G26G21
 -41628699.00848 -32416084.97747  20139163.3364                   20139161.0274
 -16577699.52046 -12894680.27342  24307529.4304                   24307531.6604
 -34077293.93046 -26529001.84042  24538853.9534                   24538857.0824
 -24383401.11348 -18977124.34746  20557463.2424                   20557460.9694
  -7707258.16447  -5705026.58645  22073432.8914                   22073430.4064
 -49088273.32446 -38225909.07344  23680567.1414                   23680565.4264
 -28729687.53148 -22363508.18345  21210921.7504                   21210919.4304
 -12766827.89547  -9929500.86045  22457642.7814                   22457639.9924
 11  9 26  2  1 30.0000000  0  8G29G30G25G15G18G05G26G21
 -40133127.21148 -31250704.34747  20423761.3364                   20423758.8674
 -15026906.88346 -11686270.53343  24602635.7114                   24602637.4184
 -32519171.76246 -25314880.73743  24835355.0314                   24835358.6484
 -22931328.52048 -17845639.15346  20833783.6254                   20833780.6564
  -6277529.49647  -4590952.23645  22345501.1954                   22345498.3874
 -47523929.23447 -37006939.65744  23978251.8674                   23978250.2664
 -27217827.18748 -21185435.17845  21498619.5004                   21498617.0824
 -11352280.44547  -8827256.04945  22726822.9384                   22726820.0354
 11  9 26  2  2  0.0000000  0  8G29G30G25G15G18G05G26G21
 -40212398.90648 -31312474.48547  20408676.4924                   20408674.0744
 -15051463.32046 -11705405.46343  24597963.5944                   24597965.4964
 -32536568.03146 -25328436.40543  24832044.7114                   24832047.5904
 -23054081.34448 -17941290.67546  20810424.4774                   20810421.6804
  -6422954.23047  -4704270.16745  22317827.9454                   22317824.7664
 -47535008.44946 -37015572.81144  23976143.2894                   23976141.9144
 -27280697.57448 -21234425.06045  21486655.1724                   21486652.5634
 -11513136.78948  -8952598.63645  22696212.6334                   22696210.1174
 11  9 26  2  2 30.0000000  0  7G29G30G15G18G05G26G21
 -40291094.60548 -31373795.80047  20393700.9224                   20393698.5514
 -15075954.30946 -11724489.45943  24593303.3204                   24593304.9694
 -23176237.66848 -18036477.39046  20787178.7664                   20787176.2384
  -6568110.98848  -4817379.27645  22290205.4844                   22290202.4414
 -47546094.94546 -37024211.67044  23974033.5164                   23974031.7624
 -27342881.09048 -21282879.76645  21474822.4534                   21474820.0944
 -11673973.93747  -9077926.23245  22665606.6024                   22665603.5164
 11  9 26  2  3  0.0000000  0  7G29G30G15G18G05G26G21
 -40369209.88748 -31434664.85847  20378836.2974                   20378834.1764
 -15100378.21546 -11743521.16243  24588655.4534                   24588657.0984
 -23297791.94548 -18131194.97246  20764047.7974                   20764044.5824
  -6712995.43748  -4930276.19945  22262634.8594                   22262631.6954
 -47557185.18746 -37032853.43444  23971922.9924                   23971922.0394
 -27404374.14548 -21330796.41945  21463120.1174                   21463118.1454
 -11834786.09847  -9203234.37145  22635004.7504                   22635001.0984
 11  9 26  2  3 30.0000000  0  7G29G30G15G18G05G26G21
 -40446740.52748 -31495078.33047  20364082.4144                   20364080.3794
 -15124733.62146 -11762499.45843  24584020.5784                   24584022.0634
 -23418738.91048 -18225439.32746  20741031.7974                   20741029.2934
  -6857603.57048  -5042957.81245  22235116.7424                   22235113.7664
 -47568276.37946 -37041495.93844  23969812.7274                   23969811.3674
 -27465174.06248 -21378172.96845  21451551.0314                   21451547.6804
 -11995568.28547  -9328519.16245  22604409.3054                   22604405.5594
 11  9 26  2  4  0.0000000  0  7G29G30G15G18G05G26G21
 -40523683.56648 -31555033.95647  20349440.8594                   20349438.6374
 -15149020.27046 -11781424.19843  24579398.3674                   24579400.2624
 -23539074.21148 -18319207.06546  20718133.0474                   20718130.3444
  -7001932.34048  -5155421.74345  22207651.8134                   22207648.8094
 -47579366.03946 -37050137.23144  23967702.0164                   23967701.3674
 -27525278.65248 -21425007.70945  21440113.4924                   21440110.8794
 -12156316.26247  -9453777.28645  22573819.4844                   22573815.9024
 11  9 26  2  4 30.0000000  0  7G29G30G15G18G05G26G21
 -40600042.57448 -31614534.48347  20334910.1884                   20334908.0744
 -15173244.55146 -11800300.39943  24574789.9064                   24574791.8204
 -23658800.41048 -18412500.18146  20695350.0704                   20695347.3634
  -7145985.37148  -5267670.81345  22180239.2584                   22180236.2974
 -47590458.71946 -37058780.91844  23965591.1334                   23965590.6174
 -27584692.48048 -21471304.18445  21428807.1954                   21428804.8484
 -12317032.12147  -9579010.36445  22543236.4924                   22543232.1954
 11  9 26  2  5  0.0000000  0  7G29G30G15G18G05G26G21
 -40675819.24648 -31673581.24047  20320490.5164                   20320488.1844
 -15197411.05946 -11819131.45043  24570190.5704                   24570192.4064
 -23777918.38748 -18505319.35246  20672682.3674                   20672679.8874
  -7289764.96548  -5379706.81345  22152878.8674                   22152876.4024
 -47601557.07046 -37067429.04044  23963479.4304                   23963477.8444
 -27643418.74648 -21517064.89345  21417631.6414                   21417629.5354
 -12477716.94147  -9704219.29045  22512658.8524                   22512655.2034
 11  9 26  2  5 30.0000000  0  7G29G30G15G18G05G26G21
 -40751012.86348 -31732173.67247  20306181.5944                   20306179.5904
 -15221521.69146 -11837919.13343  24565602.8674                   24565604.6764
 -23896426.01248 -18597662.93446  20650131.2664                   20650128.6954
  -7433270.17248  -5491528.99345  22125570.9224                   22125568.0124
 -47612661.27346 -37076081.69843  23961367.2894                   23961364.8714
 -27701457.87147 -21562290.17945  21406587.3284                   21406585.1094
 -12638368.45747  -9829402.24545  22482088.2504                   22482085.0474
 11  9 26  2  6  0.0000000  0  7G29G30G15G18G05G26G21
 -40825627.64148 -31790315.05947  20291982.6644                   20291980.9064
 -15245583.34846 -11856668.58944  24561024.3284                   24561025.8714
 -24014326.18748 -18689533.18746  20627695.4614                   20627693.2624
  -7576505.21948  -5603140.64845  22098314.0084                   22098311.2304
 -47623776.17246 -37084742.65943  23959252.1174                   23959249.7304
 -27758815.01648 -21606984.04045  21395672.5084                   21395670.7194
 -12798989.69148  -9954561.59545  22451523.0314                   22451519.7894
 11  9 26  2  6 30.0000000  0  7G29G30G15G18G05G26G21
 -40899666.18048 -31848007.43447  20277893.6024                   20277891.6954
 -15269601.18746 -11875383.90343  24556454.4144                   24556456.1024
 -24131620.89848 -18780931.64246  20605374.8914                   20605372.3244
  -7719472.81648  -5714543.92945  22071108.1094                   22071105.0474
 -47634905.12146 -37093414.53843  23957134.3754                   23957130.9454
 -27815493.96147 -21651149.44845  21384886.8444                   21384884.5704
 -12959582.46548 -10079698.78545  22420962.7734                   22420960.1954
 11  9 26  2  7  0.0000000  0  7G29G30G15G18G05G26G21
 -40973128.08248 -31905250.48347  20263914.3054                   20263912.2734
 -15293577.60546 -11894066.92743  24551891.5234                   24551893.2114
 -24248308.34048 -18871856.89746  20583170.1174                   20583167.5664
  -7862172.56647  -5825738.47145  22043952.9844                   22043950.4804
 -47646048.83246 -37102097.91044  23955013.7424                   23955010.5634
 -27871495.39547 -21694786.92245  21374230.3834                   21374227.7344
 -13120144.58247 -10204812.09445  22390408.6804                   22390406.1024
 11  9 26  2  7 30.0000000  0  7G29G30G15G18G05G26G21
 -41046014.44948 -31962045.04847  20250044.6564                   20250042.4534
 -15317516.06246 -11912720.36643  24547335.6884                   24547338.5434
 -24364388.28948 -18962308.78046  20561080.5314                   20561078.1414
  -8004605.59848  -5936725.19045  22016849.3834                   22016846.4304
 -47657208.28946 -37110793.59044  23952890.4924                   23952887.3244
 -27926821.69147 -21737898.30645  21363702.0164                   21363699.8674
 -13280675.97747 -10329901.44545  22359861.0474                   22359857.8324
 11  9 26  2  8  0.0000000  0  7G29G30G15G18G05G26G21
 -41118328.12548 -32018393.37647  20236283.8674                   20236281.8554
 -15341422.26246 -11931348.67543  24542786.7584                   24542788.7194
 -24479862.82048 -19052288.91846  20539106.9844                   20539104.1764
  -8146774.82448  -6047506.33745  21989795.0634                   21989792.5664
 -47668387.33646 -37119504.59444  23950763.6024                   23950760.3364
 -27981477.10247 -21780486.91045  21353301.6804                   21353299.5314
 -13441178.08247 -10454967.96545  22329318.3754                   22329314.7344
 11  9 26  2  8 30.0000000  0  7G29G30G15G18G05G26G21
 -41190068.59848 -32074295.05047  20222632.1024                   20222630.1374
 -15365298.15246 -11949953.33143  24538243.5554                   24538246.0784
 -24594730.27348 -19141796.00446  20517247.9844                   20517246.0944
  -8288679.63348  -6158081.42945  21962791.4384                   21962788.8714
 -47679586.49246 -37128231.24944  23948631.9454                   23948630.0004
 -28035462.10947 -21822553.14445  21343028.5474                   21343025.9654
 -13601648.93747 -10580010.13445  22298781.5394                   22298778.3364
 11  9 26  2  9  0.0000000  0  7G29G30G15G18G05G26G21
 -41261235.66048 -32129749.90747  20209089.2114                   20209087.3754
 -15389145.93446 -11968536.08243  24533705.1414                   24533708.2034
 -24708989.57448 -19230829.19546  20495505.2814                   20495502.6764
  -8430319.77747  -6268450.31345  21935837.8444                   21935835.1054
 -47690805.84446 -37136973.65544  23946497.5314                   23946494.8914
 -28088777.57447 -21864097.64545  21332882.6174                   21332880.3094
 -13762086.78547 -10705026.58945  22268251.9774                   22268248.1954
 11  9 26  2  9 30.0000000  0  7G29G30G15G18G05G26G21
 -39756410.05548 -30957158.52147  20495448.0704                   20495446.2154
 -13837550.23846 -10759500.62743  24828964.4774                   24828967.1484
 -23247218.10248 -18091786.46446  20773671.6094                   20773668.5514
  -6996273.50847  -5151011.59145  22208727.7424                   22208725.1454
 -46126628.32846 -35918133.98544  24244149.4924                   24244148.2664
 -26566006.02747 -20677522.40145  21622656.5554                   21622654.5394
 -12347067.77047  -9602414.32245  22537520.4694                   22537517.4064
 11  9 26  2 10  0.0000000  0  7G29G30G15G18G05G26G21
 -39826434.30548 -31011722.88847  20482122.8754                   20482120.7894
 -13861353.04345 -10778048.29743  24824435.0864                   24824437.5314
 -23360260.41848 -18179871.36346  20752159.5864                   20752157.4654
  -7137387.68747  -5260970.62645  22181875.0164                   22181871.8914
 -46137893.23846 -35926911.89744  24242006.2664                   24242004.4184
 -26617989.96547 -20718029.36845  21612764.3674                   21612762.1334
 -12507439.05547  -9727378.90345  22507002.4694                   22506999.4064
 11  9 26  2 10 30.0000000  0  7G29G30G15G18G05G26G21
 -39895885.57448 -31065840.75847  20468907.0944                   20468904.8914
 -13885135.52745 -10796580.16842  24819908.7114                   24819911.5084
 -23472691.65248 -18267480.08646  20730765.0704                   20730762.6174
  -7278237.72347  -5370723.84045  22155072.0234                   22155068.8364
 -46149180.25446 -35935707.00244  24239858.2034                   24239856.9884
 -26669308.30947 -20758017.68845  21602998.7814                   21602996.3914
 -12667773.27347  -9852314.62045  22476492.0084                   22476488.4384
 11  9 26  2 11  0.0000000  0  7G29G30G15G18G05G26G21
 -39964770.11748 -31119517.02847  20455798.4844                   20455796.4494
 -13908906.41845 -10815103.16442  24815384.8754                   24815387.6484
 -23584516.73448 -18354616.48446  20709485.1884                   20709482.4454
  -7418829.43447  -5480275.75945  22128318.4774                   22128315.1054
 -46160496.10546 -35944524.57743  24237705.0234                   24237703.7464
 -26719968.78147 -20797493.38245  21593358.3754                   21593356.5204
 -12828075.30147  -9977225.26645  22445987.4534                   22445984.8134
 11  9 26  2 11 30.0000000  0  7G29G30G15G18G05G26G21
 -40033087.19948 -31172751.11647  20442798.1484                   20442796.1094
 -13932667.33245 -10833618.18442  24810863.6644                   24810865.5664
 -23695733.95348 -18441279.21546  20688321.4304                   20688318.6454
  -7559162.02047  -5589625.76145  22101614.0474                   22101610.9694
 -46171840.73046 -35953364.61144  24235546.4844                   24235544.7114
 -26769971.89847 -20836456.83645  21583843.0314                   21583841.0824
 -12988342.86347 -10102109.02345  22415489.4614                   22415486.1454
 11  9 26  2 12  0.0000000  0  7G29G30G15G18G05G26G21
 -40100836.55148 -31225542.81847  20429906.2424                   20429903.9064
 -13956420.39145 -10852127.15642  24806343.4614                   24806344.7734
 -23806342.03948 -18527467.31246  20667273.1884                   20667270.8674
  -7699235.27747  -5698773.70845  22074958.3284                   22074955.5204
 -46183214.02046 -35962226.88943  24233381.3594                   24233380.0394
 -26819318.35247 -20874908.62945  21574452.6094                   21574450.4804
 -13148573.83247 -10226964.26645  22384998.5634                   22384995.4414
 11  9 26  2 12 30.0000000  0  7G29G30G15G18G05G26G21
 -40168018.10248 -31277892.09447  20417121.6484                   20417119.6024
 -13980167.70745 -10870631.61342  24801824.7034                   24801825.6484
 -23916339.55148 -18613179.63246  20646341.1954                   20646338.6054
  -7839048.71947  -5807719.18645  22048353.2584                   22048350.0124
 -46194616.35946 -35971111.90844  24231212.2274                   24231210.9804
 -26868009.44547 -20912849.72545  21565187.2974                   21565185.0864
 -13308766.67247 -10351789.82345  22354514.8364                   22354510.9064
 11  9 26  2 13  0.0000000  0  7G29G30G15G18G05G26G21
 -40234634.84448 -31329801.24547  20404444.9694                   20404443.2274
 -14003914.11746 -10889135.40642  24797306.5164                   24797307.5044
 -24025728.19548 -18698417.52246  20625525.6024                   20625522.7504
  -7978604.70347  -5916464.07045  22021796.6254                   22021793.6054
 -46206050.60246 -35980021.71544  24229036.2974                   24229034.8244
 -26916048.86347 -20950283.05145  21556045.7114                   21556043.4734
 -13468922.13348 -10476586.23445  22324038.2734                   22324034.4414
 11  9 26  2 13 30.0000000  0  7G29G30G15G18G05G26G21
 -40300686.89148 -31381270.38747  20391875.9454                   20391873.5664
 -14027662.38745 -10907640.64542  24792787.0394                   24792788.7344
 -24134507.17648 -18783180.33046  20604825.5784                   20604822.9734
  -8117903.67247  -6025008.66445  21995288.4304                   21995285.0474
 -46217517.42246 -35988956.94844  24226854.6804                   24226851.9224
 -26963438.66447 -20987210.15945  21547027.2114                   21547025.5864
 -13629038.82848 -10601352.42845  22293568.9064                   22293565.4774
 11  9 26  2 14  0.0000000  0  6G29G15G18G05G26G21
 -40366174.08648 -31432299.36647  20379414.0554                   20379411.8754
 -24242675.41048 -18867467.23947  20584241.7344                   20584239.3164
  -8256945.27747  -6133352.72845  21968829.5784                   21968827.1024
 -46229016.91446 -35997917.60944  24224665.7664                   24224664.3634
 -27010179.32047 -21023631.45745  21538132.8444                   21538131.0004
 -13789114.79347 -10726086.89445  22263107.3134                   22263103.6094
 11  9 26  2 14 30.0000000  0  6G29G15G18G05G26G21
 -40431095.99248 -31482887.87247  20367059.5704                   20367057.6024
 -24350231.21948 -18951276.94146  20563774.5944                   20563771.8134
  -8395728.66847  -6241495.57845  21942420.3524                   21942417.1644
 -46240548.71946 -36006903.43143  24222471.2424                   24222469.0354
 -27056271.99247 -21059547.82645  21529362.1644                   21529359.8954
 -13949147.87948 -10850787.96945  22232654.4924                   22232650.7194
 11  9 26  2 15  0.0000000  0  6G29G15G18G05G26G21
 -40495446.19948 -31533030.88547  20354814.2734                   20354812.4344
 -24457167.39548 -19034603.80546  20543425.3594                   20543422.4494
  -8534247.46948  -6349432.26445  21916060.7424                   21916057.4964
 -46252106.88346 -36015909.84044  24220272.2664                   24220269.9844
 -27101711.37947 -21094955.13445  21520715.0474                   21520713.1804
 -14109130.03547 -10975449.35845  22202210.8914                   22202207.0314
 11  9 26  2 15 30.0000000  0  6G29G15G18G05G26G21
 -40559224.47348 -31582728.25147  20342677.5784                   20342675.7194
 -24563482.41848 -19117446.66546  20523194.3204                   20523191.3484
  -8672500.89848  -6457162.17845  21889752.3364                   21889748.8134
 -46263691.13346 -36024936.52544  24218067.7424                   24218065.7464
 -27146498.40647 -21129854.11745  21512192.8284                   21512189.9144
 -14269059.09848 -11100069.38045  22171777.4774                   22171774.0394
 11  9 26  2 16  0.0000000  0  6G29G15G18G05G26G21
 -40622429.04748 -31631978.56347  20330649.9534                   20330648.1294
 -24669173.52048 -19199803.33946  20503081.7734                   20503079.3754
  -8810486.87548  -6564683.67045  21863494.2424                   21863490.6604
 -46275299.68746 -36033982.14144  24215859.1564                   24215857.1884
 -27190632.71547 -21164244.46945  21503793.6334                   21503792.0434
 -14428931.02748 -11224644.87045  22141354.9064                   22141351.2894
 11  9 26  2 16 30.0000000  0  6G29G15G18G05G26G21
 -40685066.86748 -31680787.26147  20318730.5704                   20318728.3954
 -24774246.64148 -19281678.49547  20483086.9534                   20483084.5004
  -8948212.20348  -6672002.06745  21837285.9064                   21837282.7894
 -46286939.57046 -36043052.17144  24213644.2664                   24213641.7304
 -27234122.05147 -21198132.26045  21495517.9224                   21495516.1994
 -14588751.02048 -11349179.89245  22110942.0634                   22110938.3914
 11  9 26  2 17  0.0000000  0  6G29G15G18G05G26G21
 -40747138.63348 -31729154.87047  20306919.1954                   20306916.6254
 -24878701.34048 -19363071.73947  20463210.1024                   20463207.4924
  -9085677.18448  -6779117.59145  21811127.1724                   21811123.7274
 -46298611.90246 -36052147.51843  24211421.3674                   24211421.0634
 -27276968.82047 -21231519.36345  21487364.1564                   21487362.9844
 -14748517.52747 -11473673.22845  22080539.4144                   22080535.3714
 11  9 26  2 17 30.0000000  0  6G29G15G18G05G26G21
 -39233223.75048 -30549480.93147  20595007.3914                   20595005.0354
 -23407114.69948 -18216380.84546  20743243.7424                   20743240.6804
  -7647458.52748  -5658427.66745  22084811.3284                   22084807.6604
 -44734897.74646 -34833669.04943  24508987.7814                   24508986.3484
 -25743754.11747 -20036806.61445  21779126.0474                   21779124.1374
 -13332804.78147 -10370520.37245  22349940.2664                   22349936.7034
 11  9 26  2 18  0.0000000  0  6G29G15G18G05G26G21
 -39294169.65648 -30596971.25247  20583409.8594                   20583407.5864
 -23510335.65248 -18296812.73447  20723601.4224                   20723598.5744
  -7784407.96548  -5765141.47345  22058750.5314                   22058747.4574
 -44746640.72345 -34842819.37743  24506752.0474                   24506751.0514
 -25785325.17247 -20069199.62945  21771214.8594                   21771213.1954
 -13492464.98047 -10494930.89245  22319557.5084                   22319553.8794
 11  9 26  2 18 30.0000000  0  6G29G15G18G05G26G21
 -39354552.21948 -30644022.60847  20571919.3594                   20571917.1134
 -23612938.02348 -18376762.61746  20704076.5474                   20704074.0044
  -7921098.59048  -5871653.60645  22032738.9454                   22032736.0234
 -44758418.30945 -34851996.66843  24504510.5944                   24504509.1294
 -25826259.96147 -20101096.86845  21763424.9454                   21763423.5474
 -13652068.55147 -10619297.28645  22289187.0004                   22289182.5784
 11  9 26  2 19  0.0000000  0  6G29G15G18G05G26G21
 -39414375.18448 -30690637.90547  20560535.5394                   20560533.1684
 -23714924.54748 -18456232.61547  20684669.2664                   20684666.5164
  -8057534.11748  -5977966.96045  22006776.3364                   22006773.1604
 -44770234.40246 -34861204.07843  24502263.0864                   24502260.9264
 -25866563.53947 -20132502.25845  21755755.8984                   21755753.6414
 -13811616.97347 -10743620.70045  22258826.1254                   22258821.1994
 11  9 26  2 19 30.0000000  0  6G29G15G18G05G26G21
 -39473640.32848 -30736818.53647  20549257.6414                   20549255.1454
 -23816295.56648 -18535222.99646  20665378.8594                   20665376.2504
  -8193715.95748  -6084082.63145  21980861.6724                   21980858.7774
 -44782090.87145 -34870442.94843  24500006.1804                   24500004.2154
 -25906238.99247 -20163418.18645  21748206.2114                   21748204.0474
 -13971110.01647 -10867900.95345  22228475.0864                   22228470.9654
 11  9 26  2 20  0.0000000  0  6G29G15G18G05G26G21
 -39532348.69948 -30782565.33447  20538085.5944                   20538083.5664
 -23917050.83648 -18613733.56747  20646205.8524                   20646202.7384
  -8329644.14848  -6190000.66045  21954995.3444                   21954992.0234
 -44793988.16046 -34879713.57043  24497743.1484                   24497741.2384
 -25945287.81247 -20193845.83545  21740775.1254                   21740772.9184
 -14130546.19947 -10992136.91845  22198135.0084                   22198131.6724
 11  9 26  2 20 30.0000000  0  6G29G15G18G05G26G21
 -39590500.23448 -30827878.21947  20527020.1954                   20527017.3834
 -24017189.72748 -18691763.84547  20627150.2034                   20627147.2974
  -8465318.46948  -6295720.86845  21929177.0554                   21929174.2814
 -44805926.20746 -34889015.97843  24495471.4694                   24495468.4224
 -25983712.02747 -20223786.75545  21733463.6254                   21733460.7384
 -14289923.62947 -11116327.08045  22167806.6804                   22167802.9924
 11  9 26  2 21  0.0000000  0  6G29G15G18G05G26G21
 -39648095.35948 -30872757.54247  20516059.6564                   20516057.7504
 -24116711.87548 -18769313.54947  20608211.6644                   20608208.9454
  -8600739.36748  -6401243.59345  21903407.4454                   21903404.5514
 -44817905.64146 -34898350.59343  24493191.8984                   24493189.5864
 -26021513.45747 -20253242.43645  21726269.5704                   21726267.9454
 -14449241.06247 -11240470.49845  22137489.1884                   22137485.6334
 11  9 26  2 21 30.0000000  0  6G29G15G18G05G26G21
 -39705136.26648 -30917205.00246  20505205.3054                   20505202.8794
 -24215618.34447 -18846383.49647  20589390.3984                   20589387.7464
  -8735908.21148  -6506569.92945  21877685.8914                   21877682.1684
 -44829928.31646 -34907718.98643  24490904.4144                   24490901.5784
 -26058695.16047 -20282215.17145  21719194.0704                   21719192.6134
 -14608497.63347 -11364566.50845  22107183.8364                   22107179.8244
 11  9 26  2 22  0.0000000  0  6G29G15G18G05G26G21
 -39761624.82848 -30961222.07547  20494456.1644                   20494453.6094
 -24313909.44548 -18922973.93847  20570686.6024                   20570683.5744
  -8870826.09448  -6611700.69545  21852012.0084                   21852008.9144
 -44841995.15246 -34917121.66943  24488607.5234                   24488605.2894
 -26095260.05547 -20310707.27945  21712235.7734                   21712233.9574
 -14767692.61347 -11488614.52945  22076889.7664                   22076886.2704
 11  9 26  2 22 30.0000000  0  7G22G29G15G18G05G26G21
  28104681.44956  21919139.34543  24637465.1174                   24637463.7034
 -39817564.42648 -31004811.36447  20483811.1174                   20483808.5474
 -24411587.98048 -18999087.05747  20552098.7424                   20552095.8554
  -9005496.01248  -6716638.26245  21826384.9384                   21826382.0164
 -44854109.27346 -34926561.19643  24486301.6414                   24486299.9494
 -26131212.61747 -20338722.28045  21705394.4384                   21705392.6844
 -14926827.20347 -11612615.47345  22046608.2504                   22046603.6564
 11  9 26  2 23  0.0000000  0  7G22G29G15G18G05G26G21
  27934134.52746  21786245.98743  24605012.4454                   24605009.9734
 -39872964.82448 -31047980.51547  20473268.4454                   20473266.1214
 -24508662.82448 -19074729.77547  20533625.7504                   20533623.0164
  -9139927.29348  -6821389.86545  21800803.5314                   21800800.6604
 -44866280.48046 -34936045.30043  24483986.9304                   24483983.8054
 -26166564.33247 -20366269.06045  21698667.5704                   21698665.2424
 -15085909.18748 -11736575.42345  22016335.3284                   22016331.7234
 11  9 26  2 23 30.0000000  0  7G22G29G15G18G05G26G21
  27763747.28946  21653476.85543  24572587.5784                   24572585.6804
 -39927829.24648 -31090732.01747  20462828.5474                   20462826.1134
 -24605135.94148 -19149903.60047  20515267.6174                   20515264.7194
  -9274122.43448  -6925957.46546  21775266.7894                   21775264.3054
 -44878511.30146 -34945575.81743  24481659.2664                   24481656.6844
 -26201319.43747 -20393350.99245  21692053.7664                   21692052.0824
 -15244939.16447 -11860494.86546  21986073.0784                   21986069.4384
 11  9 26  2 24  0.0000000  0  7G22G29G15G18G05G26G21
  27593523.14846  21520834.87843  24540195.3134                   24540193.6484
 -39982155.50848 -31133064.16947  20452490.5314                   20452487.9804
 -24701003.95748 -19224605.92447  20497024.5394                   20497021.7974
  -9408078.79348  -7030339.01045  21749775.3444                   21749772.5554
 -44890799.36746 -34955150.86243  24479320.6174                   24479318.2814
 -26235476.83647 -20419967.14145  21685553.9144                   21685552.0554
 -15403912.65248 -11984370.28345  21955821.1414                   21955817.4654
 11  9 26  2 24 30.0000000  0  7G22G29G15G18G05G26G21
  27423462.54746  21388320.34043  24507833.2894                   24507832.2584
 -40035944.35948 -31174977.56947  20442254.6174                   20442252.2304
 -24796267.34047 -19298837.11947  20478896.6724                   20478893.7624
  -9541797.11747  -7134535.07445  21724329.9774                   21724326.9144
 -44903145.39546 -34964771.21743  24476972.2114                   24476969.0824
 -26269038.95747 -20446119.46445  21679167.1484                   21679165.4804
 -15562828.03148 -12108200.42445  21925580.3594                   21925577.0704
 11  9 26  2 25  0.0000000  0  7G22G29G15G18G05G26G21
  27253571.05146  21255937.59644  24475503.9144                   24475501.9734
 -40089191.75448 -31216469.04647  20432121.9534                   20432119.4694
 -24890920.63348 -19372592.91947  20460884.6024                   20460881.8204
  -9675272.10948  -7238541.51145  21698929.9224                   21698927.6484
 -44915544.25046 -34974432.59843  24474612.3364                   24474609.4494
 -26302002.86747 -20471805.64845  21672894.4064                   21672892.8014
 -15721678.39148 -12231979.88445  21895352.2034                   21895348.6724
 11  9 26  2 25 30.0000000  0  7G22G29G15G18G05G26G21
  27083845.96947  21123684.45744  24443206.9224                   24443204.7154
 -40141901.99648 -31257541.95846  20422091.5004                   20422089.3834
 -24984966.91448 -19445875.71647  20442988.0084                   20442985.3554
  -9808507.36748  -7342361.16245  21673576.4534                   21673573.8634
 -44927999.66046 -34984138.15743  24472241.5634                   24472239.6174
 -26334373.70347 -20497029.68645  21666734.6024                   21666732.3714
 -15880465.45348 -12355710.03246  21865136.6724                   21865132.4344
 11  9 26  2 26  0.0000000  0  7G22G29G15G18G05G26G21
  28489718.47746  22219169.77644  24710734.8054                   24710733.0744
 -38618649.65648 -30070592.09146  20711956.8674                   20711954.5084
 -23502978.57448 -18291079.59647  20725000.8134                   20724998.4104
  -8366074.51248  -6218387.47945  21948062.3134                   21948059.9064
 -43365087.32446 -33766284.39544  24769654.0704                   24769651.5234
 -24790728.35247 -19294189.16945  21960480.4844                   21960478.3714
 -14463757.96148 -11251782.10845  22134726.8754                   22134722.4184
 11  9 26  2 26 30.0000000  0  7G22G29G15G18G05G26G21
  28320332.21947  22087180.63944  24678502.2974                   24678499.7424
 -38670283.35248 -30110826.14146  20702131.2274                   20702129.0354
 -23595806.32448 -18363412.89246  20707336.6094                   20707334.0044
  -8498826.93748  -6321830.88445  21922800.5784                   21922797.2544
 -43377652.31246 -33776075.27643  24767262.2034                   24767260.5704
 -24821915.33647 -19318490.72045  21954545.8834                   21954543.6334
 -14622409.03548 -11375406.29845  22104536.5474                   22104531.4774
 11  9 26  2 27  0.0000000  0  7G22G29G15G18G05G26G21
  28151116.45746  21955324.43344  24646301.4694                   24646298.1914
 -38721379.64548 -30150641.44346  20692408.2504                   20692406.0314
 -23688024.10548 -18435270.89147  20689788.2274                   20689785.6054
  -8631337.58248  -6425085.89945  21897584.4694                   21897581.6564
 -43390272.00846 -33785908.77243  24764861.7274                   24764859.0864
 -24852512.82447 -19342332.93245  21948723.6644                   21948721.0354
 -14780988.98448 -11498975.05945  22074359.4774                   22074355.4454
 11  9 26  2 27 30.0000000  0  7G22G29G15G18G05G26G21
  27982072.01246  21823601.68043  24614133.1094                   24614129.5594
 -38771939.53948 -30190038.76247  20682787.0234                   20682784.5594
 -23779631.53948 -18506653.29147  20672355.7584                   20672352.9804
  -8763606.74248  -6528152.74545  21872414.4224                   21872411.0314
 -43402947.00846 -33795785.45043  24762449.9144                   24762447.7074
 -24882523.21147 -19365717.66545  21943012.6884                   21943009.9144
 -14939496.00448 -11622486.98545  22044196.6724                   22044193.2544
 11  9 26  2 28  0.0000000  0  7G22G29G15G18G05G26G21
  27813197.05146  21692010.94144  24581996.8204                   24581993.4494
 -38821965.95748 -30229020.38647  20673266.9844                   20673264.8524
 -23870631.23048 -18577562.13047  20655038.7424                   20655036.1374
  -8895636.82448  -6631033.28746  21847289.9924                   21847286.6564
 -43415679.62146 -33805706.95543  24760026.2974                   24760024.0864
 -24911950.81647 -19388648.27045  21937412.4844                   21937410.6724
 -15097930.58248 -11745942.47746  22014047.6804                   22014043.9734
 11  9 26  2 28 30.0000000  0  7G22G29G15G18G05G26G21
  27644493.11346  21560553.52244  24549893.3054                   24549890.5274
 -38871458.80148 -30267586.24646  20663848.8204                   20663846.8134
 -23961022.03148 -18647996.50547  20637838.5864                   20637835.9304
  -9027427.12948  -6733726.99845  21822211.3594                   21822207.9654
 -43428468.72746 -33815672.51643  24757592.1254                   24757590.7854
 -24940796.57447 -19411125.46745  21931923.7734                   21931920.8054
 -15256289.94548 -11869339.36346  21983913.2504                   21983909.3164
 11  9 26  2 29  0.0000000  0  7G22G29G15G18G05G26G21
  27475962.35246  21429231.01644  24517822.7114                   24517820.0824
 -38920417.81248 -30305736.12746  20654532.0084                   20654530.1564
 -24050802.75448 -18717955.49447  20620753.1094                   20620750.6294
  -9158976.41448  -6836232.89945  21797177.9224                   21797174.8054
 -43441313.52346 -33825681.43243  24755148.5314                   24755146.7384
 -24969061.54347 -19433150.12545  21926544.9694                   21926542.3754
 -15414570.78548 -11992675.06846  21953793.1484                   21953789.2074
 11  9 26  2 29 30.0000000  0  7G22G29G15G18G05G26G21
  27307603.68446  21298042.59643  24485785.2974                   24485782.2974
 -38968845.37148 -30343471.89846  20645316.5704                   20645314.4964
 -24139974.75048 -18787440.14747  20603784.7274                   20603781.7154
  -9290286.63348  -6938552.51046  21772190.7734                   21772187.2384
 -43454215.75446 -33835735.13643  24752693.4064                   24752690.8524
 -24996749.47347 -19454725.13745  21921276.1334                   21921273.7154
 -15572772.79747 -12115949.33945  21923688.2424                   21923684.4884
 11  9 26  2 30  0.0000000  0  7G22G29G15G18G05G26G21
  27139417.18946  21166988.34543  24453780.0164                   24453776.9384
 -39016742.96948 -30380794.71746  20636202.2194                   20636200.1094
 -24228538.55148 -18856450.87046  20586931.7034                   20586928.7504
  -9421358.16448  -7040686.13546  21747248.7894                   21747245.0944
 -43467176.00046 -33845834.04343  24750226.1564                   24750224.9344
 -25023862.75047 -19475852.34745  21916116.6564                   21916114.2074
 -15730894.29347 -12239160.87345  21893598.8204                   21893594.6764
 11  9 26  2 30 30.0000000  0  7G22G29G15G18G05G26G21
  26971401.09446  21036066.88043  24421807.0704                   24421805.2154
 -39064113.75048 -30417707.00546  20627187.8204                   20627185.7704
 -24316496.41848 -18924989.45347  20570193.5554                   20570191.1214
  -9552193.65648  -7142635.82846  21722351.6724                   21722348.1174
 -43480196.35046 -33855979.85143  24747749.4304                   24747747.7464
 -25050406.03947 -19496535.44645  21911065.1414                   21911063.4574
 -15888936.52748 -12362310.63846  21863524.4144                   21863520.3284
 11  9 26  2 31  0.0000000  0  7G22G29G15G18G05G26G21
  26803556.79346  20905279.23643  24389868.0704                   24389863.6524
 -39110958.37948 -30454209.31946  20618273.6024                   20618271.5394
 -24403848.12148 -18993055.68947  20553570.9614                   20553568.4184
  -9682792.79748  -7244401.36245  21697499.3984                   21697495.5124
 -43493276.80946 -33866172.34343  24745260.1884                   24745258.9344
 -25076380.97747 -19516775.66445  21906122.9844                   21906120.4844
 -16046896.48448 -12485396.30446  21833465.6484                   21833461.5664
 11  9 26  2 31 30.0000000  0  7G22G29G15G18G05G26G21
  26635883.41846  20774624.80143  24357960.4064                   24357956.9694
 -39157278.64548 -30490303.04446  20609459.3914                   20609457.2734
 -24490594.10548 -19060649.93747  20537063.7034                   20537061.1644
  -9813156.46948  -7345983.40946  21672691.9534                   21672688.0314
 -43506418.20746 -33876412.40443  24742759.4454                   24742756.9924
 -25101790.53947 -19536575.31445  21901287.7034                   21901284.9924
 -16204773.29347 -12608417.15846  21803422.4614                   21803418.5594
 11  9 26  2 32  0.0000000  0  6G22G29G15G18G26G21
  26468382.29346  20644104.62043  24326085.7814                   24326083.7504
 -39203074.96948 -30525988.50846  20600744.3914                   20600742.4804
 -24576734.00048 -19127771.91446  20520671.6884                   20520669.2934
  -9943284.37148  -7447381.73246  21647929.4064                   21647925.8204
 -25126636.43447 -19555935.74845  21896559.3054                   21896557.1914
 -16362564.31648 -12731371.16846  21773395.9774                   21773392.3984
 11  9 26  2 32 30.0000000  0  6G22G29G15G18G26G21
  26301057.19946  20513721.67943  24294244.9694                   24294242.7344
 -39248345.21548 -30561264.02247  20592130.0394                   20592127.4804
 -24662264.99248 -19194419.41647  20504395.7584                   20504393.4534
 -10073173.51648  -7548594.02145  21623212.0634                   21623208.4184
 -25150917.77747 -19574856.29345  21891939.2344                   21891936.9414
 -16520264.30547 -12854254.22846  21743385.8674                   21743382.3754
 11  9 26  2 33  0.0000000  0  6G22G29G15G18G26G21
  26133907.44546  20383475.19043  24262437.4304                   24262435.2704
 -39293091.67648 -30596131.39646  20583615.1174                   20583612.8204
 -24747188.52348 -19260593.57347  20488235.6174                   20488232.8554
 -10202825.29748  -7649621.35046  21598540.4064                   21598536.7734
 -25174637.85547 -19593339.45645  21887425.0704                   21887423.0554
 -16677872.75447 -12977065.99746  21713394.0864                   21713390.6294
 11  9 26  2 33 30.0000000  0  6G22G29G15G18G26G21
  25966939.31646  20253370.27243  24230664.6484                   24230661.4614
 -39337310.02348 -30630587.26646  20575200.2344                   20575198.0434
 -24831499.19948 -19326290.18947  20472191.9454                   20472188.8754
 -10332234.35947  -7750459.54245  21573914.6094                   21573910.5514
 -25197793.71147 -19611382.99645  21883018.3914                   21883016.6604
 -16835382.17247 -13099800.58546  21683421.4614                   21683417.8874
 11  9 26  2 34  0.0000000  0  6G22G29G15G18G26G21
  27375578.52046  21351011.31343  24498718.2034                   24498716.4304
 -37805579.60948 -29437031.10246  20866679.1804                   20866677.2544
 -23339774.20348 -18163907.06046  20756057.5474                   20756054.7624
  -8885976.66447  -6623505.44946  21849127.9454                   21849124.2304
 -23644966.99247 -18401388.13745  22178511.2424                   22178509.1524
 -15417365.04348 -11994852.15946  21953261.2814                   21953257.4774
 11  9 26  2 34 30.0000000  0  6G22G29G15G18G26G21
  27208967.65247  21221184.87544  24467014.6024                   24467011.7854
 -37848751.73448 -29470671.72646  20858463.8444                   20858461.8554
 -23422866.66048 -18228654.41346  20740245.5634                   20740242.7814
  -9014908.03147  -6723971.40946  21824593.2344                   21824590.1564
 -23667008.23447 -18418563.15945  22174317.5004                   22174315.0474
 -15574677.73847 -12117433.46946  21923325.8984                   21923322.1524
 11  9 26  2 35  0.0000000  0  6G22G29G15G18G26G21
  27042536.25847  21091498.22644  24435342.9304                   24435340.1884
 -37891402.52748 -29503906.12046  20850347.5634                   20850345.7974
 -23505350.48448 -18292927.50247  20724549.3754                   20724546.4414
  -9143601.10547  -6824251.68846  21800103.4304                   21800100.1484
 -23688495.65647 -18435306.58945  22170228.5554                   22170226.5394
 -15731889.23847 -12239935.89946  21893408.8054                   21893405.5474
 11  9 26  2 35 30.0000000  0  6G22G29G15G18G26G21
  26876281.37947  20961949.15844  24403706.0704                   24403703.6214
 -37933536.44548 -29536737.74146  20842329.6564                   20842327.3094
 -23587229.38348 -18356729.22547  20708968.5634                   20708965.6254
  -9272058.93047  -6924348.63546  21775659.2344                   21775655.2424
 -23709435.01647 -18451622.99345  22166243.3204                   22166241.4774
 -15889000.98447 -12362360.59646  21863511.1954                   21863507.9304
 11  9 26  2 36  0.0000000  0  6G22G29G15G18G26G21
  26710202.52746  20832537.19544  24372101.2734                   24372098.6764
 -37975156.03948 -29569168.59846  20834409.5944                   20834407.5944
 -23668504.56248 -18420060.52947  20693502.3364                   20693499.4534
  -9400283.33247  -7024263.72046  21751258.8754                   21751255.0704
 -23729829.75047 -18467515.02444  22162363.1724                   22162360.4654
 -16046012.02747 -12484706.83546  21833633.3834                   21833629.3794
 11  9 26  2 36 30.0000000  0  6G22G29G15G18G26G21
  26544300.07047  20703262.72744  24340532.0704                   24340528.5234
 -38016262.13748 -29601199.33746  20826587.7814                   20826584.9534
 -23749176.46548 -18482921.73646  20678150.7974                   20678147.7734
  -9528274.35247  -7123996.92846  21726902.4614                   21726899.4414
 -23749682.14147 -18482984.42144  22158584.6954                   22158582.7974
 -16202920.03148 -12606972.80046  21803774.9224                   21803770.8634
 11  9 26  2 37  0.0000000  0  6G22G29G15G18G26G21
  26378572.78147  20574124.72644  24308994.2344                   24308991.7704
 -38056858.00848 -29632832.47846  20818862.1024                   20818859.9064
 -23829246.95348 -18545314.31446  20662913.8524                   20662911.3014
  -9656034.11747  -7223549.95846  21702590.7974                   21702587.0944
 -23768996.39547 -18498034.48744  22154909.5474                   22154907.8054
 -16359724.53147 -12729158.11446  21773936.0084                   21773931.9024
 11  9 26  2 37 30.0000000  0  6G22G29G15G18G26G21
  26213019.81347  20445122.58844  24277490.9304                   24277489.1644
 -38096946.03548 -29664069.90446  20811234.2034                   20811231.2624
 -23908718.15248 -18607239.91146  20647791.1254                   20647787.8834
  -9783564.26647  -7322924.05246  21678322.5314                   21678318.4774
 -23787776.29347 -18512668.16044  22151336.1724                   22151333.9184
 -16516425.18747 -12851262.49246  21744116.7814                   21744113.1094
 11  9 26  2 38  0.0000000  0  6G22G29G15G18G26G21
  26047639.52047  20316254.96844  24246020.0784                   24246016.8284
 -38136529.52048 -29694914.17846  20803701.1094                   20803699.0084
 -23987592.29348 -18668700.27146  20632781.6254                   20632778.8444
  -9910866.58247  -7422120.60346  21654097.6414                   21654094.1254
 -23806026.12947 -18526888.82544  22147864.0944                   22147861.1294
 -16673022.14547 -12973286.05646  21714317.5164                   21714313.5744
 11  9 26  2 38 30.0000000  0  7G22G29G09G15G18G26G21
  25882432.30947  20187522.24244  24214582.3054                   24214578.7814
 -38175610.06647 -29725366.57046  20796264.9064                   20796262.5514
  31239897.26256  24363558.81253  24840572.5314                   24840570.7074
 -24065870.07848 -18729695.93446  20617886.4694                   20617883.1214
 -10037941.84847  -7521140.25846  21629915.8984                   21629912.6684
 -23823748.94947 -18540698.79745  22144490.7584                   22144488.4884
 -16829513.51247 -13095227.34646  21684538.2034                   21684534.3014
 11  9 26  2 39  0.0000000  0  7G22G29G09G15G18G26G21
  25717388.53147  20058916.86443  24183174.7274                   24183171.7934
 -38214199.15647 -29755435.99446  20788921.2274                   20788918.9184
  31057575.69946  24221490.21443  24805876.8834                   24805876.3444
 -24143561.80148 -18790234.91847  20603101.3204                   20603099.3014
 -10164800.31247  -7619990.96946  21605775.7584                   21605772.4534
 -23840956.65247 -18554107.41945  22141216.1094                   22141214.3054
 -16985907.06648 -13217092.41746  21654777.1724                   21654773.4264
 11  9 26  2 39 30.0000000  0  7G22G29G09G15G18G26G21
  25552506.84047  19930437.71744  24151799.0634                   24151795.0354
 -38252299.22747 -29785124.36346  20781670.8914                   20781668.6724
  30875160.23846  24079348.36043  24771164.8364                   24771164.4304
 -24220669.82448 -18850319.08046  20588428.2814                   20588425.7194
 -10291443.91847  -7718674.27146  21581676.0944                   21581672.5864
 -23857653.80547 -18567118.16945  22138038.9614                   22138036.7344
 -17142202.84047 -13338881.30246  21625035.2274                   21625031.0944
 11  9 26  2 40  0.0000000  0  7G22G29G09G15G18G26G21
  25387785.73847  19802083.80644  24120453.3594                   24120450.7854
 -38289914.21147 -29814434.75346  20774512.9844                   20774510.9734
  30692652.14146  23937134.37443  24736435.2734                   24736434.1804
 -24297196.60248 -18909950.31646  20573865.7424                   20573863.1134
 -10417875.11747  -7817192.05646  21557616.8594                   21557613.5514
 -23873845.07847 -18579734.77145  22134958.0164                   22134955.3444
 -17298400.53547 -13460593.77746  21595311.5554                   21595306.9734
 11  9 26  2 40 30.0000000  0  7G22G29G09G15G18G26G21
  25223228.66446  19673857.66144  24089139.4694                   24089136.2774
 -38327042.64847 -29843366.01646  20767447.7034                   20767445.3794
  30510057.54746  23794853.00743  24701687.9694                   24701688.4414
 -24373140.25848 -18969127.17746  20559414.3364                   20559411.4884
 -10544090.69947  -7915541.81546  21533598.5084                   21533595.5904
 -23889529.89147 -18591956.69245  22131972.8524                   22131971.1024
 -17454495.46948 -13582226.17146  21565607.7344                   21565603.6764
 11  9 26  2 41  0.0000000  0  7G22G29G09G15G18G26G21
  25058834.67246  19545758.51144  24057856.4304                   24057852.4104
 -38363686.37948 -29871919.58546  20760474.9064                   20760472.3984
  30327379.21146  23652506.31843  24666925.9844                   24666925.0864
 -24448501.89148 -19027850.51447  20545073.3914                   20545070.6414
 -10670092.26648  -8013724.82446  21509621.7814                   21509618.0204
 -23904711.49647 -18603786.52844  22129083.6884                   22129082.3874
 -17610486.21548 -13703777.36346  21535923.9064                   21535920.3094
 11  9 26  2 41 30.0000000  0  7G22G29G09G15G18G26G21
  24894603.96446  19417786.60544  24026604.2194                   24026600.0234
 -38399847.78147 -29900097.31246  20753593.4694                   20753591.2344
  30144619.63346  23510096.37844  24632148.8984                   24632147.3594
 -24523282.59448 -19086121.16546  20530843.0944                   20530840.2854
 -10795880.55147  -8111741.65146  21485684.8834                   21485681.2624
 -23919393.44947 -18615227.03544  22126289.7034                   22126288.3134
 -17766371.37948 -13825246.29546  21506259.5704                   21506256.2194
 11  9 26  2 42  0.0000000  0  7G22G29G09G15G18G26G21
  26305963.12046  20517547.14144  24295176.6174                   24295173.2194
 -36860106.03548 -28700298.55246  21046596.8444                   21046594.7504
  31537209.04746                  24595231.09944  24897148.4614   24897147.5554
 -23022060.00848 -17916337.31946  20816516.3754                   20816513.6054
  -9346031.28948  -6981988.94546  21761581.7814                   21761578.7034
 -22358156.58647 -17398678.83344  22423383.7114                   22423381.8404
 -16346722.90248 -12719026.68046  21776410.0234                   21776405.8444
 11  9 26  2 42 30.0000000  0  7G22G29G09G15G18G26G21
  26142064.57046  20389834.13244  24263987.3444                   24263983.5314
 -36895302.20347 -28727724.15746  21039899.2504                   21039896.6564
  31354301.71547                  24452705.95444  24862342.7424   24862341.9264
 -23095676.44548 -17973700.75046  20802507.4534                   20802504.6954
  -9471389.87147  -7079670.92146  21737726.7194                   21737723.2934
 -22371841.61347 -17409342.50444  22420779.4924                   22420777.0044
 -16502386.34847 -12840322.85446  21746787.8284                   21746783.7664
 11  9 26  2 43  0.0000000  0  7G22G29G09G15G18G26G21
  25978329.88346  20262248.78844  24232829.8134                   24232825.9384
 -36930020.75447 -28754777.57846  21033292.2194                   21033290.2034
  31171322.86746                  24310125.18844  24827522.3054   24827521.7584
 -23168714.15248 -18030613.24846  20788608.7344                   20788606.3594
  -9596536.38347  -7177187.66146  21713912.4064                   21713908.8364
 -22385034.76647 -17419622.86844  22418268.8134                   22418266.4694
 -16657938.20747 -12961532.08046  21717187.2974                   21717182.9734
 11  9 26  2 43 30.0000000  0  7G22G29G09G15G18G26G21
  25814759.41046  20134791.39643  24201703.2034                   24201699.3164
 -36964263.40247 -28781460.17146  21026776.3054                   21026774.2624
  30988275.76246                  24167491.18543  24792689.7504   24792689.3834
 -23241174.35248 -18087075.72346  20774819.8674                   20774817.2544
  -9721471.40647  -7274539.60846  21690137.7114                   21690134.3014
 -22397738.83247 -17429522.14044  22415851.7974                   22415849.3984
 -16813376.27047 -13082652.62446  21687608.4774                   21687604.4844
 11  9 26  2 44  0.0000000  0  7G22G29G09G15G18G26G21
  25651355.45747  20007463.73944  24170608.9304                   24170604.3874
 -36998029.84047 -28807771.68146  21020350.8284                   21020348.7934
  30805165.62546                  24024808.01743  24757844.2664   24757844.4614
 -23313056.11348 -18143087.46546  20761141.3204                   20761138.8094
  -9846193.89147  -7371725.91945  21666404.2814                   21666400.2624
 -22409954.82847 -17439041.11844  22413527.0474                   22413524.8674
 -16968697.67647 -13203682.27946  21658051.8284                   21658047.9774
 11  9 26  2 44 30.0000000  0  7G22G29G09G15G18G26G21
  25488116.66847  19880264.77744  24139545.3284                   24139541.2544
 -37031322.77347 -28833714.23446  21014015.2974                   21014013.1844
  30621994.64546                  23882077.48743  24722988.9534   24722987.9184
 -23384361.35548 -18198649.98146  20747572.5944                   20747569.7424
  -9970704.94947  -7468747.50145  21642710.0554                   21642706.9804
 -22421686.78947 -17448182.92244  22411294.2664                   22411292.0394
 -17123901.05547 -13324619.96346  21628517.5704                   21628513.8754
 11  9 26  2 45  0.0000000  0  7G22G29G09G15G18G26G21
  25325042.81647  19753194.35043  24108513.2114                   24108508.5204
 -37064144.23047 -28859289.40746  21007769.8444                   21007767.8364
  30438765.45746                  23739301.60343  24688121.0164   24688119.8054
 -23455091.29748 -18253764.20346  20734112.9774                   20734109.9344
 -10095005.19147  -7565604.80145  21619056.7424                   21619053.3134
 -22432937.31247 -17456949.56844  22409153.6254                   22409150.9884
 -17278984.52347 -13445464.19646  21599006.0784                   21599002.4454
 11  9 26  2 45 30.0000000  0  7G22G29G09G15G18G26G21
  25162133.64147  19626252.24744  24077512.7814                   24077508.5554
 -37096497.02347 -28884499.39046  21001613.2194                   21001611.1174
  30255480.60945                  23596482.36143  24653242.4924   24653241.7624
 -23525247.53148 -18308431.38546  20720762.5554                   20720760.0474
 -10219096.42247  -7662299.21946  21595442.6334                   21595438.8674
 -22443710.68047 -17465344.42644  22407103.5784                   22407101.3404
 -17433947.32047 -13566214.40746  21569517.6884                   21569514.0084
 11  9 26  2 46  0.0000000  0  7G22G29G09G15G18G26G21
  24999390.76247  19499439.75644  24046543.2974                   24046539.8954
 -37128380.89148 -28909343.97046  20995545.7974                   20995544.0594
  30072144.85945                  23453623.37043  24618355.0784   24618353.6484
 -23594829.72348 -18362651.25846  20707521.4454                   20707519.2114
 -10342977.30947  -7758829.75346  21571869.1644                   21571865.6644
 -22454007.58647 -17473367.96444  22405143.9694                   22405142.1414
 -17588786.00047 -13686867.90446  21540052.9614                   21540049.0594
 11  9 26  2 46 30.0000000  0  7G22G29G09G15G18G26G21
  24836811.42247  19372754.64444  24015605.7274                   24015601.2194
 -37159800.87148 -28933827.07946  20989567.1174                   20989564.8324
  29888758.39545                  23310724.96043  24583458.5864   24583457.6374
 -23663841.94148 -18416427.00246  20694389.2424                   20694386.1764
 -10466651.17247  -7855198.97346  21548334.7814                   21548331.7034
 -22463834.01247 -17481024.94444  22403273.5004                   22403271.7624
 -17743501.53148 -13807425.44646  21510611.3364                   21510607.4734
 11  9 26  2 47  0.0000000  0  7G22G29G09G15G18G26G21
  24674396.64147  19246197.78544  23984698.7114                   23984694.3984
 -37190757.77048 -28957949.35446  20983676.4694                   20983673.8444
  29705325.53945                  23167790.41943  24548552.3834   24548551.0434
 -23732283.84048 -18469758.32846  20681365.1094                   20681362.1764
 -10590117.87147  -7951406.75946  21524839.9694                   21524836.6174
 -22473191.84447 -17488316.78344  22401493.5704                   22401491.3754
 -17898090.57047 -13927884.42446  21481194.4144                   21481190.3364
 11  9 26  2 47 30.0000000  0  7G22G29G09G15G18G26G21
  24512145.10247  19119768.09444  23953823.0554                   23953819.0864
 -37221254.79348 -28981713.26946  20977872.4844                   20977870.2274
  29521847.95745                  23024820.91543  24513637.1954   24513635.2974
 -23800158.19947 -18522647.42246  20668448.9144                   20668446.1644
 -10713379.06647  -8047454.41446  21501384.0234                   21501380.6414
 -22482085.41447 -17495246.85644  22399800.9304                   22399798.4804
 -18052553.14547 -14048244.85646  21451800.9844                   21451797.2304
 11  9 26  2 48  0.0000000  0  8G22G29G09G06G15G18G26G21
  24350057.62547  18993466.31744  23922979.2114                   23922975.4494
 -37251293.32048 -29005119.92246  20972155.9924                   20972154.0984
  29338329.39846                  22881819.55643  24478714.9534   24478714.1454
  32813622.73855  25589810.15153  24753386.0474                   24753385.1564
 -23867465.75848 -18575094.86846  20655640.5554                   20655637.8524
 -10836435.02047  -8143342.14646  21477966.9454                   21477963.8204
 -22490517.33647 -17501817.16044  22398197.1334                   22398193.8404
 -18206886.27347 -14168504.41646  21422432.0234                   21422428.3204
 11  9 26  2 48 30.0000000  0  8G22G29G09G06G15G18G26G21
  24188125.49246  18867285.52444  23892164.4064                   23892159.8364
 -37280884.00448 -29028177.59946  20966525.2974                   20966523.2504
  29154764.72346                  22738782.22743  24443783.6484   24443782.1954
  32631480.43046  25447881.18943  24718724.9694                   24718723.2774
 -23934216.08648 -18627108.08946  20642938.5394                   20642935.4264
 -10959294.96547  -8239077.13846  21454587.5084                   21454584.7584
 -22498498.96146 -17508036.64444  22396677.5474                   22396674.6844
 -18361096.70747 -14288668.36946  21393086.8204                   21393082.9144
 11  9 26  2 49  0.0000000  0  8G22G29G09G06G15G18G26G21
  24026345.46546  18741223.32744  23861378.0944                   23861373.5394
 -37310031.44148 -29050889.90446  20960979.3054                   20960976.8984
  28971154.20346                  22595709.16543  24408843.2424   24408842.2304
  32449591.55945  25306149.72742  24684111.9614                   24684108.5434
 -24000413.38747 -18678690.38446  20630341.8524                   20630339.1054
 -11081962.03147  -8334661.84346  21431244.9924                   21431241.4614
 -22506036.30947 -17513909.92344  22395243.9694                   22395240.9304
 -18515186.03947 -14408737.96346  21363764.8984                   21363760.8014
 11  9 26  2 49 30.0000000  0  8G22G29G09G06G15G18G26G21
  23864716.38347  18615278.66144  23830621.1334                   23830617.1604
 -37338739.42248 -29073259.76646  20955516.1334                   20955513.4924
  28787499.55146                  22452601.79843  24373894.2974   24373893.6684
  32267957.16846  25164616.48842  24649549.1254                   24649545.1334
 -24066060.57847 -18729844.02846  20617849.5864                   20617846.8524
 -11204438.41047  -8430097.95446  21407938.4774                   21407935.5084
 -22513133.73047 -17519440.38544  22393892.2114                   22393890.4024
 -18669153.27747 -14528712.42546  21334466.0004                   21334461.5084
 11  9 26  2 50  0.0010000  0  8G22G29G09G06G15G18G26G21
  25278662.13747  19717054.67644  24099686.0704                   24099681.4494
 -35791586.17248 -27867685.81046  21249929.2194                   21249927.3554
  30179227.61746                  23537065.23443  24638732.8204   24638731.2734
  33662003.56346  26250886.48643  24914827.3524                   24914823.2154
 -22555735.13747 -17552967.05146  20905254.9844                   20905251.6174
  -9751301.31248  -7297783.30246  21684461.8674                   21684458.3484
 -20944370.43446 -16297027.41944  22692418.1174                   22692416.4454
 -17247572.88347 -13420987.42346  21604983.3204                   21604979.6604
 11  9 26  2 50 30.0000000  0  8G22G29G09G06G15G18G26G21
  25117350.34847  19591357.29944  24068988.8284                   24068985.6134
 -35819410.40648 -27889367.02446  21244634.5314                   21244632.7034
  29995509.98446  23393908.74343  24603772.4774                   24603770.6334
  33480901.47346  26109768.12843  24880365.7894                   24880362.4024
 -22620273.96548 -17603257.02846  20892973.7504                   20892970.3874
  -9873384.80947  -7392913.27846  21661229.7504                   21661226.1134
 -20950587.29347 -16301871.73044  22691235.1414                   22691233.5314
 -17401275.30148 -13540755.51546  21575734.9144                   21575730.9694
 11  9 26  2 51  0.0000000  0  8G22G29G09G06G15G18G26G21
  24956190.46547  19465778.30644  24038321.4774                   24038317.6024
 -35846795.34048 -27910705.95246  21239423.5634                   21239421.7034
  29811758.38746  23250725.76743  24568805.4454                   24568803.9144
  33300061.73046  25968854.08343  24845953.0474                   24845950.5904
 -22684262.02347 -17653117.84946  20880797.0004                   20880794.3014
  -9995276.92647  -7487894.11846  21638034.4774                   21638031.1484
 -20956366.79346 -16306375.24644  22690135.8134                   22690133.7504
 -17554849.09448 -13660423.38146  21546510.7584                   21546507.0434
 11  9 26  2 51 30.0000000  0  8G22G29G09G06G15G18G26G21
  24795184.73447  19340319.39444  24007682.6644                   24007679.0704
 -35873745.31248 -27931705.94546  21234295.5314                   21234293.1724
  29627979.04746  23107521.16743  24533832.3834                   24533831.0124
  33119489.67646  25828148.65843  24811590.6954                   24811590.3164
 -22747701.74248 -17702551.38446  20868724.5634                   20868721.7114
 -10116977.75047  -7582725.91946  21614875.6254                   21614872.2854
 -20961715.16846 -16310542.81144  22689118.2894                   22689115.9654
 -17708289.98848 -13779987.70246  21517312.0394                   21517307.6054
 11  9 26  2 52  0.0000000  0  8G22G29G09G06G15G18G26G21
  24634337.68047  19214984.15144  23977075.5554                   23977070.9454
 -35900258.15648 -27952365.32346  21229249.9774                   21229248.2034
  29444179.14146  22964300.48944  24498856.7894                   24498856.3634
  32939192.20346  25687657.20843  24777280.9304                   24777280.7034
 -22810590.18747 -17751555.35446  20856757.2274                   20856754.6454
 -10238483.30147  -7677405.54046  21591753.6334                   21591750.1454
 -20966631.13746 -16314373.47744  22688182.4774                   22688180.5904
 -17861591.29348 -13899443.24146  21488139.7114                   21488135.6414
 11  9 26  2 52 30.0000000  0  8G22G29G09G06G15G18G26G21
  24473648.29747  19089771.75644  23946496.8674                   23946493.4614
 -35926336.70748 -27972686.26146  21224287.3754                   21224285.1724
  29260361.40246  22821065.98543  24463876.9844                   24463876.5474
  32759170.77046  25547380.90343  24743023.9384                   24743023.5904
 -22872929.62547 -17800131.53146  20844894.4924                   20844892.0124
 -10359794.87947  -7771934.00846  21568668.6644                   21568665.1094
 -20971118.66446 -16317870.23944  22687327.6954                   22687326.9804
 -18014752.27347 -14018789.44946  21458993.9304                   21458989.9104
 11  9 26  2 53  0.0000000  0  8G22G29G09G06G15G18G26G21
  24313116.26647  18964681.94544  23915949.1484                   23915944.9384
 -35951983.65648 -27992670.93046  21219406.8364                   21219404.7854
  29076528.37546  22677819.54244  24428895.9924                   24428894.2544
  32579427.34446  25407321.14043  24708819.7344                   24708818.5704
 -22934721.85547 -17848281.31746  20833135.9694                   20833132.8244
 -10480913.95347  -7866312.48146  21545620.9924                   21545617.2624
 -20975181.13346 -16321035.84844  22686555.6644                   22686553.7074
 -18167771.50047 -14138025.18146  21429875.5234                   21429871.4494
 11  9 26  2 53 30.0000000  0  8G22G29G09G06G15G18G26G21
  24152742.33647  18839715.38644  23885429.9064                   23885426.7274
 -35977200.25048 -28012320.24546  21214608.6334                   21214606.4884
  28892684.27046  22534564.49844  24393911.3524                   24393909.5664
  32399965.40646  25267480.72643  24674669.4694                   24674668.4064
 -22995967.21548 -17896004.96146  20821481.4384                   20821478.6844
 -10601839.59048  -7960540.22046  21522608.7584                   21522605.9024
 -20978820.75847 -16323871.93844  22685863.0474                   22685860.5704
 -18320645.92247 -14257148.08546  21400784.6094                   21400780.4774
 11  9 26  2 54  0.0000000  0  8G22G29G09G06G15G18G26G21
  23992525.05547  18714870.79044  23854941.9454                   23854937.9614
 -36001989.89848 -28031636.85546  21209890.5864                   21209888.6914
  28708830.81646  22391302.17544  24358924.5634                   24358923.2154
  32220785.92646  25127860.48643  24640572.2114                   24640571.7194
 -23056668.88748 -17943304.94946  20809929.9384                   20809927.4264
 -10722574.50448  -8054619.36446  21499634.2034                   21499631.0744
 -20982042.00047 -16326382.00044  22685250.3364                   22685247.8984
 -18473375.22347 -14376157.92046  21371721.0084                   21371717.1294
 11  9 26  2 54 30.0000000  0  8G22G29G09G06G15G18G26G21
  23832467.60547  18590150.79044  23824483.7114                   23824479.5474
 -36026351.32848 -28050619.79846  21205255.5554                   21205253.1994
  28524974.66046  22248037.65743  24323938.0314                   24323937.1174
  32041894.50046  24988464.62343  24606531.0944                   24606529.3484
 -23116824.85248 -17990179.71546  20798483.2504                   20798480.1804
 -10843116.26647  -8148547.97346  21476695.6724                   21476692.2704
 -20984844.77747 -16328565.99544  22684716.8204                   22684714.6564
 -18625954.09848 -14495050.52446  21342686.1174                   21342681.8914
 11  9 26  2 55  0.0000000  0  8G22G29G09G06G15G18G26G21
  23672566.96147  18465552.98844  23794056.0474                   23794052.0084
 -36050290.07448 -28069273.36746  21200699.9064                   21200697.4224
  28341115.88746  22104771.20544  24288950.5864                   24288948.9184
  31863290.48046  24849292.72743  24572543.2894                   24572539.4654
 -23176439.93047 -18036633.02746  20787138.4384                   20787135.7424
 -10963468.16447  -8242328.65846  21453793.3054                   21453789.7234
 -20987235.30146 -16330428.75744  22684261.8754                   22684260.3134
 -18778383.66848 -14613826.80346  21313679.3134                   21313675.6764
 11  9 26  2 55 30.0000000  0  8G22G29G09G06G15G18G26G21
  23512821.78547  18341076.32244  23763656.9064                   23763653.2034
 -36073809.21548 -28087599.98046  21196224.5004                   21196221.9964
  28157256.91846  21961504.52744  24253962.3204                   24253962.4344
  31684975.21546  24710345.74143  24538611.2974                   24538607.7234
 -23235516.59048 -18082666.77646  20775896.5314                   20775893.6414
 -11083631.89847  -8335962.70946  21430926.7974                   21430922.8874
 -20989217.68446 -16331973.50244  22683883.9614                   22683882.9304
 -18930662.95348 -14732485.94946  21284701.9534                   21284698.1844
 11  9 26  2 56  0.0000000  0  8G22G29G09G06G15G18G26G21
  23353235.22347  18216723.24544  23733288.9454                   23733284.6524
 -36096907.69548 -28105598.80846  21191828.9614                   21191826.2544
  27973404.22746  21818242.74943  24218976.9614                   24218975.6954
  31506954.25046  24571628.17843  24504735.1724                   24504732.5164
 -23294053.12548 -18128279.64946  20764757.1804                   20764754.2504
 -11203604.64547  -8429447.94146  21408096.9064                   21408093.1914
 -20990791.60546 -16333199.92344  22683584.9614                   22683582.7774
 -19082786.70748 -14851023.91646  21255753.5784                   21255750.2344
 11  9 26  2 56 30.0000000  0  8G22G29G09G06G15G18G26G21
  23193805.73447  18092492.54944  23702950.6564                   23702946.8554
 -36119589.45348 -28123272.90646  21187512.3984                   21187510.3634
  27789559.49646  21674987.17843  24183991.9694                   24183991.0704
  31329228.55946  24433140.66443  24470914.8594                   24470912.2624
 -23352052.83648 -18173474.22146  20753720.7894                   20753717.5004
 -11323389.03148  -8522786.39846  21385302.7894                   21385299.0044
 -20991962.00046 -16334111.94144  22683361.8284                   22683359.9804
 -19234754.60248 -14969440.44546  21226835.1564                   21226831.3364
 11  9 26  2 57  0.0000000  0  8G22G29G09G06G15G18G26G21
  23034532.85547  17968383.91644  23672641.7424                   23672637.4144
 -36141856.82848 -28140624.12346  21183275.2114                   21183272.9844
  27605725.82846  21531740.23243  24149010.0554                   24149007.9964
  31151800.33646  24294885.00543  24437149.6884                   24437149.2304
 -23409517.22748 -18218251.66446  20742785.4384                   20742782.4184
 -11442985.76648  -8615978.63846  21362544.1644                   21362540.5904
 -20992732.05946 -16334711.98744  22683214.3204                   22683213.6294
 -19386564.82448 -15087734.10946  21197946.3284                   21197942.4344
 11  9 26  2 57 30.0000000  0  8G22G29G09G06G15G18G26G21
  22875416.28947  17844397.00244  23642363.2034                   23642357.8794
 -36163712.46948 -28157654.50546  21179116.2894                   21179114.0044
  27421905.84046  21388503.94543  24114030.7664                   24114028.9064
  30974671.28146  24156862.44243  24403442.9534                   24403443.8834
 -23466448.71948 -18262613.86046  20731951.8524                   20731948.8484
 -11562395.69948  -8709025.31446  21339821.3984                   21339817.4144
 -20993105.58646 -16335003.04244  22683144.1174                   22683142.6094
 -19538215.87548 -15205903.74546  21169088.3984                   21169084.1604
 11  9 26  2 58  0.0000000  0  8G22G29G09G06G15G18G26G21
  22716457.35247  17720532.97144  23612113.9064                   23612109.6994
 -36185157.09448 -28174364.60846  21175035.2114                   21175033.4304
  27238104.76246  21245282.34244  24079053.7274                   24079052.5354
  30797845.59846  24019076.34143  24369794.9844                   24369794.2544
 -23522847.16048 -18306560.68146  20721219.0944                   20721216.6094
 -11681618.55948  -8801926.21846  21317133.8364                   21317129.8054
 -20993083.93746 -16334986.20143  22683148.8674                   22683146.0204
 -19689704.11348 -15323946.50146  21140261.1954                   21140256.9694
 11  9 26  2 58 30.0000000  0  8G22G29G09G06G15G18G26G21
  24133079.19547  18824394.23844  23881688.3364                   23881683.3554
 -34630774.28548 -26963157.23646  21470824.4924                   21470822.7974
  28629749.74646                  22329681.15543                  24343875.2424
  24343874.4654   32196749.31346  25109131.18143  24635997.5554   24635995.5474
 -22003294.50048 -17122493.67146  21010381.0634                   21010377.5784
 -10225232.64548  -7667080.01946  21594274.8594                   21594271.0664
 -19417252.34046 -15107065.50044  22983018.9384                   22983017.6134
 -18265604.65248 -14214258.59946  21411257.8834                   21411254.2894
 11  9 26  2 59  0.0000000  0  8G22G29G09G06G15G18G26G21
  23974431.05547  18700772.34644  23851497.9924                   23851492.9924
 -34651407.73848 -26979235.27146  21466898.2504                   21466895.9774
  28445992.08246                  22186493.44243                  24308907.1954
  24308905.7894   32020533.09846  24971819.94143  24602463.3674   24602462.8094
 -22058636.00448 -17165616.90546  20999849.6254                   20999846.4884
 -10344086.36748  -7759693.28846  21571657.8134                   21571653.6844
 -19416454.19146 -15106443.54844  22983170.7974                   22983169.2074
 -18416765.33248 -14332046.12746  21382493.3284                   21382489.0784
 11  9 26  2 59 30.0000000  0  8G22G29G09G06G15G18G26G21
  23815938.84847  18577271.98744  23821338.6174                   23821334.2154
 -34671638.35548 -26994999.39046  21463048.1174                   21463046.4454
  28262261.94946                  22043327.16543                  24273944.2034
  24273942.1644   31844625.75446  24834749.36143  24568990.8204   24568988.9304
 -22113450.92248 -17208329.82546  20989418.5704                   20989415.8284
 -10462755.98448  -7852163.09946  21549075.5704                   21549072.0904
 -19415271.58247 -15105522.04544  22983396.5474                   22983393.9414
 -18567758.49248 -14449703.12546  21353760.2734                   21353756.1954
 11  9 26  3  0  0.0000000  0  8G22G29G09G06G15G18G26G21
  23657605.00447  18453895.02144  23791208.2274                   23791202.9654
 -34691465.85548 -27010449.39546  21459275.6564                   21459273.1094
  28078565.13747                  21900186.81643                  24238988.7114
  24238986.3834   31669032.35546  24697923.35643  24535577.1644   24535573.4454
 -22167737.77048 -17250631.24346  20979088.0234                   20979085.3914
 -10581239.28148  -7944487.71946  21526529.2894                   21526525.5514
 -19413705.35947 -15104301.63444  22983695.0084                   22983692.7034
 -18718579.49248 -14567225.98046  21325060.0474                   21325055.9414
 11  9 26  3  0 30.0000000  0  8G22G29G09G06G15G18G26G21
  23499425.81647  18330638.57544  23761107.2734                   23761102.8794
 -34710896.09848 -27025589.86146  21455578.1884                   21455576.0204
  27894901.48447                  21757072.40243                  24204037.8284
  24204036.6454   31493751.67246  24561341.10143  24502222.0634   24502216.8594
 -22221502.35548 -17292525.71646  20968857.0394                   20968854.1294
 -10699540.73448  -8036670.64846  21504017.2114                   21504013.6214
 -19411761.89847 -15102787.24544  22984064.7734                   22984062.7344
 -18869230.02748 -14684615.99446  21296392.4304                   21296388.3134
 11  9 26  3  1  0.0000000  0  8G22G29G09G06G15G18G26G21
  23341402.37546  18207503.46644  23731037.6724                   23731031.2504
 -34729930.35248 -27040421.76946  21451955.9844                   21451954.0394
  27711275.51246                  21613987.26144                  24169094.9694
  24169093.1094   31318787.07046  24425005.14543  24468927.1724   24468922.6484
 -22274745.54748 -17334013.91346  20958724.8524                   20958722.2934
 -10817659.53948  -8128711.25846  21481540.0554                   21481535.8554
 -19409443.60247 -15100980.79644  22984505.6254                   22984503.8914
 -19019706.80148 -14801870.60846  21267757.3364                   21267753.1604
 11  9 26  3  1 30.0000000  0  8G22G29G09G06G15G18G26G21
  23183534.64847  18084489.70644  23700995.6254                   23700990.2774
 -34748570.93048 -27054946.89746  21448408.6724                   21448406.5084
  27527690.54347                  21470934.09944                  24134160.7734
  24134158.3674   31144141.08246  24288917.38443  24435692.9774   24435689.8954
 -22327468.57848 -17375096.78446  20948692.3284                   20948689.1604
 -10935596.70348  -8220610.34146  21459096.9454                   21459093.1024
 -19406753.57047 -15098884.67044  22985017.9844                   22985015.4104
 -19170007.62148 -14918988.11446  21239155.9384                   21239151.5004
 11  9 26  3  2  0.0000000  0  8G22G29G09G06G15G18G26G21
  23025822.62947  17961597.24844  23670983.6954                   23670977.2894
 -34766819.75448 -27069166.77146  21444936.1954                   21444933.9104
  27344150.06346                  21327915.58543                  24099233.0634
  24099231.0394   30969816.18846  24153079.94144  24402520.5234   24402518.4344
 -22379673.32848 -17415775.79346  20938757.7274                   20938755.2034
 -11053352.43048  -8312368.01346  21436688.8834                   21436684.8244
 -19403694.54347 -15096501.03144  22985599.3284                   22985597.6684
 -19320130.39148 -15035966.88446  21210588.8364                   21210584.1174
 11  9 26  3  2 30.0000000  0  8G22G29G09G06G15G18G26G21
  22868267.28947  17838826.91844  23641002.4454                   23640997.5124
 -34784678.07448 -27083082.38346  21441537.9224                   21441535.5084
  27160658.90647                  21184935.49444                  24064316.9454
  24064314.7274   30795815.82847  24017495.32943  24369408.5944   24369406.3984
 -22431360.11748 -17456051.21546  20928922.2974                   20928919.1564
 -11170926.11748  -8403983.84946  21414315.4534                   21414311.2934
 -19400268.46947 -15093831.38444  22986251.5554                   22986249.4804
 -19470071.77748 -15152804.31246  21182055.9924                   21182051.0044
 11  9 26  3  3  0.0000000  0  8G22G29G09G06G15G18G26G21
  22710866.31646  17716176.86444  23611048.5474                   23611043.8164
 -34802150.56248 -27096697.30046  21438212.7194                   21438210.8634
  26977218.03547                  21041994.63744                  24029408.8284
  24029406.7974   30622140.28147  23882163.79744  24336359.7664   24336358.2074
 -22482533.14148 -17495926.28446  20919184.5394                   20919182.0434
 -11288320.66448  -8495460.10146  21391975.6334                   21391972.3404
 -19396480.71546 -15090879.93344  22986972.2344                   22986970.6484
 -19619831.87148 -15269500.47846  21153557.3204                   21153553.1804
 11  9 26  3  3 30.0000000  0  8G22G29G09G06G15G18G26G21
  22553619.84047  17593647.20144  23581126.5784                   23581121.2774
 -34819239.33248 -27110013.25546  21434961.2034                   21434958.8954
  26793830.93847                  20899095.64243                  23994511.5784
  23994508.4534   30448791.62147  23747086.95343  24303372.5704   24303370.8484
 -22533193.89148 -17535402.18846  20909543.9924                   20909541.5864
 -11405536.65648  -8586797.21646  21369670.0394                   21369666.8444
 -19392334.53946 -15087649.14144  22987760.9534                   22987759.7274
 -19769408.84448 -15386053.95146  21125093.8364                   21125090.1994
 11  9 26  3  4  0.0000000  0  8G22G29G09G06G15G18G26G21
  22396528.60547  17471238.53844  23551232.8284                   23551227.4104
 -34835945.69548 -27123031.19046  21431781.7584                   21431780.0434
  26610502.44547                  20756242.32444                  23959625.2584
  23959624.2854   30275773.71147  23612267.86543  24270448.5944   24270447.2504
 -22583343.02048 -17574479.41546  20900001.1954                   20899997.9774
 -11522573.61748  -8677994.84246  21347398.5634                   21347395.2774
 -19387831.49246 -15084140.33743  22988617.1724                   22988615.7464
 -19918798.85248 -15502461.73146  21096665.9694                   21096661.7384
 11  9 26  3  4 30.0000000  0  8G22G29G09G06G15G18G26G21
  22239592.07847  17348950.36544  23521369.0704                   23521363.1844
 -34852272.47748 -27135753.38646  21428675.0864                   21428672.9384
  26427235.25847                  20613436.74944                  23924749.9064
  23924748.2974   30103088.03946  23477707.68944  24237587.2034   24237586.1564
 -22632983.20348 -17613160.05846  20890554.6954                   20890551.7194
 -11639432.50848  -8769053.69146  21325161.1414                   21325158.0944
 -19382975.69147 -15080356.58643  22989542.3524                   22989540.1024
 -20068000.48448 -15618722.74546  21068273.8054                   21068269.5784
 11  9 26  3  5  0.0000000  0  8G22G29G09G06G15G18G26G21
  22082807.73447  17226780.80544  23491533.6024                   23491527.8674
 -34868224.60548 -27148183.62946  21425639.6024                   21425637.5704
  26244030.36346                  20470679.74944                  23889887.3674
  23889886.3714   29930734.56646  23343406.28243  24204788.7584   24204787.2194
 -22682118.46148 -17651447.27546  20881204.4924                   20881201.9614
 -11756116.62148  -8859976.35846  21302957.0704                   21302953.6804
 -19377772.66846 -15076302.32343  22990532.3984                   22990529.8714
 -20217014.37148 -15734837.44146  21039917.4534                   21039912.9304
 11  9 26  3  5 30.0000000  0  8G22G29G09G06G15G18G26G21
  21926176.76646  17104730.71944  23461727.5394                   23461721.8404
 -34883803.17648 -27160322.78646  21422675.0704                   21422673.1134
  26060892.60947                  20327975.07344                  23855037.5944
  23855037.9414   29758717.07846  23209366.79343  24172054.7114   24172053.0124
 -22730749.14548 -17689341.30946  20871950.5784                   20871947.3134
 -11872625.03948  -8950762.13146  21280786.1644                   21280782.3244
 -19372224.20346 -15071978.84844  22991588.1024                   22991586.2194
 -20365836.76248 -15850802.92846  21011597.3754                   21011593.1174
 11  9 26  3  6  0.0000000  0  8G22G29G09G06G15G18G26G21
  21769700.39847  16982801.18744  23431951.3284                   23431946.6024
 -34899009.10548 -27172171.57646  21419781.6804                   21419779.4804
  25877826.95346                  20185326.55344                  23820200.4534
  23820199.4024   29587039.34046  23075591.97643  24139384.6644   24139382.8094
 -22778875.76248 -17726842.56546  20862792.5634                   20862789.5554
 -11988956.69548  -9041410.14546  21258648.8674                   21258645.2544
 -19366331.76647 -15067387.39043  22992709.7664                   22992707.4304
 -20514463.94948 -15966616.30246  20983314.3284                   20983310.5124
 11  9 26  3  6 30.0000000  0  8G22G29G09G06G15G18G26G21
  23188803.62147  18088595.97544  23701997.3284                   23701992.7344
 -33338424.32848 -25956131.50646  21716751.2894                   21716748.5354
  27270262.69146                  21270341.51543                  24085171.9844
  24085170.9184   30991129.02346  24169687.85843  24406575.1334   24406572.4534
 -21251079.26648 -16536351.77846  21153522.4774                   21153519.6414
 -10529688.85948  -7904318.30546  21536338.5084                   21536334.9224
 -17784679.13746 -13834930.81543  23293688.2274                   23293686.4574
 -19087469.14548 -14854672.27446  21254862.6094                   21254858.1174
 11  9 26  3  7  0.0000000  0  8G22G29G09G06G15G18G26G21
  23032635.32046  17966906.45844  23672279.4844                   23672275.2384
 -33352892.60548 -25967405.50046  21713997.7974                   21713995.7774
  27087350.82447                  21127812.83644                  24050366.2424
  24050364.1684   30820136.69546  24036447.12343  24374036.9384   24374033.4144
 -21298204.70748 -16573072.88946  21144554.7584                   21144551.4844
 -10645669.79348  -7994693.04046  21514268.0394                   21514264.2154
 -17778109.24647 -13829811.43543  23294937.7344                   23294935.5354
 -19235700.59048 -14970177.29346  21226655.0164                   21226650.9304
 11  9 26  3  7 30.0000000  0  8G22G29G09G06G15G18G26G21
  22876619.65646  17845335.88444  23642590.7194                   23642585.6564
 -33366997.31248 -25978396.18746  21711313.9924                   21711311.6024
  26904519.86746                  20985347.19943                  24015573.4614
  24015572.4734   30649489.28146  23903475.11143  24341562.8834   24341559.9454
 -21344833.23048 -16609406.80146  21135681.6954                   21135678.3984
 -10761477.91048  -8084933.11946  21492230.3594                   21492226.6524
 -17771206.75847 -13824432.90143  23296251.3834                   23296249.5984
 -19383732.11748 -15085526.52546  21198485.5474                   21198481.0704
 11  9 26  3  8  0.0000000  0  8G22G29G09G06G15G18G26G21
  22720754.73047  17723882.75744  23612930.5944                   23612925.2424
 -33380742.33648 -25989106.61346  21708697.9454                   21708696.4224
  26721771.41846                  20842945.88144                  23980798.6954
  23980796.1684   30479187.39546  23770772.41743  24309156.4064   24309154.6604
 -21390968.66848 -16645356.48146  21126902.2424                   21126899.1644
 -10877115.14548  -8175040.03446  21470225.4534                   21470221.8324
 -17763976.27747 -13818798.75043  23297627.8444                   23297625.9184
 -19531563.23848 -15200719.56746  21170354.5084                   21170350.0044
 11  9 26  3  8 30.0000000  0  8G22G29G09G06G15G18G26G21
  22565043.41847  17602549.33844  23583299.6094                   23583295.0984
 -33394127.53948 -25999536.65446  21706150.9384                   21706148.7774
  26539111.72747                  20700613.72444                  23946039.6954
  23946037.3754   30309235.89847  23638342.68243  24276815.7974   24276813.9454
 -21436610.12548 -16680921.24746  21118216.7504                   21118213.8834
 -10992579.32848  -8265012.10646  21448253.0394                   21448249.9574
 -17756418.29747 -13812909.42644  23299066.1804                   23299064.8364
 -19679189.05948 -15315752.66646  21142261.9454                   21142257.7074
 11  9 26  3  9  0.0000000  0  8G22G29G09G06G15G18G26G21
  22409484.00047  17481334.29444  23553697.6564                   23553692.4694
 -33407156.25847 -26009688.93246  21703671.8594                   21703669.7584
  26356543.19547                  20558352.55644                  23911297.7344
  23911294.9574   30139636.09847  23506186.99443  24244541.9224   24244540.0704
 -21481760.83248 -16716103.62046  21109625.2814                   21109622.0354
 -11107872.00448  -8354850.53246  21426313.7424                   21426310.1564
 -17748536.92647 -13806768.13144  23300565.7814                   23300563.9344
 -19826608.85948 -15430625.21546  21114208.6954                   21114204.9264
 11  9 26  3  9 30.0000000  0  8G22G29G09G06G15G18G26G21
  22254076.51247  17360237.59544  23524124.7274                   23524119.3984
 -33419830.70347 -26019565.12946  21701259.6884                   21701257.4344
  26174069.62947                  20416165.43143                  23876573.8594
  23876572.9734   29970390.36346  23374307.20643  24212334.8524   24212333.2034
 -21526422.55148 -16750904.95946  21101126.2424                   21101123.6454
 -11222993.62948  -8444555.67946  21404406.9384                   21404403.2624
 -17740335.37147 -13800377.38844  23302126.3984                   23302124.9884
 -19973819.88748 -15545335.10246  21086195.5554                   21086191.5744
 11  9 26  3 10  0.0000000  0  8G22G29G09G06G15G18G26G21
  22098821.14147  17239259.46544  23494580.6024                   23494576.2194
 -33432153.14547 -26029167.04646  21698914.8754                   21698912.7424
  25991694.85547                  20274055.23044                  23841869.9534
  23841866.3244   29801501.34046  23242705.42543  24180196.1724   24180194.0354
 -21570597.11748 -16785326.69446  21092720.2894                   21092717.2974
 -11337945.21148  -8534128.31146  21382532.2974                   21382528.3984
 -17731816.15247 -13793739.06344  23303747.8594                   23303746.5124
 -20120819.83648 -15659880.48846  21058222.4614                   21058218.3444
 11  9 26  3 10 30.0000000  0  8G22G29G09G06G15G18G26G21
  21943715.21147  17118397.76244  23465064.5394                   23465060.0984
 -33444128.69947 -26038498.67546  21696636.0314                   21696633.8594
  25809419.87547                  20132022.88244                  23807182.9384
  23807182.5164   29632968.52746  23111381.19743  24148125.3364   24148123.3284
 -21614288.76248 -16819372.12646  21084405.9304                   21084403.0474
 -11452729.13748  -8623570.31646  21360690.1094                   21360685.7704
 -17722985.09447 -13786857.73744  23305428.2734                   23305426.3524
 -20267608.95748 -15774261.61546  21030289.0704                   21030285.2624
 11  9 26  3 11  0.0000000  0  8G22G29G09G06G15G18G26G21
  21788757.80547  16997651.78744  23435577.2344                   23435572.6804
 -33455760.50447 -26047562.42746  21694423.0394                   21694420.5634
  25627247.24247                  19990070.20844                  23772516.9844
  23772514.6764   29464793.66846  22980335.83743  24116122.7974   24116119.8204
 -21657500.07047 -16853043.28146  21076183.0314                   21076179.8834
 -11567346.87948  -8712882.82446  21338878.8524                   21338874.4884
 -17713846.07047 -13779736.48944  23307168.1024                   23307165.5354
 -20414185.78948 -15888477.30246  21002396.7274                   21002392.4654
 11  9 26  3 11 30.0000000  0  8G22G29G09G06G15G18G26G21
  21633952.17247  16877024.04044  23406118.7344                   23406113.9494
 -33467047.50847 -26056357.51046  21692274.7734                   21692272.8524
  25445184.28147                  19848203.01544                  23737871.5394
  23737868.8444   29296982.20346  22849573.69643  24084188.7814   24084186.8714
 -21700229.86748 -16886339.20946  21068051.8054                   21068048.4384
 -11681795.64848  -8802063.67246  21317099.7734                   21317096.2854
 -17704398.90247 -13772375.04343  23308965.3284                   23308962.7344
 -20560544.57848 -16002523.11346  20974545.5314                   20974540.8364
 11  9 26  3 12  0.0000000  0  8G22G29G09G06G15G18G26G21
  21479296.05147  16756512.85644  23376688.8284                   23376684.1844
 -33477994.85247 -26064887.94046  21690192.1094                   21690189.9454
  25263231.94947                  19706422.04244                  23703247.4844
  23703246.0514   29129534.16447  22719094.76743  24052324.5084   24052322.1644
 -21742482.59447 -16919263.41146  21060011.2814                   21060008.6524
 -11796078.04748  -8891114.87546  21295352.3754                   21295348.7384
 -17694648.76646 -13764777.57543  23310820.4844                   23310818.9844
 -20706685.55948 -16116399.18146  20946735.8524                   20946731.2234
 11  9 26  3 12 30.0000000  0  8G22G29G09G06G15G18G26G21
  21324789.87147  16636118.48344  23347287.3204                   23347281.2734
 -33488604.21947 -26073154.99646  21688172.5084                   21688170.6374
  25081394.70347                  19564730.70144                  23668644.9304
  23668642.9734   28962452.55947  22588901.24043  24020530.6094   24020527.5394
 -21784259.33647 -16951816.71846  21052061.3914                   21052058.4694
 -11910194.34048  -8980036.63846  21273636.5634                   21273632.6644
 -17684598.21946 -13756946.08143  23312733.0084                   23312731.1804
 -20852605.86348 -16230103.29646  20918967.9534                   20918963.8364
 11  9 26  3 13  0.0000000  0  8G22G29G09G06G15G18G26G21
  21170433.48047  16515840.82144  23317913.6724                   23317908.9614
 -33498877.70747 -26081160.33546  21686217.6174                   21686215.7584
  24899676.12147                  19423131.85244                  23634064.4614
  23634063.2664   28795739.86347  22458995.29343  23988806.8674   23988803.0004
 -21825562.21948 -16984000.77846  21044201.6484                   21044198.3984
 -12024144.50847  -9068828.94946  21251952.7344                   21251949.2734
 -17674250.03946 -13748882.58943  23314701.7584                   23314700.0474
 -20998302.91448 -16343633.44946  20891242.9534                   20891238.4264
 11  9 26  3 13 30.0000000  0  8G22G29G09G06G15G18G26G21
  21016226.06647  16395679.21044  23288569.0864                   23288564.0784
 -33508818.76647 -26088906.63646  21684326.1024                   21684324.0554
  24718078.68047                  19281627.36744                  23599508.1954
  23599504.8754   28629396.95747  22329377.47143  23957152.4924   23957149.9494
 -21866393.57448 -17015817.41546  21036432.0164                   21036428.5514
 -12137930.21148  -9157493.11846  21230300.3284                   21230296.4184
 -17663608.34447 -13740590.41443  23316727.1564                   23316725.5124
 -21143775.38748 -16456988.60746  20863560.1724                   20863555.9494
 11  9 26  3 14  0.0000000  0  8G22G29G09G06G15G18G26G21
  20862169.34447  16275635.07444  23259253.1334                   23259248.2664
 -33518428.25847 -26096394.56846  21682497.5164                   21682495.7344
  24536607.77047                  19140221.58044                  23564975.8834
  23564973.7384   28463428.19147  22200051.19943  23925569.2664   23925567.4264
 -21906754.03548 -17047267.12446  21028751.2734                   21028748.3324
 -12251550.02048  -9246028.00746  21208678.8054                   21208675.4694
 -17652674.29747 -13732070.41344  23318807.6564                   23318806.2234
 -21289019.28948 -16570165.65446  20835921.0784                   20835917.1294
 11  9 26  3 14 30.0000000  0  8G22G29G09G06G15G18G26G21
  20708259.55947  16155705.42744  23229965.3674                   23229960.1054
 -33527711.57047 -26103628.34546  21680731.1094                   21680729.0944
  24355264.00847                  18998914.74744                  23530466.2974
  23530464.6954   28297832.52346  22071015.65444  23894058.1564   23894055.8954
 -21946648.87548 -17078353.99446  21021159.5704                   21021156.6454
 -12365007.71548  -9334436.59446  21187088.6954                   21187085.1994
 -17641454.30147 -13723327.56144  23320943.4144                   23320941.9884
 -21434035.34848 -16683165.16946  20808325.4614                   20808320.8874
 11  9 26  3 15  0.0000000  0  8G22G29G09G06G15G18G26G21
  22129922.73447  17263494.97444  23500498.6884                   23500493.0634
 -31961250.26247 -24883009.17746  21978818.7034                   21978816.7194
  25749478.09447                  20085315.41144                  23795776.1564
  23795774.6054   29708038.55947  23169877.54744  24162411.2664   24162409.1294
 -20410657.82448 -15881477.84146  21313448.8364                   21313446.3634
 -10902879.37548  -8195115.78846  21465322.3284                   21465318.8874
 -16054530.99247 -12486764.01043  23622924.5314                   23622923.4884
 -20003395.88348 -15568381.16246  21080567.2734                   21080562.6414
 11  9 26  3 15 30.0000000  0  8G22G29G09G06G15G18G26G21
  21976306.50847  17143794.07044  23471266.1724                   23471261.0664
 -31969889.83647 -24889741.32746  21977174.4144                   21977172.8524
  25568399.34047                  19944215.10044                  23761319.4774
  23761317.2074   29543195.19547  23041428.18544  24131042.6024   24131040.9104
 -20449628.12948 -15911844.31746  21306033.4924                   21306030.3444
 -11016015.16847  -8283273.53946  21443793.4534                   21443789.6604
 -16042748.75846 -12477583.05143  23625167.0234                   23625165.6914
 -20147950.33648 -15681020.97846  21053059.4924                   21053054.8754
 11  9 26  3 16  0.0000000  0  8G22G29G09G06G15G18G26G21
  21822835.95347  17024206.68144  23442060.7734                   23442056.1094
 -31978212.26247 -24896226.34446  21975591.1484                   21975588.8984
  25387457.38347                  19803221.46944                  23726885.9454
  23726883.6914   29378730.49246  22913273.89444  24099745.3284   24099743.9264
 -20488139.79348 -15941853.40346  21298704.9694                   21298701.7034
 -11128991.34047  -8371306.89246  21422294.6954                   21422291.1604
 -16030690.72346 -12468187.18243  23627461.5704                   23627459.5744
 -20292271.00048 -15793478.61546  21025596.0784                   21025591.7424
 11  9 26  3 16 30.0000000  0  8G22G29G09G06G15G18G26G21
  21669510.45747  16904732.33544  23412884.6804                   23412879.0394
 -31986220.12547 -24902466.26846  21974067.2974                   21974065.1094
  25206655.52747                  19662336.94744                  23692479.8524
  23692479.5944   29214646.04346  22785415.97643  24068520.7114   24068519.7114
 -20526195.52748 -15971507.21546  21291462.9774                   21291459.9344
 -11241808.84848  -8459216.62046  21400826.1954                   21400822.6524
 -16018360.44546 -12458579.16443  23629807.9844                   23629805.6914
 -20436356.75848 -15905753.23146  20998177.5394                   20998173.0004
 11  9 26  3 17  0.0000000  0  8G22G29G09G06G15G18G26G21
  21516331.82047  16785372.39444  23383735.8204                   23383730.5274
 -31993914.01247 -24908461.51946  21972603.1174                   21972601.1564
  25025999.41047                  19521565.95544                  23658103.2274
  23658099.9964   29050946.19547  22657857.65844  24037369.9774   24037369.5274
 -20563795.69148 -16000806.04746  21284307.8914                   21284304.5394
 -11354466.47748  -8547001.76546  21379388.4844                   21379384.6524
 -16005758.94547 -12448759.90443  23632204.9064                   23632203.4964
 -20580203.00448 -16017841.20146  20970804.5704                   20970800.3164
 11  9 26  3 17 30.0000000  0  8G22G29G09G06G15G18G26G21
  21363300.41847  16666127.21244  23354614.8984                   23354609.5394
 -32001295.93047 -24914213.67446  21971198.6644                   21971196.1764
  24845493.38747                  19380911.99344                  23623753.5084
  23623752.5434   28887633.68446  22530601.17344  24006292.2894   24006292.4264
 -20600941.29348 -16029750.66646  21277239.3674                   21277236.1524
 -11466963.82047  -8634662.01046  21357980.8754                   21357976.8094
 -15992888.64546 -12438731.07643  23634655.5164                   23634652.4104
 -20723806.68747 -16129740.16346  20943477.7194                   20943473.3014
 11  9 26  3 18  0.0000000  0  8G22G29G09G06G15G18G26G21
  21210414.50447  16546995.38844  23325521.8914                   23325515.7544
 -32008370.11347 -24919726.04645  21969852.1024                   21969849.8954
  24665139.14547                  19240376.25544                  23589433.7734
  23589430.9574   28724708.86746  22403646.79643  23975288.5704   23975288.0044
 -20637636.37948 -16058344.22846  21270256.5084                   21270253.5274
 -11579303.35248  -8722199.29446  21336603.2194                   21336599.6804
 -15979754.28946 -12428496.56443  23637154.6884                   23637152.5664
 -20867167.13348 -16241449.58546  20916196.9614                   20916193.0084
 11  9 26  3 18 30.0000000  0  8G22G29G09G06G15G18G26G21
  21057671.34047  16427974.79644  23296455.4454                   23296449.6334
 -32015141.71547 -24925002.63646  21968563.8914                   21968561.6604
  24484937.71147                  19099959.61844                  23555141.8914
  23555140.9534   28562171.11346  22276994.03344  23944358.8984   23944357.6294
 -20673886.24648 -16086590.88846  21263358.8984                   21263355.3554
 -11691488.12947  -8809615.98246  21315255.3594                   21315251.6254
 -15966361.65246 -12418060.79443  23639703.0864                   23639701.4494
 -21010284.65648 -16352969.72446  20888962.5634                   20888958.3444
 11  9 26  3 19  0.0000000  0  8G22G29G09G06G15G18G26G21
  20905074.25047  16309068.02444  23267417.0784                   23267411.6454
 -32021609.66847 -24930042.61446  21967332.9224                   21967331.1884
  24304896.29747                  18959667.64644                  23520881.6174
  23520880.1994   28400026.47747  22150647.61444  23913504.4384   23913502.7504
 -20709688.30148 -16114488.58946  21256545.7034                   21256542.8404
 -11803514.80948  -8896909.48746  21293937.0084                   21293933.6644
 -15952710.13746 -12407423.27343  23642300.3204                   23642298.7034
 -21153153.29348 -16464295.92846  20861775.9144                   20861771.4694
 11  9 26  3 19 30.0000000  0  9G22G29G09G06G14G15G18G26G21
  20752620.76247  16190273.13844  23238406.5944                   23238400.7974
 -32027779.12947 -24934850.01245  21966158.6804                   21966156.5514
  24125016.30147                  18819501.46244                  23486651.6094
  23486649.7814   28238274.54747  22024607.16244  23882723.7504   23882721.6484
  39084108.96515                  24533207.219
 -20745047.65247 -16142041.32846  21249816.7974                   21249814.0314
 -11915386.50448  -8984082.21246  21272648.3364                   21272645.2034
 -15938804.95346 -12396588.19243  23644946.7974                   23644945.3324
 -21295773.61748 -16575428.64246  20834635.8594                   20834631.6604
 11  9 26  3 20  0.0000000  0  9G22G29G09G06G14G15G18G26G21
  20600301.09847  16071582.54244  23209421.1254                   23209416.1804
 -32033662.03547 -24939434.11245  21965039.0554                   21965037.1644
  23945291.68447                  18679456.38644                  23452450.3054
  23452449.0004   28076907.77346  21898866.84844  23852016.1174   23852014.4104
  38880660.07846  30319797.26653  24494492.1254                   24494489.9884
 -20779976.36747 -16169258.49946  21243169.9064                   21243167.3834
 -12027113.12548  -9071141.91046  21251387.9144                   21251384.2814
 -15924658.88746 -12385565.29443  23647638.5084                   23647637.2814
 -21438152.50448 -16686373.21746  20807541.9454                   20807538.1524
 11  9 26  3 20 30.0000000  0  9G22G29G09G06G14G15G18G26G21
  20448112.35947  15952993.97544  23180459.7974                   23180455.0474
 -32039263.44547 -24943798.86745  21963973.4844                   21963971.3634
  23765723.58647                  18539533.24244                  23418280.5474
  23418278.8594   27915925.62547  21773426.20244  23821383.4224   23821380.0594
  38677305.93446  30161339.70143  24455795.3524                   24455793.6764
 -20814478.66847 -16196143.42846  21236604.7504                   21236601.6994
 -12138698.08248  -9158091.20446  21230153.7424                   21230150.3524
 -15910277.59046 -12374359.13943  23650375.7114                   23650373.9224
 -21580290.28948 -16797129.93346  20780494.3834                   20780489.9844
 11  9 26  3 21  0.0000000  0  9G22G29G09G06G14G15G18G26G21
  20296057.71547  15834509.85745  23151524.8134                   23151520.4694
 -32044582.91447 -24947943.91145  21962960.9534                   21962959.1374
  23586318.87947                  18399737.38044                  23384140.7424
  23384138.3484   27755333.34046  21648289.41443  23790823.5554   23790820.4264
  38474052.10946  30002960.29443  24417116.4534                   24417114.4694
 -20848553.47348 -16222695.21746  21230120.4064                   21230117.6254
 -12250138.22748  -9244927.68246  21208947.3364                   21208943.8014
 -15895660.84847 -12362969.50443  23653157.4454                   23653155.6564
 -21722181.52748 -16907694.53146  20753493.0234                   20753488.6174
